[[{"header":{"parameterUnit":"m.s-1","parameterCategory":1,"la1":31.0,"la2":29.5877,"lo1":-88.7671,"lo2":-86.6584,"dy":0.0162,"dx":0.0185,"nx":115,"ny":88,"refTime":"2023-10-24T18:00:00:Z","depth":0,"parameterNumber":2,"parameterNumberName":"U-component_of_WINDS"},"data":[0.0,0.0,0.0,0.0,0.0,0.0,0.0,0.0,0.0,0.0,0.0,0.0,0.0,0.0,0.0,0.0,0.0,0.0,0.0,0.0,0.0,0.0,0.0,0.0,0.0,0.0,0.0,0.0,0.0,0.0,0.0,0.0,0.0,0.0,0.0,0.0,0.0,0.0,0.0,0.0,0.0,0.0,0.0,0.0,0.0,0.0,0.0,0.0,0.0,0.0,0.0,0.0,0.0,0.0,0.0,0.0,0.0,0.0,0.0,0.0,0.0,0.0,0.0,0.0,0.0,0.0,0.0,0.0,0.0,0.0,0.0,0.0,0.0,0.0,0.0,0.0,0.0,0.0,0.0,0.0,0.0,0.0,0.0,0.0,0.0,0.0,0.0,0.0,0.0,0.0,0.0,0.0,0.0,0.0,0.0,0.0,0.0,0.0,0.0,0.0,0.0,0.0,0.0,0.0,0.0,0.0,0.0,0.0,0.0,0.0,0.0,0.0,0.0,0.0,0.0,0.0,0.0,0.0,0.0,0.0,0.0,0.0,0.0,0.0,0.0,0.0,0.0,0.0,0.0,0.0,0.0,0.0,0.0,0.0,0.0,0.0,0.0,0.0,0.0,0.0,0.0,0.0,0.0,0.0,0.0,0.0,0.0,0.0,0.0,0.0,0.0,0.0,0.0,0.0,0.0,0.0,0.0,0.0,0.0,0.0,0.0,0.0,0.0,0.0,0.0,0.0,0.0,0.0,0.0,0.0,0.0,0.0,0.0,0.0,0.0,0.0,0.0,0.0,0.0,0.0,0.0,0.0,0.0,0.0,0.0,0.0,0.0,0.0,0.0,0.0,0.0,0.0,0.0,0.0,0.0,0.0,0.0,0.0,0.0,0.0,0.0,0.0,0.0,0.0,0.0,0.0,0.0,0.0,0.0,0.0,0.0,0.0,0.0,0.0,0.0,0.0,0.0,0.0,0.0,0.0,0.0,0.0,0.0,0.0,0.0,0.0,0.0,0.0,0.0,0.0,0.0,0.0,0.0,0.0,0.0,0.0,0.0,0.0,0.0,0.0,0.0,0.0,0.0,0.0,0.0,0.0,0.0,0.0,0.0,0.0,0.0,0.0,0.0,0.0,0.0,0.0,0.0,0.0,0.0,0.0,0.0,0.0,0.0,0.0,0.0,0.0,0.0,0.0,0.0,0.0,0.0,0.0,0.0,0.0,0.0,0.0,0.0,0.0,0.0,0.0,0.0,0.0,0.0,0.0,0.0,0.0,0.0,0.0,0.0,0.0,0.0,0.0,0.0,0.0,0.0,0.0,0.0,0.0,0.0,0.0,0.0,0.0,0.0,0.0,0.0,0.0,0.0,0.0,0.0,0.0,0.0,0.0,0.0,0.0,0.0,0.0,0.0,0.0,0.0,0.0,0.0,0.0,0.0,0.0,0.0,0.0,0.0,0.0,0.0,0.0,0.0,0.0,0.0,0.0,0.0,0.0,0.0,0.0,0.0,0.0,0.0,0.0,0.0,0.0,0.0,0.0,0.0,0.0,0.0,0.0,0.0,0.0,0.0,0.0,0.0,0.0,0.0,0.0,0.0,0.0,0.0,0.0,0.0,0.0,0.0,0.0,0.0,0.0,0.0,0.0,0.0,0.0,0.0,0.0,0.0,0.0,0.0,0.0,0.0,0.0,0.0,0.0,0.0,0.0,0.0,0.0,0.0,0.0,0.0,0.0,0.0,0.0,0.0,0.0,0.0,0.0,0.0,0.0,0.0,0.0,0.0,0.0,0.0,0.0,0.0,0.0,0.0,0.0,0.0,0.0,0.0,0.0,0.0,0.0,0.0,0.0,0.0,0.0,0.0,0.0,0.0,0.0,0.0,0.0,0.0,0.0,0.0,0.0,0.0,0.0,0.0,0.0,0.0,0.0,0.0,0.0,0.0,0.0,0.0,0.0,0.0,0.0,0.0,0.0,0.0,0.0,0.0,0.0,0.0,0.0,0.0,0.0,0.0,0.0,0.0,0.0,0.0,0.0,0.0,0.0,0.0,0.0,0.0,0.0,0.0,0.0,0.0,0.0,0.0,0.0,0.0,0.0,0.0,0.0,0.0,0.0,0.0,0.0,0.0,0.0,0.0,0.0,0.0,0.0,0.0,0.0,0.0,0.0,0.0,0.0,0.0,0.0,0.0,0.0,0.0,0.0,0.0,0.0,0.0,0.0,0.0,0.0,0.0,0.0,0.0,0.0,0.0,0.0,0.0,0.0,0.0,0.0,0.0,0.0,0.0,0.0,0.0,0.0,0.0,0.0,0.0,0.0,0.0,0.0,0.0,0.0,0.0,0.0,0.0,0.0,0.0,0.0,0.0,0.0,0.0,0.0,0.0,0.0,0.0,0.0,0.0,0.0,0.0,0.0,0.0,0.0,0.0,0.0,0.0,0.0,0.0,0.0,0.0,0.0,0.0,0.0,0.0,0.0,0.0,0.0,0.0,0.0,0.0,0.0,0.0,0.0,0.0,0.0,0.0,0.0,0.0,0.0,0.0,0.0,0.0,0.0,0.0,0.0,0.0,0.0,0.0,0.0,0.0,0.0,0.0,0.0,0.0,0.0,0.0,0.0,0.0,0.0,0.0,0.0,0.0,0.0,0.0,0.0,0.0,0.0,0.0,0.0,0.0,0.0,0.0,0.0,0.0,0.0,0.0,0.0,0.0,0.0,0.0,0.0,0.0,0.0,0.0,0.0,0.0,0.0,0.0,0.0,0.0,0.0,0.0,0.0,0.0,0.0,0.0,0.0,0.0,0.0,0.0,0.0,0.0,0.0,0.0,0.0,0.0,0.0,0.0,0.0,0.0,0.0,0.0,0.0,0.0,0.0,0.0,0.0,0.0,0.0,0.0,0.0,0.0,0.0,0.0,0.0,0.0,0.0,0.0,0.0,0.0,0.0,0.0,0.0,0.0,0.0,0.0,0.0,0.0,0.0,0.0,0.0,0.0,0.0,0.0,0.0,0.0,0.0,0.0,0.0,0.0,0.0,0.0,0.0,0.0,0.0,0.0,0.0,0.0,0.0,0.0,0.0,0.0,0.0,0.0,0.0,0.0,0.0,0.0,0.0,0.0,0.0,0.0,0.0,0.0,0.0,0.0,0.0,0.0,0.0,0.0,0.0,0.0,0.0,0.0,0.0,0.0,0.0,0.0,0.0,0.0,0.0,0.0,0.0,0.0,0.0,0.0,0.0,0.0,0.0,0.0,0.0,0.0,0.0,0.0,0.0,0.0,0.0,0.0,0.0,0.0,0.0,0.0,0.0,0.0,0.0,0.0,0.0,0.0,0.0,0.0,0.0,0.0,0.0,0.0,0.0,0.0,0.0,0.0,0.0,0.0,0.0,0.0,0.0,0.0,0.0,0.0,0.0,0.0,0.0,0.0,0.0,0.0,0.0,0.0,0.0,0.0,0.0,0.0,0.0,0.0,0.0,0.0,0.0,0.0,0.0,0.0,0.0,0.0,0.0,0.0,0.0,0.0,0.0,0.0,0.0,0.0,0.0,0.0,0.0,0.0,0.0,0.0,0.0,0.0,0.0,0.0,0.0,0.0,0.0,0.0,0.0,0.0,0.0,0.0,0.0,0.0,0.0,0.0,0.0,0.0,0.0,0.0,0.0,0.0,0.0,0.0,0.0,0.0,0.0,0.0,0.0,0.0,0.0,0.0,0.0,0.0,0.0,0.0,0.0,0.0,0.0,0.0,0.0,0.0,0.0,0.0,0.0,0.0,0.0,0.0,0.0,0.0,0.0,0.0,0.0,0.0,0.0,0.0,0.0,0.0,0.0,0.0,0.0,0.0,0.0,0.0,0.0,0.0,0.0,0.0,0.0,0.0,0.0,0.0,0.0,0.0,0.0,0.0,0.0,0.0,0.0,0.0,0.0,0.0,0.0,0.0,0.0,0.0,0.0,0.0,0.0,0.0,0.0,0.0,0.0,0.0,0.0,0.0,0.0,0.0,0.0,0.0,0.0,0.0,0.0,0.0,0.0,0.0,0.0,0.0,0.0,0.0,0.0,0.0,0.0,0.0,0.0,0.0,0.0,0.0,0.0,0.0,0.0,0.0,0.0,0.0,0.0,0.0,0.0,0.0,0.0,0.0,0.0,0.0,0.0,0.0,0.0,0.0,0.0,0.0,0.0,0.0,0.0,0.0,0.0,0.0,0.0,0.0,0.0,0.0,0.0,0.0,0.0,0.0,0.0,0.0,0.0,0.0,0.0,0.0,0.0,0.0,0.0,0.2273,0.0,0.0,0.0,0.0,0.0,0.0,0.0,0.0,0.0,0.0,0.0,0.0,0.0,0.0,0.0,0.0,0.0,0.0,0.0,0.0,0.0,0.0,0.0,0.0,0.0,0.0,0.0,0.0,0.0,0.0,0.0,0.0,0.0,0.0,0.0,0.0,0.0,0.0,0.0,0.0,0.0,0.0,0.0,0.0,0.0,0.0,0.0,0.0,0.0,0.0,0.0,0.0,0.0,0.0,0.0,0.0,0.0,0.0,0.0,0.0,0.0,0.0,0.0,0.0,0.0,0.0,0.0,0.0,0.0,0.0,0.0,0.0,0.0,0.0,0.0,0.0,0.0,0.0,0.0,0.0,0.0,0.0,0.0,0.0,0.0,0.0,0.0,0.0,0.0,0.0,0.0,0.0,0.0,0.0,0.0,0.0,0.0,0.0,0.0,0.0,0.0,0.0,0.0,0.0,0.0,0.0,0.0,0.0,0.0,0.0,0.2364,0.242,0.2556,0.262,0.2631,0.0,0.0,0.0,0.0,0.0,0.0,0.0,0.0,0.0,0.0,0.0,0.0,0.0,0.0,0.0,0.0,0.0,0.0,0.0,0.0,0.0,0.0,0.0,0.0,0.0,0.0,0.0,0.0,0.0,0.0,0.0,0.0,0.0,0.0,0.0,0.0,0.0,0.0,0.0,0.0,0.0,0.0,0.0,0.0,0.0,0.0,0.0,0.0,0.0,0.0,0.0,0.0,0.0,0.0,0.0,0.0,0.0,0.0,0.0,0.0,0.0,0.0,0.0,0.0,0.0,0.0,0.0,0.0,0.0,0.0,0.0,0.0,0.0,0.0,0.0,0.0,0.0,0.0,0.0,0.0,0.0,0.0,0.0,0.0,0.0,0.0,0.0,0.0,0.0,0.0,0.0,0.0,0.0,0.0,0.0,0.0,0.0,0.0,0.0,0.0,0.0,0.0,0.0,0.0,0.0,0.0,0.0,0.0,0.0,0.0,0.0,0.0,0.2737,0.2871,0.2974,0.0,0.0,0.0,0.0,0.0,0.0,0.0,0.0,0.0,0.0,0.0,0.0,0.0,0.0,0.0,0.0,0.0,0.0,0.0,0.0,0.0,0.0,0.0,0.0,0.0,0.0,0.0,0.0,0.0,0.0,0.0,0.0,0.0,0.0,0.0,0.0,0.0,0.0,0.0,0.0,0.0,0.0,0.0,0.0,0.0,0.0,0.0,0.0,0.0,0.0,0.0,0.0,0.0,0.0,0.0,0.0,0.0,0.0,0.0,0.0,0.0,0.0,0.0,0.0,0.0,0.0,0.0,0.0,0.0,0.0,0.0,0.0,0.0,0.0,0.0,0.0,0.0,0.0,0.0,0.0,0.0,0.0,0.0,0.0,0.0,0.0,0.0,0.0,0.0,0.0,0.0,0.0,0.0,0.0,0.0,0.0,0.0,0.0,0.0,0.0,0.0,0.0,0.0,0.0,0.0,0.0,0.0,0.0,0.0,0.0,0.273,0.2847,0.2876,0.0,0.3156,0.0,0.0,0.0,0.0,0.0,0.0,0.0,0.0,0.0,0.0,0.0,0.0,0.0,0.0,0.0,0.0,0.0,0.0,0.0,0.0,0.0,0.0,0.0,0.0,0.0,0.0,0.0,0.0,0.0,0.0,0.0,0.0,0.0,0.0,0.0,0.0,0.0,0.0,0.0,0.0,0.0,0.0,0.0,0.0,0.0,0.0,0.0,0.0,0.0,0.0,0.0,0.0,0.0,0.0,0.0,0.0,0.0,0.0,0.0,0.0,0.0,0.0,0.0,0.0,0.0,0.0,0.0,0.0,0.0,0.0,0.0,0.0,0.0,0.0,0.0,0.0,0.0,0.0,0.0,0.0,0.0,0.0,0.0,0.0,0.0,0.0,0.0,0.0,0.0,0.0,0.0,0.0,0.0,0.0,0.0,0.0,0.0,0.0,0.0,0.0,0.0,0.0,0.0,0.0,0.0,0.0,0.0,0.0,0.0,0.0,0.2842,0.2901,0.306,0.3239,0.0,0.0,0.0,0.0,0.0,0.0,0.0,0.0,0.0,0.0,0.0,0.0,0.0,0.0,0.0,0.0,0.0,0.0,0.0,0.0,0.0,0.0,0.0,0.0,0.0,0.0,0.0,0.0,0.0,0.0,0.0,0.0,0.0,0.0,0.0,0.0,0.0,0.0,0.0,0.0,0.0,0.0,0.0,0.0,0.0,0.0,0.0,0.0,0.0,0.0,0.0,0.0,0.0,0.0,0.0,0.0,0.0,0.0,0.0,0.0,0.0,0.0,0.0,0.0,0.0,0.0,0.0,0.0,0.0,0.0,0.0,0.0,0.0,0.0,0.0,0.0,0.0,0.0,0.0,0.0,0.0,0.0,0.0,0.0,0.0,0.0,0.0,0.0,0.0,0.0,0.0,0.0,0.0,0.0,0.0,0.0,0.0,0.0,0.0,0.0,0.0,0.0,0.0,0.0,0.0,0.0,0.0,0.0,0.0,0.0,0.2865,0.2926,0.3011,0.3263,0.3445,0.3597,0.0,0.0,0.0,0.0,0.0,0.0,0.0,0.0,0.0,0.0,0.0,0.0,0.0,0.0,0.0,0.0,0.0,0.0,0.0,0.0,0.0,0.0,0.0,0.0,0.0,0.0,0.0,0.0,0.0,0.0,0.0,0.0,0.0,0.0,0.0,0.0,0.0,0.0,0.0,0.0,0.0,0.0,0.0,0.0,0.0,0.0,0.0,0.0,0.0,0.0,0.0,0.0,0.0,0.0,0.0,0.0,0.0,0.0,0.0,0.0,0.0,0.0,0.0,0.0,0.0,0.0,0.0,0.0,0.0,0.0,0.0,0.0,0.0,0.0,0.0,0.0,0.0,0.0,0.0,0.0,0.0,0.0,0.0,0.0,0.0,0.0,0.0,0.0,0.0,0.0,0.0,0.0,0.0,0.0,0.0,0.0,0.0,0.0,0.0,0.0,0.0,0.0,0.0,0.0,0.0,0.0,0.0,0.0,0.2881,0.2901,0.3008,0.3255,0.3476,0.3597,0.0,0.0,0.0,0.0,0.0,0.0,0.0,0.0,0.0,0.0,0.0,0.0,0.0,0.0,0.0,0.0,0.0,0.0,0.0,0.0,0.0,0.0,0.0,0.0,0.0,0.0,0.0,0.0,0.0,0.0,0.0,0.0,0.0,0.0,0.0,0.0,0.0,0.0,0.0,0.0,0.0,0.0,0.0,0.0,0.0,0.0,0.0,0.0,0.0,0.0,0.0,0.0,0.0,0.0,0.0,0.0,0.0,0.0,0.0,0.0,0.0,0.0,0.0,0.0,0.0,0.0,0.0,0.0,0.0,0.0,0.0,0.0,0.0,0.0,0.0,0.0,0.0,0.0,0.0,0.0,0.0,0.0,0.0,0.0,0.0,0.0,0.0,0.0,0.0,0.0,0.0,0.0,0.0,0.0,0.0,0.0,0.0,0.0,0.0,0.0,0.0,0.0,0.0,0.0,0.0,0.0,0.0,0.0,0.0,0.2759,0.2902,0.3086,0.3346,0.3438,0.3508,0.0,0.0,0.0,0.0,0.0,0.0,0.0,0.0,0.0,0.0,0.0,0.0,0.0,0.0,0.0,0.0,0.0,0.0,0.0,0.0,0.0,0.0,0.0,0.0,0.0,0.0,0.0,0.0,0.0,0.0,0.0,0.0,0.0,0.0,0.0,0.0,0.0,0.0,0.0,0.0,0.0,0.0,0.0,0.0,0.0,0.0,0.0,0.0,0.0,0.0,0.0,0.0,0.0,0.0,0.0,0.0,0.0,0.0,0.0,0.0,0.0,0.0,0.0,0.0,0.0,0.0,0.0,0.0,0.0,0.0,0.0,0.0,0.0,0.0,0.0,0.0,0.0,0.0,0.0,0.0,0.0,0.0,0.0,0.0,0.0,0.0,0.0,0.0,0.0,0.0,0.0,0.0,0.0,0.0,0.0,0.0,0.0,0.0,0.0,0.0,0.0,0.0,0.0,0.0,0.0,0.0,0.0,0.0,0.0,0.2791,0.0,0.3183,0.338,0.3387,0.3453,0.0,0.0,0.0,0.0,0.0,0.0,0.0,0.0,0.0,0.0,0.0,0.0,0.0,0.0,0.0,0.0,0.0,0.0,0.0,0.0,0.0,0.0,0.0,0.0,0.0,0.0,0.0,0.0,0.0,0.0,0.0,0.0,0.0,0.0,0.0,0.0,0.0,0.0,0.0,0.0,0.0,0.0,0.0,0.0,0.0,0.0,0.0,0.0,0.0,0.0,0.0,0.0,0.0,0.0,0.0,0.0,0.0,0.0,0.0,0.0,0.0,0.0,0.0,0.0,0.0,0.0,0.0,0.0,0.0,0.0,0.0,0.0,0.0,0.0,0.0,0.0,0.0,0.0,0.0,0.0,0.0,0.0,0.0,0.0,0.0,0.0,0.0,0.0,0.0,0.0,0.0,0.0,0.0,0.0,0.0,0.0,0.0,0.0,0.0,0.0,0.0,0.0,0.0,0.0,0.0,0.0,0.0,0.0,0.2791,0.2981,0.3104,0.3238,0.3382,0.3388,0.3455,0.0,0.0,0.0,0.0,0.0,0.0,0.0,0.0,0.0,0.0,0.0,0.0,0.0,0.0,0.0,0.0,0.0,0.0,0.0,0.0,0.0,0.0,0.0,0.0,0.0,0.0,0.0,0.0,0.0,0.0,0.0,0.0,0.0,0.0,0.0,0.0,0.0,0.0,0.0,0.0,0.0,0.0,0.0,0.0,0.0,0.0,0.0,0.0,0.0,0.0,0.0,0.0,0.0,0.0,0.0,0.0,0.0,0.0,0.0,0.0,0.0,0.0,0.0,0.0,0.0,0.0,0.0,0.0,0.0,0.0,0.0,0.0,0.0,0.0,0.0,0.0,0.0,0.0,0.0,0.0,0.0,0.0,0.0,0.0,0.0,0.0,0.0,0.0,0.0,0.0,0.0,0.0,0.0,0.0,0.0,0.0,0.0,0.0,0.0,0.0,0.0,0.0,0.0,0.0,0.0,0.0,0.0,0.0,0.0,0.2647,0.2732,0.2941,0.3249,0.3351,0.3495,0.0,0.0,0.0,0.0,0.0,0.0,0.0,0.0,0.0,0.0,0.0,0.0,0.0,0.0,0.0,0.0,0.0,0.0,0.0,0.0,0.0,0.0,0.0,0.0,0.0,0.0,0.0,0.0,0.0,0.0,0.0,0.0,0.0,0.0,0.0,0.0,0.0,0.0,0.0,0.0,0.0,0.0,0.0,0.0,0.0,0.0,0.0,0.0,0.0,0.0,0.0,0.0,0.0,0.0,0.0,0.0,0.0,0.0,0.0,0.0,0.0,0.0,0.0,0.0,0.0,0.0,0.0,0.0,0.0,0.0,0.0,0.0,0.0,0.0,0.0,0.0,0.0,0.0,0.0,0.0,0.0,0.0,0.0,0.0,0.0,0.0,0.0,0.0,0.0,0.0,0.0,0.0,0.0,0.0,0.0,0.0,0.0,0.0,0.0,0.0,0.0,0.0,0.0,0.0,0.0,0.0,0.0,0.0,0.0,0.2311,0.2532,0.2815,0.3193,0.3311,0.3531,0.3869,0.0,0.0,0.0,0.0,0.0,0.0,0.0,0.0,0.0,0.0,0.0,0.0,0.0,0.0,0.0,0.0,0.0,0.0,0.0,0.0,0.0,0.0,0.0,0.0,0.0,0.0,0.0,0.0,0.0,0.0,0.0,0.0,0.0,0.0,0.0,0.0,0.0,0.0,0.0,0.0,0.0,0.0,0.0,0.0,0.0,0.0,0.0,0.0,0.0,0.0,0.0,0.0,0.0,0.0,0.0,0.0,0.0,0.0,0.0,0.0,0.0,0.0,0.0,0.0,0.0,0.0,0.0,0.0,0.0,0.0,0.0,0.0,0.0,0.0,0.0,0.0,0.0,0.0,0.0,0.0,0.0,0.0,0.0,0.0,0.0,0.0,0.0,0.0,0.0,0.0,0.0,0.0,0.0,0.0,0.0,0.0,0.0,0.0,0.0,0.0,0.0,0.0,0.0,0.0,0.0,0.0,0.0,0.0,0.1965,0.2419,0.2816,0.317,0.3265,0.351,0.0,0.0,0.0,0.0,0.0,0.0,0.0,0.0,0.0,0.0,0.0,0.0,0.0,0.0,0.0,0.0,0.0,0.0,0.0,0.0,0.0,0.0,0.0,0.0,0.0,0.0,0.0,0.0,0.0,0.0,0.0,0.0,0.0,0.0,0.0,0.0,0.0,0.0,0.0,0.0,0.0,0.0,0.0,0.0,0.0,0.0,0.0,0.0,0.0,0.0,0.0,0.0,0.0,0.0,0.0,0.0,0.0,0.0,0.0,0.0,0.0,0.0,0.0,0.0,0.0,0.0,0.0,0.0,0.0,0.0,0.0,0.0,0.0,0.0,0.0,0.0,0.0,0.0,0.0,0.0,0.0,0.0,0.0,0.0,0.0,0.0,0.0,0.0,0.0,0.0,0.0,0.0,0.0,0.0,0.0,0.0,0.0,0.0,0.0,0.0,0.0,0.0,0.0,0.0,0.0,0.0,0.0,0.0,0.0,0.1489,0.1892,0.2394,0.2951,0.3277,0.361,0.0,0.0,0.0,0.0,0.0,0.0,0.0,0.0,0.0,0.0,0.0,0.0,0.0,0.0,0.0,0.0,0.0,0.0,0.0,0.0,0.0,0.0,0.0,0.0,0.0,0.0,0.0,0.0,0.0,0.0,0.0,0.0,0.0,0.0,0.0,0.0,0.0,0.0,0.0,0.0,0.0,0.0,0.0,0.0,0.0,0.0,0.0,0.0,0.0,0.0,0.0,0.0,0.0,0.0,0.0,0.0,0.0,0.0,0.0,0.0,0.0,0.0,0.0,0.0,0.0,0.0,0.0,0.0,0.0,0.0,0.0,0.0,0.0,0.0,0.0,0.0,0.0,0.0,0.0,0.0,0.0,0.0,0.0,0.0,0.0,0.0,0.0,0.0,0.0,0.0,0.0,0.0,0.0,0.0,0.0,0.0,0.0,0.0,0.0,0.0,0.0,0.0,0.0,0.0,0.0,0.0,0.0,0.0,0.0863,0.1076,0.1438,0.1916,0.2498,0.3131,0.3634,0.0,0.0,0.0,0.0,0.0,0.0,0.0,0.0,0.0,0.0,0.0,0.0,0.0,0.0,0.0,0.0,0.0,0.0,0.0,0.0,0.0,0.0,0.0,0.0,0.0,0.0,0.0,0.0,0.0,0.0,0.0,0.0,0.0,0.0,0.0,0.0,0.0,0.0,0.0,0.0,0.0,0.0,0.0,0.0,0.0,0.0,0.0,0.0,0.0,0.0,0.0,0.0,0.0,0.0,0.0,0.0,0.0,0.0,0.0,0.0,0.0,0.0,0.0,0.0,0.0,0.0,0.0,0.0,0.0,0.0,0.0,0.0,0.0,0.0,0.0,0.0,0.0,0.0,0.0,0.0,0.0,0.0,0.0,0.0,0.0,0.0,0.0,0.0,0.0,0.0,0.0,0.0,0.0,0.0,0.0,0.0,0.0,0.0,0.0,0.0,0.0,0.0,0.0,0.0,0.0,0.0,0.0,0.0,0.0488,0.0758,0.1083,0.1502,0.198,0.2882,0.3605,0.0,0.0,0.0,0.0,0.0,0.0,0.0,0.0,0.0,0.0,0.0,0.0,0.0,0.0,0.0,0.0,0.0,0.0,0.0,0.0,0.0,0.0,0.0,0.0,0.0,0.0,0.0,0.0,0.0,0.0,0.0,0.0,0.0,0.0,0.0,0.0,0.0,0.0,0.0,0.0,0.0,0.0,0.0,0.0,0.0,0.0,0.0,0.0,0.0,0.0,0.0,0.0,0.0,0.0,0.0,0.0,0.0,0.0,0.0,0.0,0.0,0.0,0.0,0.0,0.0,0.0,0.0,0.0,0.0,0.0,0.0,0.0,0.0,0.0,0.0,0.0,0.0,0.0,0.0,0.0,0.0,0.0,0.0,0.0,0.0,0.0,0.0,0.0,0.0,0.0,0.0,0.0,0.0,0.0,0.0,0.0,0.0,0.0,0.0,0.0,0.0,0.0,0.0,0.0,0.0,0.0,0.0,0.0,0.031,0.0409,0.0826,0.1329,0.19,0.2692,0.3278,0.0,0.0,0.0,0.0,0.0,0.0,0.0,0.0,0.0,0.0,0.0,0.0,0.0,0.0,0.0,0.0,0.0,0.0,0.0,0.0,0.0,0.0,0.0,0.0,0.0,0.0,0.0,0.0,0.0,0.0,0.0,0.0,0.0,0.0,0.0,0.0,0.0,0.0,0.0,0.0,0.0,0.0,0.0,0.0,0.0,0.0,0.0,0.0,0.7302,0.0,0.0,0.0,0.0,0.0,0.0,0.0,0.0,0.0,0.0,0.0,0.0,0.0,0.0,0.0,0.0,0.0,0.0,0.0,0.0,0.0,0.0,0.0,0.0,0.0,0.0,0.0,0.0,0.0,0.0,0.0,0.0,0.0,0.0,0.0,0.0,0.0,0.0,0.0,0.0,0.0,0.0,0.0,0.0,0.0,0.0,0.0,0.0,0.0,0.0,0.0,0.0,0.0,0.0,0.0,0.0,0.0,0.0,0.0,0.0125,0.0173,0.0626,0.1095,0.1629,0.2361,0.3045,0.0,0.0,0.0,0.0,0.0,0.0,0.0,0.0,0.0,0.0,0.0,0.0,0.0,0.0,0.0,0.0,0.0,0.0,0.0,0.0,0.0,0.0,0.0,0.0,0.0,0.0,0.0,0.0,0.0,0.0,0.0,0.0,0.0,0.0,0.0,0.0,0.0,0.0,0.0,0.0,0.0,0.0,0.0,0.0,0.0,0.0,0.0,0.0,0.0,0.0,0.0,0.0,0.0,0.0,0.0,0.0,0.0,0.0,0.0,0.0,0.0,0.0,0.0,0.0,0.0,0.0,0.0,0.0,0.0,0.0,0.0,0.0,0.0,0.0,0.0,0.0,0.0,0.0,0.0,0.0,0.0,0.0,0.0,0.0,0.0,0.0,0.0,0.0,0.0,0.0,0.0,0.0,0.0,0.0,0.0,0.0,0.0,0.0,0.0,0.0,0.0,0.0,0.0,0.0,0.0,0.0,0.0,0.0,0.0,0.0,0.043,0.0839,0.1239,0.1987,0.2761,0.3536,0.0,0.0,0.0,0.0,0.0,0.0,0.0,0.0,0.0,0.0,0.0,0.0,0.0,0.0,0.0,0.0,0.0,0.0,0.0,0.0,0.0,0.0,0.0,0.0,0.0,0.0,0.0,0.0,0.0,0.0,0.0,0.0,0.0,0.0,0.0,0.0,0.0,0.0,0.6907,0.7286,0.0,0.0,0.0,0.0,0.0,0.0,0.0,0.0,0.6609,0.0,0.0,0.0,0.0,0.0,0.0,0.0,0.0,0.0,0.0,0.0,0.0,0.0,0.0,0.0,0.0,0.0,0.0,0.0,0.0,0.0,0.0,0.0,0.0,0.0,0.0,0.0,0.0,0.0,0.0,0.0,0.0,0.0,0.0,0.0,0.0,0.0,0.0,0.0,0.0,0.0,0.0,0.0,0.0,0.0,0.0,0.0,0.0,0.0,0.0,0.0,0.0,0.0,0.0,0.0,0.0,0.0,0.0,0.0,0.0,0.0282,0.0619,0.0966,0.1595,0.223,0.2914,0.0,0.0,0.0,0.0,0.0,0.0,0.0,0.0,0.0,0.0,0.0,0.0,0.0,0.0,0.0,0.0,0.0,0.0,0.0,0.0,0.0,0.0,0.0,0.0,0.0,0.0,0.0,0.0,0.0,0.0,0.0,0.0,0.0,0.0,0.0,0.0,0.0,0.0,0.0,0.762,0.7759,0.0,0.0,0.0,0.0,0.0,0.0,0.0,0.0,0.6549,0.0,0.0,0.0,0.0,0.0,0.0,0.0,0.0,0.0,0.0,0.0,0.0,0.0,0.0,0.0,0.0,0.0,0.0,0.0,0.0,0.0,0.0,0.0,0.0,0.0,0.0,0.0,0.0,0.0,0.0,0.0,0.0,0.0,0.0,0.0,0.0,0.0,0.0,0.0,0.0,0.0,0.0,0.0,0.0,0.0,0.0,0.0,0.0,0.0,0.0,0.0,0.0,0.0,0.0,0.0,-0.0263,-0.029,-0.0257,-0.0154,0.008,0.0409,0.0889,0.1461,0.2063,0.0,0.0,0.0,0.0,0.0,0.0,0.0,0.0,0.0,0.0,0.0,0.0,0.0,0.0,0.0,0.0,0.0,0.0,0.0,0.0,0.0,0.0,0.0,0.0,0.0,0.0,0.0,0.0,0.0,0.0,0.0,0.0,0.0,0.0,0.0,0.0,0.0,0.0,0.0,0.0,0.7799,0.7862,0.8065,0.0,0.0,0.0,0.0,0.0,0.0,0.6736,0.6527,0.0,0.0,0.0,0.0,0.0,0.0,0.0,0.0,0.0,0.0,0.0,0.0,0.0,0.0,0.0,0.0,0.0,0.0,0.0,0.0,0.0,0.0,0.0,0.0,0.0,0.0,0.0,0.0,0.0,0.0,0.0,0.0,0.0,0.0,0.0,0.0,0.0,0.0,0.0,0.0,0.0,0.0,0.0,0.0,0.0,0.0,0.0,0.0,0.0,0.0,0.0,0.0,0.0,0.0,0.0,-0.0604,-0.0639,-0.0572,-0.0417,-0.0197,0.0202,0.0707,0.1235,0.1795,0.0,0.0,0.0,0.0,0.0,0.0,0.0,0.0,0.0,0.0,0.0,0.0,0.0,0.0,0.0,0.0,0.0,0.0,0.0,0.0,0.0,0.0,0.0,0.0,0.0,0.0,0.0,0.0,0.0,0.0,0.0,0.0,0.0,0.0,0.0,0.0,0.0,0.0,0.0,0.0,0.0,0.7821,0.7887,0.7796,0.0,0.0,0.0,0.0,0.6904,0.6639,0.0,0.0,0.0,0.0,0.0,0.0,0.0,0.0,0.0,0.0,0.0,0.0,0.0,0.0,0.0,0.0,0.0,0.0,0.0,0.0,0.0,0.0,0.0,0.0,0.0,0.0,0.0,0.0,0.0,0.0,0.0,0.0,0.0,0.0,0.0,0.0,0.0,0.0,0.0,0.0,0.0,0.0,0.0,0.0,0.0,0.0,0.0,0.0,0.0,0.0,0.0,0.0,0.0,0.0,0.0,0.0,-0.093,-0.0881,-0.0867,-0.0813,-0.0467,-0.0138,0.0099,0.062,0.1162,0.0,0.0,0.0,0.0,0.0,0.0,0.0,0.0,0.0,0.0,0.0,0.0,0.0,0.0,0.0,0.0,0.0,0.0,0.0,0.0,0.0,0.0,0.0,0.0,0.0,0.0,0.0,0.0,0.0,0.0,0.0,0.0,0.0,0.0,0.0,0.0,0.0,0.0,0.0,0.0,0.0,0.755,0.7552,0.7437,0.7317,0.0,0.0,0.6969,0.6604,0.6413,0.0,0.0,0.0,0.0,0.0,0.0,0.0,0.0,0.0,0.0,0.0,0.0,0.0,0.0,0.0,0.0,0.0,0.0,0.0,0.0,0.0,0.0,0.0,0.0,0.0,0.0,0.0,0.0,0.0,0.0,0.0,0.0,0.0,0.0,0.0,0.0,0.0,0.0,0.0,0.0,0.0,0.0,0.0,0.0,0.0,0.0,0.0,0.0,0.0,0.0,0.0,0.0,0.0,0.0,0.0,-0.1586,-0.1618,-0.1568,-0.1465,-0.1334,-0.0987,-0.0673,-0.0346,0.0202,0.0717,0.0,0.0,0.0,0.0,0.0,0.0,0.0,0.0,0.0,0.0,0.0,0.0,0.0,0.0,0.0,0.0,0.0,0.0,0.0,0.0,0.0,0.0,0.0,0.0,0.0,0.0,0.0,0.0,0.0,0.0,0.0,0.0,0.0,0.0,0.0,0.0,0.0,0.0,0.0,0.0,0.0,0.0,0.7328,0.7432,0.0,0.0,0.0,0.6967,0.671,0.0,0.0,0.0,0.0,0.0,0.0,0.0,0.0,0.0,0.0,0.0,0.0,0.0,0.0,0.0,0.0,0.0,0.0,0.0,0.0,0.0,0.0,0.0,0.0,0.0,0.0,0.0,0.0,0.0,0.0,0.0,0.0,0.0,0.0,0.0,0.0,0.0,0.0,0.0,0.0,0.0,0.0,0.0,0.0,0.0,0.0,0.0,0.0,0.0,0.0,0.0,0.0,0.0,0.0,0.0,0.0,0.0,-0.2339,-0.226,-0.2132,-0.1989,-0.1578,-0.1235,-0.09,-0.0271,0.0,0.0,0.0,0.0,0.0,0.0,0.0,0.0,0.0,0.0,0.0,0.0,0.0,0.0,0.0,0.0,0.0,0.0,0.0,0.0,0.0,0.0,0.0,0.0,0.0,0.0,0.0,0.4761,0.0,0.0,0.0,0.0,0.0,0.0,0.0,0.0,0.0,0.0,0.0,0.0,0.0,0.0,0.7185,0.7171,0.7398,0.7441,0.0,0.0,0.7025,0.6877,0.6719,0.6437,0.0,0.0,0.0,0.0,0.0,0.0,0.0,0.0,0.0,0.0,0.0,0.0,0.0,0.0,0.0,0.0,0.0,0.0,0.0,0.0,0.0,0.0,0.0,0.0,0.0,0.0,0.0,0.0,0.0,0.0,0.0,0.0,0.0,0.0,0.0,0.0,0.0,0.0,0.0,0.0,0.0,0.0,0.0,0.0,0.0,0.0,0.0,0.0,0.0,0.0,0.0,0.0,0.0,0.0,0.0,-0.3015,-0.2903,-0.2842,-0.2809,-0.2177,-0.1819,-0.1722,-0.0946,-0.0434,0.0,0.0,0.0,0.0,0.0,0.0,0.0,0.0,0.0,0.0,0.0,0.0,0.0,0.0,0.0,0.0,0.0,0.0,0.0,0.0,0.0,0.0,0.0,0.0,0.0,0.0,0.0,0.0,0.0,0.0,0.0,0.0,0.0,0.0,0.0,0.0,0.0,0.0,0.0,0.0,0.0,0.6776,0.7056,0.713,0.7176,0.0,0.0,0.7203,0.7017,0.6774,0.6439,0.5963,0.0,0.0,0.0,0.0,0.0,0.0,0.0,0.0,0.0,0.0,0.0,0.0,0.0,0.0,0.0,0.0,0.0,0.0,0.0,0.0,0.0,0.0,0.0,0.0,0.0,0.0,0.0,0.0,0.0,0.0,0.0,0.0,0.0,0.0,0.0,0.0,0.0,0.0,0.0,0.0,0.0,0.0,0.0,0.0,0.0,0.0,0.0,0.0,0.0,0.0,0.0,0.0,0.0,-0.3972,-0.4148,-0.4028,-0.3885,-0.3758,-0.315,-0.2753,-0.2536,-0.1831,-0.1323,0.0,0.0,0.0,0.0,0.0,0.0,0.0,0.0,0.0,0.0,0.0,0.0,0.0,0.0,0.0,0.0,0.0,0.0,0.0,0.0,0.0,0.0,0.0,0.0,0.0,0.0,0.0,0.0,0.381,0.4021,0.423,0.0,0.0,0.0,0.0,0.0,0.0,0.0,0.0,0.0,0.0,0.6107,0.6118,0.6465,0.0,0.0,0.6698,0.6681,0.6533,0.6331,0.6124,0.5762,0.5489,0.0,0.0,0.0,0.0,0.0,0.0,0.0,0.0,0.0,0.0,0.0,0.0,0.0,0.0,0.0,0.0,0.0,0.0,0.0,0.0,0.0,0.0,0.0,0.0,0.0,0.0,0.0,0.0,0.0,0.0,0.0,0.0,0.0,0.0,0.0,0.0,0.0,0.0,0.0,0.0,0.0,0.0,0.0,0.0,0.0,0.0,0.0,0.0,0.0,0.0,0.0,0.0,-0.4919,-0.5213,-0.5051,-0.4872,-0.4729,-0.418,-0.3716,-0.3389,-0.2766,-0.2244,0.0,0.0,0.0,0.0,0.0,0.0,0.0,0.0,0.0,0.0,0.0,0.0,0.0,0.0,0.0,0.0,0.0,0.0,0.0,0.0,0.0,0.0,0.0,0.0,0.0,0.0,0.0,0.0,0.3301,0.3492,0.3722,0.0,0.0,0.0,0.0,0.0,0.0,0.0,0.0,0.0,0.0,0.5436,0.5379,0.5877,0.6186,0.6077,0.6161,0.6202,0.6079,0.595,0.5761,0.5526,0.0,0.0,0.0,0.0,0.0,0.0,0.0,0.0,0.0,0.0,0.0,0.0,0.0,0.0,0.0,0.0,0.0,0.0,0.0,0.0,0.0,0.0,0.0,0.0,0.0,0.0,0.0,0.0,0.0,0.0,-0.7641,0.0,0.0,0.0,0.0,0.0,0.0,0.0,0.0,0.0,0.0,0.0,0.0,0.0,0.0,0.0,0.0,0.0,0.0,0.0,0.0,0.0,0.0,-0.5848,-0.6178,-0.5927,-0.5783,-0.5762,-0.5248,-0.475,-0.4298,-0.3752,-0.326,-0.2787,0.0,0.0,0.0,0.0,0.0,0.0,0.0,0.0,0.0,0.0,0.0,0.0,0.0,0.0,0.0,0.0,0.0,0.0,0.0,0.0,0.0,0.0,0.0,0.0,0.0,0.0,0.2358,0.2551,0.2777,0.0,0.0,0.0,0.0,0.0,0.0,0.0,0.0,0.0,0.0,0.4308,0.4738,0.5054,0.5397,0.563,0.5675,0.58,0.5855,0.5713,0.5578,0.5459,0.0,0.0,0.0,0.0,0.0,0.0,0.0,0.0,0.0,0.0,0.0,0.0,0.0,0.0,0.0,0.0,0.0,0.0,0.0,0.0,0.0,0.0,0.0,0.0,0.0,0.0,0.0,-0.9302,-0.9274,0.0,0.0,0.0,0.0,0.0,0.0,0.0,0.0,0.0,0.0,0.0,-0.98,-0.9552,0.0,0.0,0.0,0.0,0.0,0.0,0.0,0.0,0.0,0.0,0.0,0.0,-0.7063,-0.725,-0.7169,-0.7082,-0.6908,-0.6355,-0.5886,-0.5495,-0.4854,-0.4147,-0.3417,0.0,0.0,0.0,0.0,0.0,0.0,0.0,0.0,0.0,0.0,0.0,0.0,0.0,0.0,0.0,0.0,0.0,0.0,0.0,0.0,0.0,0.0,0.0,0.0,0.0,0.2012,0.0,0.0,0.0,0.0,0.0,0.0,0.0,0.0,0.0,0.0,0.0,0.3097,0.2939,0.3429,0.3872,0.4007,0.4467,0.4821,0.0,0.0,0.0,0.0,0.0,0.0,0.0,0.0,0.0,0.0,0.0,0.0,0.0,0.0,0.3369,0.3705,0.3767,0.3767,0.3767,0.0,0.0,0.0,0.0,0.0,0.0,0.0,0.0,0.0,0.0,0.0,0.0,0.0,0.0,0.0,0.0,-1.0767,0.0,0.0,0.0,0.0,0.0,0.0,0.0,0.0,-1.1673,-1.1745,-1.1715,-1.1566,-1.1476,0.0,-1.1042,-1.0269,0.0,0.0,0.0,0.0,0.0,0.0,0.0,0.0,-0.8282,-0.8416,-0.8373,-0.8298,-0.8142,-0.755,-0.7049,-0.6687,-0.5782,-0.5008,-0.4411,-0.3871,-0.3448,0.0,0.0,0.0,0.0,0.0,0.0,0.0,0.0,0.0,0.0,0.0,0.0,0.0,0.0,0.0,0.0,0.0,0.0,0.0,0.0,0.0,0.0,0.0,0.1309,0.0,0.0,0.0,0.0,0.0,0.0,0.0,0.0,0.0,0.2185,0.2305,0.2262,0.2053,0.2571,0.2983,0.3046,0.0,0.0,0.0,0.0,0.0,0.0,0.0,0.3712,0.3684,0.3576,0.3368,0.2937,0.2502,0.219,0.2239,0.0,0.0,0.317,0.3268,0.3292,0.3292,0.3289,0.3148,0.2741,0.2658,0.2512,0.0,0.0,0.0,0.0,0.0,0.0,0.0,0.0,-1.3133,-1.3224,0.0,-1.2831,0.0,0.0,0.0,0.0,0.0,0.0,0.0,0.0,-1.3535,-1.364,-1.3865,-1.3747,-1.355,-1.3324,-1.3265,-1.2933,-1.2267,-1.0423,0.0,0.0,0.0,0.0,0.0,0.0,-0.947,-0.9674,-0.9529,-0.9452,-0.9458,-0.8807,-0.8244,-0.7786,-0.657,-0.5845,-0.5728,-0.4878,-0.4356,-0.4249,-0.3753,0.0,0.0,0.0,0.0,0.0,0.0,0.0,0.0,0.0,0.0,0.0,0.0,0.0,0.0,0.0,0.0,0.0,0.0,0.0,0.0,0.0362,0.0,0.0,0.0,0.0,0.0,0.0,0.0,0.0,0.0,0.0,0.1371,0.1561,0.1578,0.1318,0.0,0.0,0.0,0.0,0.302,0.297,0.3007,0.3001,0.2867,0.2917,0.293,0.2877,0.0,0.0,0.2159,0.1699,0.1411,0.1387,0.1415,0.1654,0.2476,0.2628,0.2643,0.2643,0.2643,0.2516,0.2091,0.1979,0.1846,-1.5174,0.0,0.0,0.0,0.0,-1.4448,-1.487,-1.5253,-1.5512,-1.5611,-1.5545,-1.4977,0.0,0.0,0.0,0.0,0.0,0.0,-1.5038,-1.5309,-1.5593,-1.5854,-1.5993,-1.5582,-1.5477,-1.5625,-1.506,-1.4559,-1.4117,-1.3391,-1.2219,-1.0699,0.0,0.0,0.0,0.0,-1.078,-1.1009,-1.0899,-1.0821,-1.0819,-1.0018,-0.9181,-0.8307,-0.778,-0.7266,-0.6712,-0.6297,-0.5834,-0.5295,-0.4987,0.0,0.0,0.0,0.0,0.0,0.0,0.0,0.0,0.0,0.0,0.0,0.0,0.0,0.0,0.0,0.0,0.0,0.0,0.0,-0.075,-0.0741,-0.0744,0.0,0.0,0.0,0.0,0.0,0.0,0.0,0.0,0.0,0.0082,0.069,0.1071,0.0,0.0,0.1349,0.1487,0.1756,0.1968,0.2008,0.0,0.0,0.0,0.1869,0.1856,0.1822,0.1697,0.1551,0.1426,0.1176,0.0967,0.098,0.0957,0.1056,0.1298,0.158,0.1764,0.1782,0.1776,0.1674,0.1437,0.1355,0.1246,-1.8956,-1.7727,-1.6513,-1.6143,-1.6383,-1.6922,-1.7323,-1.7621,-1.7948,-1.8032,-1.7847,-1.7294,-1.6906,-1.6644,-1.6097,0.0,0.0,0.0,-1.7158,-1.7506,-1.7733,-1.7983,-1.818,-1.7797,-1.7575,-1.75,-1.7019,-1.6541,-1.6093,-1.592,-1.5022,-1.3388,0.0,0.0,-1.1708,-1.1815,-1.1908,-1.1998,-1.1938,-1.1929,-1.1888,-1.1035,-1.0146,-0.925,-0.8832,-0.8398,-0.7879,-0.7522,-0.706,-0.6485,-0.6195,-0.5899,0.0,0.0,0.0,0.0,0.0,0.0,0.0,0.0,0.0,0.0,0.0,-0.1966,-0.198,0.0,0.0,0.0,-0.1963,-0.1939,-0.1955,-0.2042,0.0,0.0,0.0,0.0,0.0,0.0,0.0,-0.1261,-0.1105,-0.0989,-0.1051,-0.059,-0.0154,0.0069,0.0393,0.0637,0.0708,0.0,0.1246,0.1284,0.125,0.1239,0.1229,0.1175,0.1171,0.1172,0.0992,0.0831,0.0815,0.0648,0.0474,0.0479,0.048,0.048,0.048,0.0694,0.0924,0.1124,0.1158,0.1091,0.0863,0.0819,0.0749,-2.2469,-2.2675,-2.0132,-1.8988,-1.8904,-1.9664,-2.0021,-2.0027,-2.0474,-2.0454,-2.0081,-1.9692,-1.931,-1.8925,-1.862,0.0,-1.8964,-1.8998,-1.9337,-1.9984,-1.9889,-2.0035,-2.0385,-2.0151,-1.971,-1.9147,-1.9083,-1.8736,-1.8115,-1.8066,-1.7652,-1.6819,-1.4941,-1.3685,-1.3141,-1.3121,-1.3027,-1.2846,-1.2877,-1.2866,-1.2758,-1.1883,-1.1112,-1.0441,-0.9814,-0.9366,-0.9108,-0.8652,-0.8161,-0.7726,-0.7406,-0.7056,-0.6648,0.0,0.0,0.0,0.0,0.0,0.0,0.0,0.0,0.0,0.0,0.0,0.0,0.0,0.0,0.0,-0.335,0.0,-0.3354,-0.3535,0.0,0.0,0.0,-0.3644,-0.3635,-0.3149,-0.2858,-0.2853,0.0,0.0,-0.219,0.0,-0.1934,-0.1148,-0.051,-0.0098,-0.0049,0.0375,0.0707,0.0682,0.0732,0.0753,0.0742,0.0723,0.073,0.073,0.0539,0.0389,0.039,0.0185,0.0027,0.0,0.0,0.0,0.0,0.0,0.0161,0.0642,0.0747,0.0667,0.0426,0.0374,0.0321,-2.4801,-2.4687,-2.404,-2.298,-2.1745,-2.2345,-2.2617,-2.2606,-2.2805,-2.2862,-2.2735,-2.1985,-2.1458,-2.1138,-2.1047,-2.1065,-2.1134,-2.1403,-2.1599,-2.1771,-2.1724,-2.186,-2.2138,-2.1459,-2.1185,-2.1218,-2.0695,-2.0211,-1.9799,-1.9506,-1.8923,-1.8083,-1.7568,-1.6517,-1.5014,-1.4958,-1.4957,-1.4971,-1.4638,-1.4099,-1.3327,-1.2699,-1.2095,-1.1531,-1.1214,-1.0773,-1.0185,-0.9878,-0.9396,-0.8706,-0.846,-0.8167,-0.7803,-0.7557,0.0,0.0,0.0,0.0,0.0,0.0,0.0,0.0,0.0,-0.4445,-0.4587,0.0,-0.4954,0.0,-0.5389,-0.5534,-0.5541,-0.5724,0.0,0.0,-0.5702,-0.5625,-0.5676,-0.5176,-0.4885,-0.5106,-0.4766,-0.4478,-0.4407,-0.4249,-0.3905,-0.3295,-0.1899,-0.0839,-0.0626,-0.0327,-0.0126,-0.0076,0.0076,0.0176,0.0201,0.0201,0.0,0.0202,0.0,0.0078,0.0,0.0053,0.0,0.0,0.0,0.0,0.0,0.0,0.0,0.0166,0.0192,0.0163,0.0109,0.0,0.0,-2.6444,-2.6273,-2.63,-2.5724,-2.4791,-2.4608,-2.4539,-2.4546,-2.4727,-2.4715,-2.4491,-2.3668,-2.3088,-2.2715,-2.2696,-2.2696,-2.2715,-2.2897,-2.308,-2.3219,-2.3083,-2.3202,-2.3541,-2.2934,-2.2693,-2.2669,-2.2085,-2.163,-2.1286,-2.0851,-2.0285,-1.9636,-1.9597,-1.8858,-1.7393,-1.6665,-1.6228,-1.6064,-1.5687,-1.5025,-1.4161,-1.3717,-1.32,-1.2553,-1.2172,-1.1731,-1.1147,-1.0878,-1.046,-0.9823,-0.9612,-0.9331,-0.8975,-0.8688,-0.8488,0.0,0.0,0.0,0.0,0.0,0.0,0.0,0.0,0.0,0.0,0.0,-0.6657,-0.7064,-0.7519,-0.7806,-0.7815,-0.795,-0.8059,-0.8068,-0.7964,-0.7869,-0.7773,-0.7463,-0.7211,-0.7154,-0.7021,-0.6811,-0.6455,-0.6192,-0.5753,-0.4989,-0.3791,-0.2564,-0.1536,-0.101,-0.0682,-0.0429,-0.0278,-0.0126,-0.0025,0.0,0.0,0.0,0.0,0.0,0.0,0.0,0.0,0.0,0.0,0.0,0.0,0.0,0.0,0.0,0.0,0.0,0.0,0.0,0.0,-2.7674,-2.7503,-2.7503,-2.7503,-2.7465,-2.6495,-2.609,-2.609,-2.6293,-2.6174,-2.5736,-2.5036,-2.4483,-2.406,-2.4036,-2.4017,-2.396,-2.396,-2.4146,-2.4464,-2.42,-2.4266,-2.4578,-2.4332,-2.4049,-2.3747,-2.3262,-2.2857,-2.2548,-2.2041,-2.1575,-2.1154,-2.1132,-2.0682,-1.9764,-1.8386,-1.7371,-1.6706,-1.6425,-1.592,-1.5107,-1.4802,-1.4309,-1.3498,-1.3015,-1.2537,-1.2081,-1.1778,-1.1422,-1.0987,-1.0781,-1.0539,-1.0196,-0.9849,-0.9627,0.0,-0.9353,0.0,0.0,0.0,0.0,0.0,0.0,0.0,0.0,-0.8113,-0.8533,-0.9114,-0.9721,-1.0103,-1.0103,-1.0231,-1.0341,-1.0322,-1.0379,-1.0304,-1.009,-1.0,-0.9814,-0.9411,-0.9494,-0.9276,-0.861,-0.8224,-0.7657,-0.6689,-0.5892,-0.4743,-0.2922,-0.1943,-0.1262,-0.0707,-0.0505,-0.0379,-0.0202,0.0,0.0,0.0,0.0,-0.0026,0.0,0.0,0.0,0.0,0.0,0.0,0.0,0.0,0.0,0.0,0.0,0.0,0.0,0.0,0.0,-2.8564,-2.814,-2.814,-2.814,-2.8101,-2.7939,-2.7728,-2.7477,-2.7459,-2.7156,-2.6742,-2.6567,-2.6301,-2.5912,-2.5893,-2.5698,-2.5319,-2.5319,-2.5358,-2.5431,-2.5144,-2.5085,-2.5137,-2.4849,-2.4713,-2.46,-2.389,-2.3518,-2.3443,-2.2644,-2.2154,-2.1887,-2.1887,-2.1508,-2.0754,0.0,0.0,0.0,-1.7493,-1.6922,-1.6155,-1.5814,-1.5217,-1.4402,-1.4261,0.0,-1.2925,-1.2825,-1.2451,-1.1806,-1.175,0.0,0.0,0.0,0.0,0.0,0.0,0.0,0.0,0.0,0.0,0.0,-1.2247,-1.1697,-1.0614,-1.0966,-1.1398,-1.1688,-1.1971,-1.2205,-1.2361,-1.2537,-1.2654,-1.2667,-1.2936,-1.3125,-1.3054,-1.2945,-1.2891,-1.2906,-1.2438,-1.1938,-1.1477,-1.0922,-1.0108,-0.9,-0.7887,-0.667,-0.5402,-0.3626,-0.2322,-0.1765,-0.1136,-0.0732,-0.0656,-0.0656,-0.0581,-0.0404,-0.0329,-0.0254,0.0,0.0,0.0,0.0,0.0,0.0,0.0,0.0,0.0,0.0,0.0,0.0,0.0,0.0,0.0,-2.8703,0.0,-2.8301,-2.8301,0.0,-2.8301,-2.8247,-2.8075,-2.804,-2.7761,-2.7344,-2.737,-2.7109,-2.668,-2.6484,-2.6269,-2.603,-2.5791,-2.5698,-2.5693,-2.5572,-2.5479,-2.5479,-2.5357,-2.5308,-2.527,-2.4703,-2.4279,-2.4025,-2.3409,-2.2872,-2.2441,-2.2441,-2.2132,-2.1575,-2.1401,-2.0524,-1.8835,-1.866,-1.8101,-1.7138,-1.6918,-1.6372,-1.5388,0.0,0.0,0.0,0.0,0.0,0.0,0.0,0.0,0.0,0.0,0.0,-1.3291,-1.341,-1.3482,-1.3516,-1.3842,-1.419,-1.4433,-1.5025,-1.4601,-1.2863,-1.3407,-1.3906,-1.4129,-1.462,-1.497,-1.5074,-1.5163,-1.5219,-1.5234,-1.541,-1.5483,-1.5354,-1.5315,-1.5213,-1.5002,-1.4587,-1.4099,-1.3549,-1.2823,-1.1877,-1.0754,-0.955,-0.8333,-0.7074,-0.5056,-0.3302,-0.2345,-0.1639,-0.1211,-0.1186,-0.1185,-0.1111,-0.0858,-0.0783,-0.0682,-0.0429,-0.0407,-0.0384,-0.0384,-0.0413,-0.0391,-0.0394,-0.0395,-0.037,-0.0399,-0.0397,-0.0396,-0.0373,-0.0187,0.0,-2.8672,-2.8301,-2.8301,-2.8301,-2.8301,-2.8301,-2.8301,-2.8301,0.0,0.0,0.0,-2.78,-2.7565,-2.7084,-2.6758,-2.6607,-2.6465,-2.603,-2.5835,-2.5815,-2.5757,-2.5698,-2.5698,-2.5698,-2.5698,-2.5679,-2.5293,-2.4867,-2.4391,-2.4004,-2.3485,-2.292,-2.2838,-2.264,-2.2239,-2.1954,-2.1239,-2.0093,-1.9911,-1.9267,-1.8078,-1.804,-1.7488,-1.635,-1.6081,-1.5694,-1.5212,-1.4939,-1.4775,-1.4735,-1.4564,-1.4496,-1.454,-1.4384,-1.4363,-1.4484,-1.4711,-1.486,-1.4954,-1.5591,-1.6084,-1.6407,-1.728,-1.6974,-1.4998,-1.5571,-1.6094,-1.6281,-1.6964,-1.7399,-1.742,-1.742,-1.7442,-1.7442,-1.7483,-1.7426,-1.7237,-1.7244,-1.7113,-1.6716,-1.6369,-1.5934,-1.5199,-1.434,-1.3379,-1.2169,-1.0974,-0.9674,-0.8092,-0.5902,-0.4031,-0.2949,-0.232,-0.1917,-0.1891,-0.1917,-0.1765,-0.1489,-0.1414,-0.1287,-0.1035,-0.0934,-0.0959,-0.0936,-0.0934,-0.0941,-0.0952,-0.093,-0.0961,-0.0948,-0.094,-0.0956,-0.0905,-0.0601,0.0,-2.8672,-2.8301,-2.8301,-2.8301,-2.8301,-2.8301,-2.8301,-2.8301,-2.8301,-2.8262,-2.8203,-2.823,-2.7995,-2.7604,-2.7571,-2.7285,-2.6889,-2.6504,-2.6289,0.0,-2.5893,-2.5698,-2.5698,-2.5698,-2.5698,-2.5679,-2.5273,-2.4867,-2.4391,-2.4004,-2.3552,-2.3137,-2.3057,-2.2925,-2.2703,-2.2441,-2.2109,-2.1731,-2.1132,-2.0226,-1.9045,-1.9007,-1.8423,-1.729,-1.7151,-1.679,-1.6083,-1.598,-1.5846,-1.5636,-1.5601,-1.5689,-1.5897,-1.5905,-1.6155,-1.6766,-1.687,-1.7033,-1.7375,-1.7658,-1.8008,-1.8436,-1.8777,-1.8405,-1.7192,-1.7378,-1.7657,-1.7857,-1.8013,-1.8132,-1.83,-1.8338,-1.8333,-1.8333,-1.8578,-1.8713,-1.8663,-1.8736,-1.867,-1.8349,-1.8041,-1.7442,-1.6608,-1.5687,-1.4663,-1.3607,-1.2009,-1.0493,-0.8315,-0.6126,-0.4634,-0.388,-0.333,-0.3027,-0.2977,-0.2977,-0.2775,-0.232,-0.2246,-0.2093,-0.1639,-0.1564,-0.1564,-0.1488,-0.1538,-0.1541,-0.1521,-0.1493,-0.155,-0.1558,-0.1551,-0.1548,-0.1548,-0.1426,-0.1223,-2.8781,-2.8586,-2.8379,-2.8301,-2.8301,-2.8301,-2.8301,-2.8301,-2.8301,-2.8301,-2.8301,-2.8301,-2.8184,-2.8015,-2.778,-2.7585,-2.7344,-2.6914,-2.6738,-2.6699,-2.6289,-2.6069,-2.603,-2.5835,-2.5698,-2.5674,-2.5503,-2.5195,-2.4809,-2.457,-2.4141,-2.3516,-2.324,-2.3057,-2.2969,-2.2838,-2.2684,-2.2463,-2.1887,-2.1152,-2.0311,-2.0036,-1.9414,-1.8439,-1.8232,-1.7822,-1.7196,-1.7176,-1.713,-1.7003,-1.7189,-1.7372,-1.7498,-1.7701,-1.7987,-1.8325,-1.8464,-1.8612,-1.8818,-1.9068,-1.9358,-1.9628,-1.9739,-1.9584,-1.9073,-1.8957,-1.9011,-1.9208,-1.9311,-1.9362,-1.9451,-1.949,-1.949,-1.949,-1.962,-1.9631,-1.9512,-1.9441,-1.9311,-1.9012,-1.8481,-1.7877,-1.7232,-1.6268,-1.5177,-1.4004,-1.2262,-1.033,-0.8669,-0.7254,-0.5932,-0.5035,-0.4411,-0.411,-0.4059,-0.4056,-0.383,-0.3352,-0.3279,-0.305,-0.2597,-0.2471,-0.2471,-0.2473,-0.2446,-0.2473,-0.2471,-0.2473,-0.2473,-0.2473,-0.2473,-0.2473,-0.2473,-0.2448,-0.2169,-2.9062,-2.9023,-2.8711,-2.8516,-2.8418,-2.8347,-2.8301,-2.8301,-2.8301,-2.8301,-2.8301,-2.8301,-2.8301,-2.8262,-2.7976,-2.7819,-2.778,-2.7363,-2.7168,-2.7129,-2.6719,-2.6548,-2.6484,-2.6069,-2.5854,-2.5854,-2.5757,-2.5484,-2.5141,-2.5082,-2.4711,-2.3965,-2.3474,-2.3237,-2.3259,-2.3162,-2.3035,-2.2879,-2.2508,-2.1992,-2.1361,-2.0964,-2.0424,-1.9691,-1.9365,-1.9003,-1.8615,-1.8533,-1.8492,-1.851,-1.8749,-1.8866,-1.8922,-1.9185,-1.9393,-1.9484,-1.9669,-1.9829,-1.9916,-2.011,-2.0296,-2.0439,-2.0405,-2.0382,-2.0365,-2.0057,-1.9913,-2.012,-2.0171,-2.0235,-2.0235,-2.0207,-2.0201,-2.0201,-2.0155,-1.9979,-1.9837,-1.9693,-1.9464,-1.9127,-1.8573,-1.797,-1.7302,-1.6447,-1.5201,-1.3619,-1.1751,-1.0167,-0.9048,-0.8255,-0.7304,-0.6362,-0.5561,-0.5211,-0.516,-0.516,-0.4935,-0.4458,-0.4361,-0.4106,-0.3732,-0.3556,-0.3556,-0.3556,-0.3556,-0.3556,-0.3556,-0.3556,-0.3556,-0.3556,-0.3556,-0.3556,-0.3556,-0.3556,-0.3204,-2.954,-2.954,-2.9481,-2.9246,-2.8828,-2.8476,-2.832,-2.832,-2.8301,-2.8301,-2.8301,-2.8301,-2.8301,-2.8281,-2.8242,-2.8223,-2.821,-2.7819,-2.7624,-2.7585,-2.7168,-2.6928,-2.6914,-2.6523,-2.6328,-2.6289,-2.5932,-2.5562,-2.518,-2.5102,-2.4848,-2.4332,-2.3945,-2.373,-2.3691,-2.3296,-2.3101,-2.3079,-2.3035,-2.2604,-2.179,-2.1712,-2.1379,-2.0778,-2.0701,-2.0599,-2.0275,-2.012,-1.9976,-1.9994,-1.9861,-1.9773,-1.9791,-1.9827,-2.0004,-2.0359,-2.0416,-2.0558,-2.0793,-2.0724,-2.0692,-2.0907,-2.0699,-2.0609,-2.0586,-2.0167,-2.0014,-2.0195,-2.0257,-2.0269,-2.0269,-2.0065,-1.9951,-1.9928,-1.9808,-1.9648,-1.9602,-1.9602,-1.9396,-1.8874,-1.8488,-1.8079,-1.7279,-1.6292,-1.4867,-1.2918,-1.158,-1.0314,-0.9303,-0.8676,-0.8081,-0.7416,-0.6767,-0.6287,-0.6207,-0.6237,-0.5962,-0.5536,-0.5436,-0.5186,-0.4834,-0.4659,-0.4634,-0.4659,-0.4659,-0.4659,-0.4659,-0.4659,-0.4659,-0.4659,-0.4659,-0.4659,-0.4659,-0.4634,-0.4232,-2.9941,-2.9922,-2.9696,-2.95,-2.9305,-2.9121,-2.8887,-2.8672,-2.8652,-2.8535,-2.8301,-2.8301,-2.8301,-2.8301,-2.8301,-2.8301,-2.8281,-2.8151,-2.8054,-2.8034,-2.7598,-2.7428,-2.7363,-2.6953,-2.6758,-2.6758,-2.6557,-2.6269,-2.5845,-2.538,-2.5004,-2.4785,-2.4375,-2.416,-2.4098,-2.3708,-2.3513,-2.3516,-2.324,-2.2916,-2.259,-2.2337,-2.2059,-2.1697,-2.1408,-2.1152,-2.0964,-2.0838,-2.0776,-2.0794,-2.0847,-2.0848,-2.0848,-2.0916,-2.1047,-2.1188,-2.1113,-2.09,-2.0591,-2.0496,-2.0382,-2.0178,-2.0104,-2.0036,-2.0059,-1.9853,-1.9785,-1.9853,-1.9876,-1.9876,-1.9876,-1.9768,-1.9716,-1.9716,-1.9625,-1.9464,-1.9166,-1.9104,-1.892,-1.8458,-1.8002,-1.7536,-1.6786,-1.5449,-1.3896,-1.236,-1.1345,-1.0413,-0.9385,-0.8882,-0.8428,-0.7939,-0.754,-0.7235,-0.6961,-0.6886,-0.6686,-0.6437,-0.6317,-0.6137,-0.5862,-0.5762,-0.5737,-0.5737,-0.5712,-0.5712,-0.5737,-0.5762,-0.5762,-0.5737,-0.5737,-0.5762,-0.5757,-0.5737,-0.5486,-3.0391,-3.0312,-2.9922,-2.9774,-2.9755,-2.9637,-2.9422,-2.9121,-2.9101,-2.8926,-2.8672,-2.8652,-2.8652,-2.864,-2.8398,-2.8301,-2.8301,-2.8301,-2.8301,-2.8262,-2.7995,-2.7858,-2.7819,-2.7402,-2.7187,-2.7168,-2.7051,-2.6855,-2.6504,-2.5845,-2.5454,-2.5375,-2.4863,-2.4586,-2.4551,-2.418,-2.3906,-2.3792,-2.3435,-2.3218,-2.3062,-2.283,-2.2609,-2.242,-2.2109,-2.1872,-2.1744,-2.168,-2.1638,-2.1638,-2.1709,-2.1727,-2.1662,-2.1784,-2.1754,-2.1597,-2.128,-2.0857,-2.0337,-2.0178,-1.9922,-1.9533,-1.9442,-1.935,-1.9304,-1.9235,-1.9189,-1.9189,-1.9189,-1.9235,-1.9579,-1.9464,-1.9396,-1.9373,-1.9281,-1.9005,-1.8643,-1.8596,-1.8411,-1.7947,-1.7504,-1.6894,-1.6032,-1.4543,-1.3052,-1.2043,-1.1198,-1.0314,-0.9352,-0.8907,-0.8602,-0.8113,-0.7988,-0.7839,-0.7515,-0.7416,-0.7291,-0.7116,-0.6992,-0.6892,-0.6686,-0.6637,-0.6612,-0.6487,-0.6587,-0.6612,-0.6512,-0.6562,-0.6612,-0.6612,-0.6612,-0.6587,-0.6562,-0.6587,-0.6587,-3.0859,-3.0781,-3.0371,-3.0204,-3.0137,-2.9813,-2.9618,-2.9559,-2.9579,-2.954,-2.9481,-2.95,-2.952,-2.9442,-2.8718,-2.832,-2.832,-2.8359,-2.8379,-2.8379,-2.832,-2.8281,-2.8223,-2.7878,-2.7682,-2.7624,-2.7305,-2.707,-2.6947,-2.6543,-2.6353,-2.6275,-2.5493,-2.5082,-2.5004,-2.4609,-2.4199,-2.3906,-2.3809,-2.3594,-2.3201,-2.3123,-2.3062,-2.304,-2.3001,-2.2921,-2.2938,-2.2804,-2.2695,-2.2717,-2.2454,-2.2271,-2.2091,-2.2065,-2.1839,-2.1414,-2.0762,-2.0337,-2.0201,-1.9837,-1.951,-1.9219,-1.8943,-1.8758,-1.862,-1.8435,-1.8319,-1.8203,-1.8295,-1.862,-1.9304,-1.9097,-1.885,-1.8827,-1.8458,-1.8249,-1.8156,-1.8133,-1.79,-1.7457,-1.7082,-1.6353,-1.5022,-1.3835,-1.2737,-1.1775,-1.0929,-1.0043,-0.9147,-0.8825,-0.8528,-0.8162,-0.7988,-0.7988,-0.7939,-0.7839,-0.7739,-0.759,-0.7441,-0.7472,-0.7316,-0.7185,-0.716,-0.716,-0.7166,-0.7166,-0.7191,-0.7166,-0.716,-0.716,-0.7166,-0.716,-0.716,-0.7185,-0.716,-3.0928,-3.0908,-3.0703,-3.0644,-3.0654,-3.0469,-3.0254,-3.0009,-2.9961,-2.9833,-2.9637,-2.9598,-2.9598,-2.9579,-2.9285,-2.9149,-2.9129,-2.9129,-2.9129,-2.9129,-2.9129,-2.8965,-2.8691,-2.8535,-2.832,-2.8066,-2.791,-2.7695,-2.7402,-2.6992,-2.6641,-2.6406,-2.6118,-2.5781,-2.5469,-2.5059,-2.4769,-2.4613,-2.4336,-2.4079,-2.3903,-2.3711,-2.3555,-2.3513,-2.3259,-2.3101,-2.3101,-2.3035,-2.2991,-2.2991,-2.2772,-2.2552,-2.2287,-2.1883,-2.1437,-2.097,-2.0541,-2.0019,-1.9448,-1.9196,-1.8897,-1.855,-1.8411,-1.8319,-1.8249,-1.8156,-1.8087,-1.8087,-1.8087,-1.8342,-1.8481,-1.8458,-1.8342,-1.8342,-1.8203,-1.8017,-1.7854,-1.7714,-1.7481,-1.7082,-1.6471,-1.5534,-1.4627,-1.3546,-1.2506,-1.1507,-1.0659,-0.9813,-0.9048,-0.8676,-0.8435,-0.8113,-0.7988,-0.7988,-0.7988,-0.7988,-0.7939,-0.7889,-0.7814,-0.7789,-0.769,-0.764,-0.764,-0.759,-0.764,-0.7615,-0.759,-0.759,-0.7615,-0.764,-0.764,-0.759,-0.7715,-0.7615,-0.764,-3.0928,-3.0928,-3.0928,-3.0928,-3.0928,-3.0928,-3.0723,-3.043,-3.041,-3.0254,-3.0048,-3.0009,-3.0028,-3.0028,-3.0028,-3.0028,-2.9989,-2.9755,-2.9598,-2.9598,-2.9598,-2.9442,-2.918,-2.9121,-2.8906,-2.8535,-2.8359,-2.8171,-2.7878,-2.7467,-2.7115,-2.6861,-2.668,-2.6387,-2.5932,-2.5644,-2.5415,-2.5102,-2.4809,-2.4547,-2.4391,-2.4118,-2.3926,-2.3769,-2.3474,-2.324,-2.3101,-2.3101,-2.3101,-2.3079,-2.2969,-2.275,-2.2397,-2.1687,-2.1127,-2.0812,-2.0337,-1.9745,-1.9058,-1.882,-1.852,-1.8017,-1.7877,-1.7831,-1.7761,-1.7691,-1.7644,-1.7606,-1.7621,-1.7621,-1.7621,-1.7621,-1.7714,-1.7854,-1.7831,-1.7667,-1.7495,-1.7246,-1.6988,-1.6659,-1.5927,-1.5094,-1.4352,-1.3413,-1.2395,-1.1345,-1.0585,-0.9813,-0.8998,-0.8651,-0.8411,-0.8088,-0.7988,-0.7988,-0.7988,-0.7988,-0.7988,-0.7963,-0.7939,-0.7988,-0.7988,-0.7988,-0.7988,-0.7988,-0.7988,-0.7988,-0.7988,-0.7988,-0.7988,-0.7988,-0.7939,-0.7839,-0.7914,-0.7963,-0.792,-3.0928,-3.0928,-3.0928,-3.0928,-3.0928,-3.0928,-3.0879,-3.0869,-3.0888,-3.0781,-3.0752,-3.0849,-3.0771,-3.0849,-3.0771,-3.0849,-3.0673,-3.0067,-2.9735,-2.9735,-2.9715,-2.9676,-2.9598,-2.9598,-2.9383,-2.8926,-2.8516,-2.8347,-2.8281,-2.7897,-2.7663,-2.7565,-2.7187,-2.6797,-2.6387,-2.6309,-2.5937,-2.5375,-2.518,-2.4945,-2.4469,-2.443,-2.4258,-2.3948,-2.3828,-2.3594,-2.3159,-2.3101,-2.3101,-2.3101,-2.3101,-2.2882,-2.2375,-2.1579,-2.1019,-2.084,-2.0133,-1.9517,-1.9173,-1.8712,-1.8264,-1.7752,-1.7481,-1.7293,-1.7082,-1.6871,-1.6753,-1.6777,-1.6753,-1.6706,-1.673,-1.6753,-1.6988,-1.7504,-1.7308,-1.7073,-1.6979,-1.6777,-1.6494,-1.6201,-1.5584,-1.4903,-1.428,-1.3461,-1.2467,-1.1516,-1.0732,-0.9994,-0.9072,-0.8751,-0.8528,-0.8162,-0.7988,-0.7988,-0.7988,-0.7988,-0.7988,-0.7988,-0.7988,-0.7988,-0.7988,-0.7988,-0.7988,-0.7988,-0.7988,-0.7988,-0.7988,-0.7988,-0.7988,-0.7988,-0.7988,-0.7988,-0.7988,-0.7995,-0.804,-3.0928,-3.0928,-3.0928,-3.0928,-3.0928,-3.0928,-3.0928,-3.0928,-3.0928,-3.0928,-3.0928,-3.0928,-3.0928,-3.0928,-3.0928,-3.0928,-3.0888,-3.0586,-3.0488,-3.0497,-3.0497,-3.0322,-3.0039,-3.0,-2.9813,-2.9383,-2.8926,-2.873,-2.8652,-2.8301,-2.7995,-2.7702,-2.7565,-2.7246,-2.6836,-2.6797,-2.6523,-2.6079,-2.6001,-2.5762,-2.5308,-2.5019,-2.4809,-2.4672,-2.4375,-2.4023,-2.3591,-2.3279,-2.3101,-2.3101,-2.3101,-2.2882,-2.2397,-2.182,-2.1284,-2.0772,-2.0178,-1.9448,-1.8781,-1.8435,-1.7962,-1.7378,-1.7129,-1.6988,-1.6777,-1.6636,-1.6588,-1.6588,-1.6612,-1.6612,-1.6612,-1.6612,-1.6706,-1.6918,-1.6824,-1.6706,-1.6659,-1.6494,-1.6211,-1.5927,-1.5441,-1.4951,-1.4496,-1.3678,-1.2686,-1.181,-1.0968,-1.0093,-0.9303,-0.8808,-0.8435,-0.8063,-0.8038,-0.7988,-0.7988,-0.7988,-0.7988,-0.7988,-0.7988,-0.7988,-0.7988,-0.7988,-0.7988,-0.7988,-0.7988,-0.7988,-0.7988,-0.7988,-0.7988,-0.8027,-0.8033,-0.8027,-0.7995,-0.8054,-0.8108,-3.0928,-3.0928,-3.0928,-3.0928,-3.0928,-3.0928,-3.0928,-3.0928,-3.0928,-3.0928,-3.0928,-3.0928,-3.0928,-3.0928,-3.0928,-3.0928,-3.0928,-3.0928,-3.0928,-3.0928,-3.0928,-3.0723,-3.043,-3.0254,-3.0078,-2.9794,-2.9355,-2.916,-2.9141,-2.873,-2.8398,-2.8191,-2.8015,-2.7702,-2.7305,-2.7246,-2.7076,-2.668,-2.6602,-2.6401,-2.6016,-2.5703,-2.5434,-2.5121,-2.4805,-2.4453,-2.4043,-2.3613,-2.3279,-2.314,-2.3035,-2.2838,-2.253,-2.1998,-2.1508,-2.106,-2.0405,-1.97,-1.8973,-1.8535,-1.7909,-1.727,-1.6941,-1.673,-1.6494,-1.6376,-1.6305,-1.6305,-1.6305,-1.6305,-1.6305,-1.6305,-1.6305,-1.6305,-1.64,-1.64,-1.6305,-1.614,-1.5998,-1.5784,-1.5475,-1.5094,-1.4616,-1.3884,-1.2918,-1.2092,-1.1238,-1.0339,-0.9575,-0.8981,-0.8609,-0.8262,-0.8063,-0.8038,-0.8013,-0.7988,-0.7988,-0.7988,-0.7988,-0.7988,-0.7988,-0.7988,-0.7988,-0.7988,-0.7988,-0.7988,-0.7988,-0.7988,-0.7995,-0.8033,-0.8119,-0.8174,-0.8214,-0.8241,-0.8289,-3.0928,-3.0928,-3.0928,-3.0928,-3.0928,-3.0928,-3.0928,-3.0928,-3.0928,-3.0928,-3.0928,-3.0928,-3.0928,-3.0928,-3.0928,-3.0928,-3.0928,-3.0928,-3.0928,-3.0928,-3.0928,-3.0869,-3.081,-3.0469,-3.0293,-3.0195,-2.9833,-2.9637,-2.9598,-2.916,-2.8945,-2.8867,-2.8496,-2.8191,-2.7878,-2.7761,-2.748,-2.7109,-2.7051,-2.6836,-2.6445,-2.6406,-2.606,-2.5297,-2.5219,-2.4961,-2.4473,-2.4043,-2.3571,-2.3157,-2.2947,-2.2838,-2.2662,-2.2109,-2.1798,-2.1597,-2.0812,-2.0155,-1.9569,-1.8858,-1.8118,-1.7349,-1.6871,-1.6471,-1.6272,-1.6045,-1.5903,-1.5903,-1.5903,-1.5842,-1.5879,-1.5879,-1.5879,-1.5855,-1.6045,-1.6069,-1.5879,-1.5832,-1.5832,-1.5784,-1.5618,-1.5309,-1.4807,-1.4052,-1.3208,-1.2335,-1.1639,-1.083,-0.9945,-0.9377,-0.8981,-0.8609,-0.8212,-0.8088,-0.8038,-0.7988,-0.7988,-0.7988,-0.7988,-0.802,-0.7995,-0.7995,-0.7988,-0.7988,-0.8015,-0.8008,-0.8002,-0.8015,-0.8094,-0.818,-0.8281,-0.8369,-0.841,-0.841,-0.8431,-3.0928,-3.0928,-3.0928,-3.0928,-3.0928,-3.0928,-3.0928,-3.0928,-3.0928,-3.0928,-3.0928,-3.0928,-3.0928,-3.0928,-3.0928,-3.0928,-3.0928,-3.0928,-3.0928,-3.0928,-3.0928,-3.0928,-3.0898,-3.0781,-3.0703,-3.0654,-3.0282,-3.0067,-3.0,-2.9609,-2.9422,-2.9375,-2.8965,-2.8664,-2.8574,-2.8288,-2.7936,-2.7585,-2.7526,-2.7311,-2.6914,-2.6855,-2.6602,-2.6157,-2.604,-2.5649,-2.4961,-2.4492,-2.3864,-2.3159,-2.3057,-2.2947,-2.2816,-2.2574,-2.2242,-2.1731,-2.1172,-2.0456,-1.9683,-1.895,-1.8164,-1.7372,-1.6894,-1.6494,-1.6224,-1.595,-1.5832,-1.5808,-1.5808,-1.5808,-1.5808,-1.5808,-1.5808,-1.5808,-1.5879,-1.5903,-1.5832,-1.5808,-1.5808,-1.5784,-1.5618,-1.5356,-1.4999,-1.4472,-1.3739,-1.2953,-1.22,-1.1453,-1.0562,-0.9855,-0.9474,-0.8741,-0.8311,-0.8187,-0.8088,-0.8038,-0.7988,-0.7988,-0.8013,-0.802,-0.8027,-0.8027,-0.7995,-0.7988,-0.8094,-0.8108,-0.8101,-0.8108,-0.8208,-0.8342,-0.841,-0.8492,-0.8492,-0.8492,-0.8547,-3.0966,-3.1054,-3.1054,-3.1083,-3.1054,-3.1083,-3.0995,-3.0928,-3.0928,-3.0928,-3.0928,-3.0928,-3.0928,-3.0928,-3.0928,-3.0928,-3.0928,-3.0928,-3.0928,-3.0928,-3.0928,-3.0928,-3.0898,-3.0928,-3.0928,-3.0888,-3.0625,-3.0537,-3.041,-3.0039,-2.9844,-2.9746,-2.9394,-2.9101,-2.8867,-2.8691,-2.8359,-2.8008,-2.7956,-2.7741,-2.7324,-2.7285,-2.7051,-2.6699,-2.6484,-2.6001,-2.518,-2.4828,-2.4297,-2.3633,-2.3376,-2.3252,-2.2945,-2.2816,-2.2596,-2.2154,-2.162,-2.0952,-2.0229,-1.9432,-1.8558,-1.7746,-1.7129,-1.6612,-1.6248,-1.595,-1.5808,-1.5808,-1.5808,-1.5808,-1.5808,-1.5808,-1.5808,-1.5808,-1.5808,-1.5808,-1.5808,-1.5808,-1.5808,-1.5784,-1.5689,-1.5547,-1.5298,-1.4879,-1.428,-1.357,-1.2905,-1.209,-1.1262,-1.0618,-0.9979,-0.9369,-0.8794,-0.865,-0.8377,-0.8238,-0.8099,-0.8067,-0.8115,-0.8126,-0.8081,-0.8088,-0.8108,-0.8128,-0.8169,-0.8196,-0.8241,-0.8282,-0.8384,-0.8479,-0.8533,-0.8594,-0.8621,-0.8608,-0.8682,-3.1112,-3.1354,-3.1354,-3.1325,-3.1296,-3.1296,-3.1141,-3.0957,-3.0928,-3.0928,-3.0928,-3.0928,-3.0928,-3.0928,-3.0928,-3.0928,-3.0928,-3.0928,-3.0928,-3.0928,-3.0928,-3.0928,-3.0928,-3.0928,-3.0928,-3.0908,-3.0928,-3.0888,-3.0752,-3.041,-3.0293,-3.0176,-2.9872,-2.95,-2.9238,-2.9015,-2.875,-2.8437,-2.8359,-2.8144,-2.7839,-2.7741,-2.7545,-2.7109,-2.6699,-2.6152,-2.5551,-2.5239,-2.4867,-2.3987,-2.3887,-2.3669,-2.3293,-2.308,-2.2989,-2.285,-2.2326,-2.1685,-2.1018,-2.012,-1.9182,-1.8218,-1.741,-1.6815,-1.6343,-1.6021,-1.5808,-1.5808,-1.5808,-1.5808,-1.5808,-1.5808,-1.5808,-1.5808,-1.5808,-1.5808,-1.5808,-1.5808,-1.5808,-1.5808,-1.5808,-1.5713,-1.5523,-1.5287,-1.4881,-1.4267,-1.3656,-1.3039,-1.2279,-1.1646,-1.096,-1.0278,-0.9715,-0.9185,-0.8827,-0.848,-0.8275,-0.8167,-0.8255,-0.8275,-0.8228,-0.8235,-0.8275,-0.8303,-0.8323,-0.8364,-0.8437,-0.8505,-0.8567,-0.8621,-0.8669,-0.875,-0.8838,-0.8791,-0.8818,-3.1383,-3.1701,-3.1672,-3.1527,-3.1325,-3.1296,-3.117,-3.0928,-3.0928,-3.0928,-3.0928,-3.0928,-3.0928,-3.0928,-3.0928,-3.0928,-3.0928,-3.0928,-3.0928,-3.0928,-3.0928,-3.0928,-3.0928,-3.0928,-3.0928,-3.0928,-3.0928,-3.0928,-3.0869,-3.0781,-3.0742,-3.0673,-3.0293,-3.0019,-2.9863,-2.9531,-2.9219,-2.8867,-2.8789,-2.8574,-2.8242,-2.8171,-2.7976,-2.7526,-2.709,-2.6641,-2.625,-2.6138,-2.5708,-2.4984,-2.4531,-2.4355,-2.4079,-2.3994,-2.388,-2.3633,-2.3217,-2.2483,-2.1557,-2.061,-1.9604,-1.8574,-1.7663,-1.6847,-1.6541,-1.6086,-1.5858,-1.5808,-1.5808,-1.5861,-1.5875,-1.5821,-1.5861,-1.5888,-1.5875,-1.5848,-1.5821,-1.5821,-1.5835,-1.5821,-1.5835,-1.5726,-1.5573,-1.5723,-1.5387,-1.4888,-1.4453,-1.4015,-1.3377,-1.2684,-1.1961,-1.1229,-1.062,-1.0051,-0.9416,-0.8951,-0.8529,-0.8349,-0.8397,-0.8479,-0.8431,-0.8404,-0.8465,-0.8465,-0.8445,-0.8499,-0.8581,-0.8621,-0.8696,-0.8723,-0.8777,-0.8852,-0.8912,-0.8919,-0.898,-3.1585,-3.2018,-3.2047,-3.1845,-3.1556,-3.1527,-3.1315,-3.0986,-3.0928,-3.0928,-3.0928,-3.0928,-3.0928,-3.0928,-3.0928,-3.0928,-3.0928,-3.0928,-3.0928,-3.0928,-3.0928,-3.0928,-3.0928,-3.0928,-3.0928,-3.0928,-3.0928,-3.0928,-3.0928,-3.0928,-3.0908,-3.0898,-3.0625,-3.0391,-3.0215,-2.998,-2.9676,-2.9316,-2.9219,-2.9023,-2.8652,-2.8574,-2.8269,-2.78,-2.7448,-2.7129,-2.6719,-2.668,-2.6426,-2.6055,-2.5723,-2.5195,-2.4551,-2.4434,-2.4364,-2.4183,-2.3765,-2.3154,-2.2211,-2.1309,-2.0296,-1.9225,-1.8186,-1.7529,-1.7022,-1.6524,-1.6246,-1.6208,-1.6222,-1.6222,-1.6222,-1.6222,-1.6222,-1.6222,-1.6208,-1.6233,-1.6195,-1.6126,-1.6032,-1.6072,-1.6179,-1.6173,-1.6179,-1.6158,-1.6063,-1.5644,-1.5245,-1.4773,-1.4333,-1.3642,-1.2917,-1.2211,-1.1547,-1.0879,-1.0152,-0.9482,-0.8815,-0.8618,-0.8574,-0.8662,-0.8669,-0.8656,-0.8676,-0.8648,-0.8615,-0.8669,-0.8743,-0.8777,-0.8784,-0.8825,-0.8872,-0.8933,-0.9015,-0.9062,-0.9144,-3.1759,-3.2383,-3.2363,-3.2133,-3.1865,-3.1839,-3.158,-3.1074,-3.1055,-3.1191,-3.1123,-3.1123,-3.124,-3.1162,-3.1182,-3.1113,-3.1143,-3.1162,-3.126,-3.126,-3.126,-3.126,-3.124,-3.124,-3.1133,-3.1016,-3.0918,-3.0898,-3.0928,-3.0928,-3.0928,-3.0898,-3.0879,-3.0713,-3.0371,-3.0293,-3.0098,-2.9726,-2.9676,-2.9453,-2.9101,-2.9004,-2.8633,-2.8105,-2.7956,-2.7637,-2.7246,-2.7109,-2.7051,-2.7012,-2.7012,-2.6211,-2.5249,-2.4727,-2.4625,-2.4641,-2.4234,-2.364,-2.2933,-2.2,-2.0999,-1.9989,-1.8892,-1.8079,-1.7481,-1.6968,-1.6656,-1.6608,-1.6595,-1.6595,-1.67,-1.6633,-1.6622,-1.666,-1.6687,-1.67,-1.6673,-1.65,-1.6471,-1.6391,-1.6446,-1.6464,-1.6557,-1.6612,-1.6539,-1.6416,-1.5973,-1.5578,-1.5167,-1.4669,-1.3943,-1.3213,-1.2556,-1.1434,-1.0578,-1.0,-0.9346,-0.889,-0.8791,-0.8764,-0.8845,-0.8818,-0.8777,-0.877,-0.8777,-0.8838,-0.8858,-0.8858,-0.8872,-0.8919,-0.8973,-0.9062,-0.9152,-0.9206,-0.9308,-3.2076,-3.2641,-3.2641,-3.2326,-3.1906,-3.214,-3.1948,-3.1544,-3.1788,-3.1983,-3.1944,-3.1964,-3.1925,-3.1944,-3.1964,-3.1964,-3.1866,-3.1827,-3.1866,-3.1885,-3.1885,-3.1866,-3.1846,-3.1807,-3.168,-3.1387,-3.1113,-3.0937,-3.0928,-3.0928,-3.0928,-3.0928,-3.0928,-3.083,-3.0791,-3.0762,-3.0508,-3.0156,-3.0106,-2.9883,-2.957,-2.9375,-2.9199,-2.8691,-2.8633,-2.8281,-2.7754,-2.7585,-2.7402,-2.707,-2.7012,-2.683,-2.6484,-2.6172,-2.5835,-2.5382,-2.4899,-2.4259,-2.3401,-2.2452,-2.1283,-2.0078,-1.8958,-1.8127,-1.7565,-1.7066,-1.6871,-1.678,-1.6767,-1.674,-1.6714,-1.6794,-1.674,-1.6727,-1.6767,-1.6767,-1.6794,-1.6886,-1.6899,-1.6754,-1.6754,-1.678,-1.6901,-1.6994,-1.6996,-1.6922,-1.6691,-1.6419,-1.6167,-1.5673,-1.511,-1.4357,-1.3588,-1.2253,-1.0939,-1.044,-0.9863,-0.9268,-0.9023,-0.8859,-0.8885,-0.8899,-0.8885,-0.892,-0.8879,-0.8885,-0.8906,-0.8933,-0.9022,-0.9089,-0.9158,-0.9199,-0.9288,-0.9376,-0.9422,-3.1787,-3.224,-3.224,-3.2131,-3.1974,-3.2086,-3.2088,-3.1935,-3.2101,-3.2198,-3.2198,-3.2198,-3.2198,-3.2198,-3.2198,-3.2198,-3.2218,-3.2198,-3.2198,-3.2198,-3.2198,-3.2198,-3.2218,-3.2218,-3.1894,-3.1562,-3.1309,-3.1074,-3.0898,-3.0928,-3.0928,-3.0928,-3.0928,-3.0928,-3.0928,-3.0888,-3.0762,-3.0547,-3.0527,-3.0332,-2.9902,-2.9726,-2.9453,-2.9336,-2.9219,-2.8953,-2.8476,-2.832,-2.8105,-2.7793,-2.7676,-2.7559,-2.7389,-2.7129,-2.6707,-2.5957,-2.5362,-2.4579,-2.3538,-2.246,-2.1353,-2.0313,-1.9194,-1.8433,-1.7949,-1.7541,-1.718,-1.7154,-1.7154,-1.7154,-1.7181,-1.7154,-1.7154,-1.7154,-1.7154,-1.7141,-1.7194,-1.7327,-1.7287,-1.7181,-1.7221,-1.7248,-1.7235,-1.7341,-1.7381,-1.7357,-1.7292,-1.716,-1.7013,-1.6471,-1.5885,-1.5003,-1.4089,-1.2817,-1.1482,-1.0825,-1.0288,-0.9715,-0.9245,-0.905,-0.8967,-0.9022,-0.9042,-0.9049,-0.9035,-0.898,-0.9035,-0.9111,-0.9186,-0.926,-0.9294,-0.9356,-0.9429,-0.9523,-0.9585,-3.1498,-3.1808,-3.1888,-3.1954,-3.2008,-3.2197,-3.2274,-3.2326,-3.2433,-3.2461,-3.2452,-3.2472,-3.2492,-3.2472,-3.2472,-3.2441,-3.2422,-3.2461,-3.2531,-3.25,-3.2531,-3.2492,-3.2472,-3.2394,-3.2285,-3.1973,-3.168,-3.1387,-3.1006,-3.0928,-3.0928,-3.0928,-3.0928,-3.0928,-3.0928,-3.0928,-3.0928,-3.0928,-3.0908,-3.0664,-3.0332,-3.0048,-2.9794,-2.9735,-2.9715,-2.952,-2.9062,-2.9004,-2.8769,-2.8496,-2.834,-2.8203,-2.7897,-2.7819,-2.7292,-2.6295,-2.5629,-2.4709,-2.3693,-2.2596,-2.168,-2.0794,-1.9657,-1.9,-1.8551,-1.8154,-1.7769,-1.7756,-1.7769,-1.7796,-1.7782,-1.7729,-1.7742,-1.7742,-1.7716,-1.7715,-1.7769,-1.7836,-1.7836,-1.7796,-1.7756,-1.7649,-1.7568,-1.7622,-1.7675,-1.7689,-1.7609,-1.7582,-1.7369,-1.6934,-1.6271,-1.5351,-1.4374,-1.3224,-1.211,-1.1236,-1.0643,-1.0012,-0.9552,-0.9223,-0.9181,-0.9144,-0.9192,-0.9198,-0.9157,-0.9144,-0.9199,-0.9275,-0.9322,-0.939,-0.9401,-0.9483,-0.9598,-0.9652,-0.9686,-3.1498,-3.1828,-3.2181,-3.2205,-3.2118,-3.2772,-3.2944,-3.2785,-3.3066,-3.3262,-3.3164,-3.3223,-3.3203,-3.3184,-3.3203,-3.3191,-3.3191,-3.3133,-3.3125,-3.3074,-3.3125,-3.3144,-3.3223,-3.325,-3.2891,-3.248,-3.2207,-3.1621,-3.1182,-3.1006,-3.0928,-3.0928,-3.0928,-3.0928,-3.0928,-3.0928,-3.0928,-3.0928,-3.0928,-3.0888,-3.0781,-3.0684,-3.0449,-3.0234,-3.0098,-2.9941,-2.957,-2.9473,-2.9277,-2.8926,-2.8848,-2.8633,-2.8301,-2.8249,-2.7651,-2.6853,-2.6024,-2.5252,-2.4243,-2.3077,-2.2101,-2.1181,-2.0192,-1.9615,-1.9041,-1.8632,-1.829,-1.8384,-1.8357,-1.8303,-1.8223,-1.8116,-1.8129,-1.8129,-1.8076,-1.8156,-1.8237,-1.8157,-1.8184,-1.8224,-1.813,-1.7916,-1.7769,-1.7876,-1.7969,-1.7969,-1.7942,-1.7902,-1.7781,-1.7353,-1.6847,-1.5982,-1.5099,-1.3953,-1.2809,-1.1926,-1.1045,-1.039,-0.9843,-0.944,-0.9332,-0.9273,-0.9334,-0.934,-0.9313,-0.9327,-0.9381,-0.9451,-0.9456,-0.9503,-0.9564,-0.9659,-0.9768,-0.9795,-0.9815,-3.117,-3.1326,-3.1712,-3.1989,-3.2194,-3.2754,-3.3085,-3.3176,-3.3308,-3.3386,-3.3386,-3.3386,-3.3386,-3.3386,-3.3386,-3.3367,-3.3386,-3.3386,-3.3386,-3.3386,-3.3386,-3.3386,-3.3367,-3.3367,-3.3203,-3.2871,-3.2598,-3.2266,-3.169,-3.1162,-3.0928,-3.0918,-3.0947,-3.0928,-3.1006,-3.0947,-3.0928,-3.0928,-3.0928,-3.0928,-3.0928,-3.0879,-3.0781,-3.0605,-3.0566,-3.0341,-3.0039,-2.9922,-2.9735,-2.9375,-2.9297,-2.9082,-2.8715,-2.8451,-2.8018,-2.7221,-2.6365,-2.5343,-2.4105,-2.3035,-2.2151,-2.1244,-2.0265,-1.936,-1.8975,-1.8698,-1.8517,-1.849,-1.849,-1.8504,-1.8517,-1.837,-1.8397,-1.841,-1.8383,-1.8437,-1.849,-1.8464,-1.8437,-1.8477,-1.8504,-1.8317,-1.8197,-1.825,-1.8316,-1.8263,-1.8263,-1.8249,-1.814,-1.7921,-1.7363,-1.6707,-1.5825,-1.4844,-1.3666,-1.2599,-1.1563,-1.0817,-1.011,-0.9738,-0.947,-0.9408,-0.9496,-0.9564,-0.9585,-0.9598,-0.9618,-0.9591,-0.9578,-0.9646,-0.9697,-0.9792,-0.991,-0.9913,-0.9947,-3.0928,-3.0967,-3.1445,-3.1875,-3.2257,-3.2734,-3.3125,-3.3367,-3.3386,-3.3386,-3.3386,-3.3386,-3.3386,-3.3386,-3.3386,-3.3386,-3.3386,-3.3386,-3.3386,-3.3386,-3.3386,-3.3386,-3.3386,-3.3347,-3.323,-3.293,-3.2812,-3.2578,-3.2187,-3.1729,-3.1338,-3.1211,-3.1358,-3.1319,-3.123,-3.1269,-3.1269,-3.1094,-3.0957,-3.0898,-3.0928,-3.0928,-3.0928,-3.0908,-3.0888,-3.0752,-3.043,-3.0371,-3.0204,-2.9833,-2.9755,-2.9531,-2.9133,-2.8834,-2.8352,-2.7619,-2.6811,-2.5675,-2.4333,-2.3113,-2.2041,-2.1118,-2.0208,-1.9374,-1.8926,-1.8704,-1.8718,-1.8784,-1.8784,-1.8758,-1.8704,-1.8705,-1.8691,-1.8704,-1.8677,-1.8677,-1.8719,-1.8772,-1.8839,-1.8906,-1.892,-1.8838,-1.8759,-1.8746,-1.8704,-1.8624,-1.8584,-1.8571,-1.846,-1.8336,-1.7881,-1.7262,-1.6653,-1.572,-1.459,-1.343,-1.2353,-1.1355,-1.0637,-1.0105,-0.9853,-0.9728,-0.9734,-0.9788,-0.9829,-0.9897,-0.9937,-0.9815,-0.9677,-0.9771,-0.9866,-0.994,-1.0008,-1.0055,-1.0096,-3.0928,-3.0957,-3.1807,-3.2159,-3.2257,-3.3016,-3.3347,-3.3386,-3.3386,-3.3386,-3.3386,-3.3386,-3.3386,-3.3386,-3.3386,-3.3386,-3.3386,-3.3386,-3.3386,-3.3386,-3.3386,-3.3386,-3.3386,-3.3367,-3.3347,-3.3281,-3.3066,-3.2851,-3.2676,-3.2374,-3.214,-3.2101,-3.1944,-3.2042,-3.2003,-3.1866,-3.1719,-3.1465,-3.1172,-3.0976,-3.0937,-3.0918,-3.0928,-3.0928,-3.0928,-3.0879,-3.084,-3.0781,-3.0605,-3.0176,-3.0156,-2.9961,-2.9553,-2.9196,-2.868,-2.7987,-2.7076,-2.5942,-2.4701,-2.3493,-2.2479,-2.1514,-2.0516,-1.956,-1.9231,-1.9281,-1.9308,-1.9227,-1.916,-1.9214,-1.9174,-1.9105,-1.9011,-1.9025,-1.9027,-1.9027,-1.9067,-1.916,-1.9227,-1.9308,-1.9267,-1.9147,-1.9134,-1.908,-1.9027,-1.8946,-1.8891,-1.8906,-1.8744,-1.8579,-1.8233,-1.7761,-1.74,-1.6562,-1.549,-1.436,-1.321,-1.2207,-1.1409,-1.0793,-1.0309,-1.0189,-1.0088,-1.0012,-1.0053,-1.0154,-1.0202,-1.0032,-0.9937,-0.9961,-1.0028,-1.012,-1.0209,-1.0283,-1.0297,-3.0928,-3.1006,-3.1846,-3.2198,-3.2257,-3.3066,-3.3386,-3.3386,-3.3386,-3.3386,-3.3386,-3.3386,-3.3386,-3.3386,-3.3386,-3.3386,-3.3386,-3.3386,-3.3386,-3.3386,-3.3386,-3.3386,-3.3386,-3.3386,-3.3386,-3.3347,-3.3191,-3.3152,-3.3144,-3.291,-3.2969,-3.2832,-3.2492,-3.2237,-3.2198,-3.2257,-3.2101,-3.1894,-3.1523,-3.1289,-3.123,-3.0996,-3.0928,-3.0928,-3.0928,-3.0928,-3.0908,-3.0928,-3.0781,-3.0664,-3.0605,-3.0332,-2.9925,-2.9526,-2.8937,-2.8217,-2.7208,-2.6093,-2.4952,-2.3726,-2.2446,-2.1017,-2.0164,-1.972,-1.947,-1.9401,-1.9401,-1.9388,-1.9401,-1.9401,-1.9361,-1.9294,-1.9239,-1.9334,-1.9334,-1.9308,-1.9361,-1.9441,-1.9508,-1.9535,-1.9441,-1.9334,-1.9334,-1.9361,-1.9294,-1.9241,-1.9227,-1.9174,-1.904,-1.889,-1.8595,-1.8241,-1.7859,-1.7305,-1.6281,-1.5147,-1.4035,-1.314,-1.2194,-1.1485,-1.0894,-1.0631,-1.0521,-1.038,-1.0243,-1.029,-1.0276,-1.0181,-1.0154,-1.0181,-1.0215,-1.0249,-1.0351,-1.0466,-1.048,-3.0928,-3.1025,-3.1846,-3.2198,-3.2316,-3.3066,-3.3386,-3.3386,-3.3386,-3.3386,-3.3386,-3.3386,-3.3386,-3.3386,-3.3386,-3.3386,-3.3386,-3.3386,-3.3386,-3.3386,-3.3386,-3.3386,-3.3386,-3.3386,-3.3386,-3.3386,-3.3386,-3.3367,-3.3347,-3.3386,-3.3308,-3.3164,-3.2891,-3.2656,-3.2559,-3.2433,-3.2374,-3.2246,-3.1973,-3.1621,-3.1504,-3.1269,-3.0976,-3.0967,-3.0928,-3.0928,-3.0928,-3.0928,-3.0928,-3.0888,-3.082,-3.0674,-3.0267,-2.9747,-2.9095,-2.8223,-2.7215,-2.6116,-2.4949,-2.3436,-2.2052,-2.0753,-2.0201,-1.9832,-1.9607,-1.9522,-1.9548,-1.9401,-1.9401,-1.9401,-1.9415,-1.9361,-1.9348,-1.9374,-1.9374,-1.9374,-1.9508,-1.9586,-1.9653,-1.9706,-1.9682,-1.9709,-1.9669,-1.9669,-1.9481,-1.9415,-1.9321,-1.9308,-1.9267,-1.917,-1.9068,-1.8722,-1.8317,-1.7718,-1.7032,-1.6023,-1.506,-1.4173,-1.3203,-1.214,-1.1548,-1.1212,-1.0792,-1.0486,-1.0378,-1.0399,-1.0412,-1.0412,-1.0378,-1.0344,-1.0392,-1.0446,-1.05,-1.0602,-1.0636,-3.0928,-3.0996,-3.1827,-3.2179,-3.2296,-3.3066,-3.3386,-3.3386,-3.3386,-3.3386,-3.3386,-3.3386,-3.3386,-3.3386,-3.3386,-3.3386,-3.3386,-3.3386,-3.3386,-3.3386,-3.3386,-3.3386,-3.3386,-3.3386,-3.3386,-3.3386,-3.3386,-3.3386,-3.3386,-3.3386,-3.3386,-3.3386,-3.3211,-3.3191,-3.3289,-3.2969,-3.2793,-3.2715,-3.2363,-3.1992,-3.1738,-3.1543,-3.125,-3.1074,-3.0947,-3.0928,-3.0928,-3.0928,-3.0928,-3.0928,-3.0928,-3.0704,-3.0354,-2.9984,-2.933,-2.8407,-2.7429,-2.6318,-2.5008,-2.2946,-2.158,-2.0758,-2.0274,-2.0017,-1.984,-1.9773,-1.972,-1.9629,-1.9535,-1.9495,-1.9441,-1.9455,-1.9495,-1.9522,-1.9548,-1.9602,-1.972,-1.9786,-1.988,-1.992,-2.005,-2.0144,-2.005,-1.996,-1.9706,-1.9575,-1.9441,-1.9401,-1.9415,-1.9372,-1.9285,-1.9174,-1.8777,-1.8331,-1.7715,-1.6952,-1.6061,-1.5195,-1.4223,-1.3167,-1.2179,-1.1656,-1.1185,-1.0688,-1.0527,-1.0555,-1.0629,-1.069,-1.0595,-1.0514,-1.0595,-1.0656,-1.0697,-1.0671,-1.0717,-3.0928,-3.0937,-3.1504,-3.1914,-3.2296,-3.3066,-3.3386,-3.3386,-3.3386,-3.3386,-3.3386,-3.3386,-3.3386,-3.3386,-3.3386,-3.3386,-3.3386,-3.3386,-3.3386,-3.3386,-3.3386,-3.3386,-3.3386,-3.3386,-3.3386,-3.3386,-3.3386,-3.3386,-3.3386,-3.3386,-3.3386,-3.3386,-3.3386,-3.3386,-3.3367,-3.3242,-3.3203,-3.3125,-3.2812,-3.25,-3.2305,-3.1855,-3.1484,-3.1309,-3.1074,-3.0937,-3.0967,-3.0967,-3.0928,-3.0928,-3.0928,-3.0733,-3.0333,-2.9951,-2.9165,-2.8152,-2.7086,-2.5456,-2.3899,-2.2193,-2.1403,-2.0838,-2.0435,-2.0224,-2.0064,-2.005,-2.0013,-1.9947,-1.9867,-1.9867,-1.996,-1.996,-1.9973,-1.9957,-1.997,-2.0,-2.005,-2.005,-2.009,-2.0104,-2.0197,-2.0237,-2.0197,-2.0184,-2.0013,-1.9786,-1.9696,-1.9535,-1.9495,-1.9468,-1.9397,-1.9452,-1.9263,-1.8915,-1.8397,-1.7711,-1.6929,-1.6055,-1.5137,-1.4208,-1.3283,-1.2263,-1.1577,-1.1075,-1.0861,-1.0717,-1.0717,-1.0717,-1.0704,-1.069,-1.0711,-1.0717,-1.0717,-1.0711,-1.0717,-3.0928,-3.0967,-3.1348,-3.168,-3.2081,-3.2851,-3.325,-3.3367,-3.3386,-3.3386,-3.3386,-3.3386,-3.3386,-3.3386,-3.3386,-3.3386,-3.3386,-3.3386,-3.3386,-3.3386,-3.3386,-3.3386,-3.3386,-3.3386,-3.3386,-3.3386,-3.3386,-3.3386,-3.3386,-3.3386,-3.3386,-3.3386,-3.3386,-3.3386,-3.3386,-3.3367,-3.3347,-3.3269,-3.3086,-3.291,-3.2656,-3.2305,-3.1934,-3.168,-3.1406,-3.1103,-3.1074,-3.1025,-3.0928,-3.0928,-3.0869,-3.0694,-3.0216,-2.9667,-2.8897,-2.7822,-2.6189,-2.4595,-2.3029,-2.2059,-2.1374,-2.0904,-2.0628,-2.0477,-2.0397,-2.0357,-2.0264,-2.0224,-2.0237,-2.0224,-2.0224,-2.0237,-2.025,-2.0237,-2.0237,-2.0237,-2.0388,-2.0388,-2.0424,-2.0424,-2.045,-2.0437,-2.0388,-2.0344,-2.0321,-2.0107,-1.992,-1.9773,-1.9682,-1.9655,-1.9653,-1.9737,-1.9734,-1.9486,-1.9066,-1.855,-1.7741,-1.6891,-1.6018,-1.5116,-1.3867,-1.2792,-1.2117,-1.1446,-1.1148,-1.0883,-1.075,-1.0711,-1.0704,-1.0704,-1.0717,-1.0717,-1.0717,-1.0717,-1.0717,-3.0928,-3.0957,-3.1328,-3.1474,-3.165,-3.248,-3.3016,-3.3367,-3.3386,-3.3386,-3.3386,-3.3386,-3.3386,-3.3386,-3.3386,-3.3386,-3.3386,-3.3386,-3.3386,-3.3386,-3.3386,-3.3386,-3.3386,-3.3386,-3.3386,-3.3386,-3.3386,-3.3386,-3.3386,-3.3386,-3.3386,-3.3386,-3.3386,-3.3386,-3.3386,-3.3386,-3.3386,-3.3347,-3.334,-3.3144,-3.291,-3.2734,-3.2441,-3.2148,-3.1797,-3.1582,-3.1445,-3.125,-3.1055,-3.0957,-3.0889,-3.0518,-3.0039,-2.9579,-2.8659,-2.7203,-2.5241,-2.379,-2.2668,-2.1884,-2.1475,-2.106,-2.1029,-2.0909,-2.0788,-2.0681,-2.0615,-2.0494,-2.0424,-2.0357,-2.0317,-2.033,-2.0357,-2.0344,-2.0344,-2.0481,-2.0672,-2.0735,-2.0828,-2.0882,-2.0904,-2.0895,-2.0735,-2.0668,-2.057,-2.049,-2.0344,-2.0317,-2.0214,-2.0027,-2.0037,-2.013,-2.0125,-2.0034,-1.9671,-1.9287,-1.8715,-1.7896,-1.6904,-1.5946,-1.4651,-1.3424,-1.2601,-1.1942,-1.138,-1.1049,-1.0817,-1.0717,-1.0717,-1.0717,-1.0724,-1.0717,-1.0717,-1.0724,-1.0724,-3.0928,-3.0928,-3.1035,-3.125,-3.1621,-3.2441,-3.3047,-3.3367,-3.3386,-3.3386,-3.3386,-3.3386,-3.3386,-3.3386,-3.3386,-3.3386,-3.3386,-3.3386,-3.3386,-3.3386,-3.3386,-3.3386,-3.3386,-3.3386,-3.3386,-3.3386,-3.3386,-3.3386,-3.3386,-3.3386,-3.3386,-3.3386,-3.3386,-3.3386,-3.3386,-3.3386,-3.3386,-3.3386,-3.3386,-3.3289,-3.3144,-3.2969,-3.2773,-3.2539,-3.2207,-3.2042,-3.1905,-3.1562,-3.1367,-3.1328,-3.1055,-3.0606,-2.997,-2.9331,-2.8331,-2.5914,-2.4286,-2.3012,-2.2292,-2.1614,-2.1204,-2.1141,-2.1109,-2.1096,-2.1002,-2.0949,-2.0895,-2.0788,-2.0722,-2.0664,-2.0664,-2.0664,-2.0664,-2.0664,-2.0695,-2.0762,-2.0909,-2.0922,-2.1015,-2.1029,-2.1096,-2.1082,-2.0935,-2.0922,-2.0837,-2.0824,-2.0797,-2.0757,-2.0677,-2.0477,-2.041,-2.049,-2.0482,-2.042,-2.0409,-2.0099,-1.9548,-1.8876,-1.7808,-1.671,-1.5508,-1.4301,-1.3227,-1.2312,-1.1541,-1.107,-1.075,-1.0744,-1.0812,-1.0744,-1.0698,-1.0724,-1.0724,-1.0751,-1.0799,-3.0928,-3.0928,-3.0928,-3.1133,-3.1533,-3.207,-3.2539,-3.293,-3.323,-3.3386,-3.3386,-3.3386,-3.3386,-3.3386,-3.3386,-3.3386,-3.3386,-3.3386,-3.3386,-3.3386,-3.3386,-3.3386,-3.3386,-3.3386,-3.3386,-3.3386,-3.3386,-3.3386,-3.3386,-3.3386,-3.3386,-3.3386,-3.3386,-3.3386,-3.3386,-3.3386,-3.3386,-3.3386,-3.3386,-3.3386,-3.3269,-3.3164,-3.3086,-3.2949,-3.2648,-3.2492,-3.2394,-3.1992,-3.1816,-3.1719,-3.1367,-3.0858,-2.9982,-2.8996,-2.7509,-2.5318,-2.396,-2.2918,-2.2167,-2.152,-2.1204,-2.1109,-2.1109,-2.1096,-2.1096,-2.1056,-2.1056,-2.1015,-2.1056,-2.1082,-2.1082,-2.1096,-2.1082,-2.1082,-2.1082,-2.1082,-2.1096,-2.1096,-2.1096,-2.1096,-2.1109,-2.1109,-2.1082,-2.1109,-2.1096,-2.0997,-2.0971,-2.0957,-2.0904,-2.0842,-2.0788,-2.0828,-2.0824,-2.0815,-2.0803,-2.0647,-2.0062,-1.9316,-1.8355,-1.726,-1.6191,-1.4908,-1.354,-1.2476,-1.1544,-1.1159,-1.0893,-1.0927,-1.0941,-1.0873,-1.086,-1.0907,-1.0907,-1.084,-1.0894,-3.0928,-3.0928,-3.0928,-3.1094,-3.1416,-3.1543,-3.1797,-3.2218,-3.293,-3.332,-3.3289,-3.3328,-3.3328,-3.3367,-3.3386,-3.3386,-3.3386,-3.3386,-3.3386,-3.3386,-3.3386,-3.3386,-3.3386,-3.3386,-3.3386,-3.3386,-3.3386,-3.3386,-3.3386,-3.3386,-3.3386,-3.3386,-3.3386,-3.3386,-3.3386,-3.3386,-3.3386,-3.3386,-3.3386,-3.3386,-3.3386,-3.3367,-3.3367,-3.3308,-3.3086,-3.2832,-3.2765,-3.2531,-3.2207,-3.207,-3.1735,-3.1193,-2.9839,-2.841,-2.6667,-2.5214,-2.3848,-2.2914,-2.2132,-2.1488,-2.1204,-2.1109,-2.1109,-2.1109,-2.1109,-2.1109,-2.1109,-2.1109,-2.1109,-2.1109,-2.1109,-2.1109,-2.1109,-2.1109,-2.1109,-2.1109,-2.1109,-2.1109,-2.1109,-2.1109,-2.1109,-2.1109,-2.1109,-2.1109,-2.1109,-2.1109,-2.1109,-2.1109,-2.1082,-2.1029,-2.1056,-2.1056,-2.0997,-2.0984,-2.0961,-2.0761,-2.0348,-1.9647,-1.8784,-1.7711,-1.658,-1.5202,-1.3754,-1.2704,-1.167,-1.1354,-1.1118,-1.1098,-1.1104,-1.1104,-1.1111,-1.1172,-1.1118,-1.1022,-1.1043,-3.0928,-3.0928,-3.0928,-3.0957,-3.1074,-3.1387,-3.1562,-3.1719,-3.2226,-3.2637,-3.291,-3.2969,-3.3125,-3.3328,-3.3367,-3.3386,-3.3386,-3.3386,-3.3386,-3.3386,-3.3386,-3.3386,-3.3386,-3.3386,-3.3386,-3.3386,-3.3386,-3.3386,-3.3386,-3.3386,-3.3386,-3.3386,-3.3386,-3.3386,-3.3386,-3.3386,-3.3386,-3.3386,-3.3386,-3.3386,-3.3386,-3.3386,-3.3367,-3.3367,-3.3211,-3.3191,-3.3105,-3.2871,-3.2715,-3.2547,-3.1902,-3.0886,-2.9478,-2.7929,-2.651,-2.5156,-2.3883,-2.2941,-2.2195,-2.1597,-2.1279,-2.1162,-2.1149,-2.1122,-2.1109,-2.1109,-2.1109,-2.1109,-2.1109,-2.1109,-2.1109,-2.1109,-2.1109,-2.1109,-2.1136,-2.1136,-2.1136,-2.1136,-2.1136,-2.1122,-2.1122,-2.1109,-2.1109,-2.1109,-2.1109,-2.1109,-2.1109,-2.1109,-2.1091,-2.1096,-2.1149,-2.1149,-2.1064,-2.1064,-2.1046,-2.0919,-2.0539,-2.0055,-1.9301,-1.8164,-1.6936,-1.5383,-1.3854,-1.2809,-1.192,-1.1592,-1.1324,-1.1193,-1.1193,-1.1254,-1.1274,-1.128,-1.1321,-1.128,-1.1294,-3.0928,-3.0928,-3.0928,-3.0928,-3.0967,-3.1152,-3.123,-3.1289,-3.1534,-3.1866,-3.2285,-3.2617,-3.293,-3.3203,-3.3289,-3.3386,-3.3386,-3.3386,-3.3386,-3.3386,-3.3386,-3.3386,-3.3386,-3.3386,-3.3386,-3.3386,-3.3386,-3.3386,-3.3386,-3.3386,-3.3386,-3.3386,-3.3386,-3.3386,-3.3386,-3.3386,-3.3386,-3.3386,-3.3386,-3.3386,-3.3386,-3.3386,-3.3386,-3.3386,-3.3386,-3.3386,-3.3328,-3.3152,-3.3,-3.2532,-3.1789,-3.0593,-2.9239,-2.7834,-2.6502,-2.5213,-2.4018,-2.2982,-2.236,-2.1842,-2.1456,-2.1443,-2.1483,-2.155,-2.1563,-2.1563,-2.1336,-2.1309,-2.1136,-2.1109,-2.1109,-2.1109,-2.1109,-2.1109,-2.1283,-2.1435,-2.1462,-2.1489,-2.1448,-2.1381,-2.1269,-2.1109,-2.1109,-2.1109,-2.1109,-2.1109,-2.1109,-2.1149,-2.1162,-2.1269,-2.1296,-2.1283,-2.1269,-2.1131,-2.1077,-2.0951,-2.0761,-2.0246,-1.9752,-1.8459,-1.7092,-1.5476,-1.4002,-1.2983,-1.2232,-1.1852,-1.1615,-1.1385,-1.1383,-1.143,-1.1423,-1.1416,-1.1457,-1.1491,-1.1497,-3.0928,-3.0928,-3.0928,-3.0928,-3.0928,-3.0928,-3.0947,-3.0947,-3.0947,-3.1113,-3.1543,-3.2266,-3.2617,-3.293,-3.3144,-3.3301,-3.3367,-3.3386,-3.3386,-3.3386,-3.3386,-3.3386,-3.3386,-3.3386,-3.3386,-3.3386,-3.3386,-3.3386,-3.3386,-3.3386,-3.3386,-3.3386,-3.3386,-3.3386,-3.3386,-3.3386,-3.3386,-3.3386,-3.3386,-3.3386,-3.3386,-3.3386,-3.3386,-3.3386,-3.3386,-3.3386,-3.3386,-3.3292,-3.3165,-3.246,-3.1537,-3.0171,-2.896,-2.7663,-2.6375,-2.51,-2.4032,-2.3191,-2.2566,-2.2133,-2.1963,-2.197,-2.2024,-2.1991,-2.1977,-2.1857,-2.163,-2.1496,-2.1323,-2.1243,-2.1243,-2.1243,-2.1243,-2.1269,-2.151,-2.1716,-2.1756,-2.1783,-2.1716,-2.1636,-2.1489,-2.1256,-2.1229,-2.1216,-2.1216,-2.1203,-2.1203,-2.1216,-2.1283,-2.1483,-2.1603,-2.1563,-2.1523,-2.139,-2.1283,-2.1187,-2.1093,-2.058,-1.9972,-1.8659,-1.7299,-1.5725,-1.4353,-1.3247,-1.2594,-1.2163,-1.1797,-1.1506,-1.1545,-1.1586,-1.1552,-1.1525,-1.1577,-1.1611,-1.1674,-3.0928,-3.0928,-3.0928,-3.0928,-3.0928,-3.0928,-3.0928,-3.0928,-3.0928,-3.0957,-3.1152,-3.1513,-3.209,-3.2793,-3.2851,-3.3066,-3.3386,-3.3386,-3.3386,-3.3386,-3.3386,-3.3386,-3.3386,-3.3386,-3.3386,-3.3386,-3.3386,-3.3386,-3.3425,-3.3406,-3.3406,-3.3445,-3.3445,-3.3445,-3.3425,-3.3425,-3.3464,-3.3464,-3.3425,-3.3406,-3.3425,-3.3425,-3.3386,-3.3386,-3.3386,-3.3386,-3.3323,-3.3133,-3.2975,-3.2428,-3.1272,-2.981,-2.8504,-2.7327,-2.605,-2.494,-2.3904,-2.3275,-2.2689,-2.2337,-2.2184,-2.2158,-2.2158,-2.2111,-2.2098,-2.2084,-2.1937,-2.1937,-2.1817,-2.1777,-2.1764,-2.1737,-2.1724,-2.1764,-2.1911,-2.1984,-2.2024,-2.1997,-2.1957,-2.1917,-2.1863,-2.1737,-2.171,-2.171,-2.1697,-2.1697,-2.1683,-2.1683,-2.167,-2.179,-2.1957,-2.1884,-2.183,-2.1844,-2.1817,-2.1724,-2.1522,-2.0985,-2.0203,-1.8923,-1.7588,-1.6127,-1.4806,-1.3704,-1.2922,-1.2422,-1.2051,-1.1671,-1.1626,-1.1604,-1.1619,-1.159,-1.1692,-1.1766,-1.1823]},{"header":{"parameterUnit":"m.s-1","parameterCategory":1,"la1":31.0,"la2":29.5877,"lo1":-88.7671,"lo2":-86.6584,"dy":0.0162,"dx":0.0185,"nx":115,"ny":88,"refTime":"2023-10-24T18:00:00:Z","depth":0,"parameterNumber":3,"parameterNumberName":"V-component_of_WINDS"},"data":[0.0,0.0,0.0,0.0,0.0,0.0,0.0,0.0,0.0,0.0,0.0,0.0,0.0,0.0,0.0,0.0,0.0,0.0,0.0,0.0,0.0,0.0,0.0,0.0,0.0,0.0,0.0,0.0,0.0,0.0,0.0,0.0,0.0,0.0,0.0,0.0,0.0,0.0,0.0,0.0,0.0,0.0,0.0,0.0,0.0,0.0,0.0,0.0,0.0,0.0,0.0,0.0,0.0,0.0,0.0,0.0,0.0,0.0,0.0,0.0,0.0,0.0,0.0,0.0,0.0,0.0,0.0,0.0,0.0,0.0,0.0,0.0,0.0,0.0,0.0,0.0,0.0,0.0,0.0,0.0,0.0,0.0,0.0,0.0,0.0,0.0,0.0,0.0,0.0,0.0,0.0,0.0,0.0,0.0,0.0,0.0,0.0,0.0,0.0,0.0,0.0,0.0,0.0,0.0,0.0,0.0,0.0,0.0,0.0,0.0,0.0,0.0,0.0,0.0,0.0,0.0,0.0,0.0,0.0,0.0,0.0,0.0,0.0,0.0,0.0,0.0,0.0,0.0,0.0,0.0,0.0,0.0,0.0,0.0,0.0,0.0,0.0,0.0,0.0,0.0,0.0,0.0,0.0,0.0,0.0,0.0,0.0,0.0,0.0,0.0,0.0,0.0,0.0,0.0,0.0,0.0,0.0,0.0,0.0,0.0,0.0,0.0,0.0,0.0,0.0,0.0,0.0,0.0,0.0,0.0,0.0,0.0,0.0,0.0,0.0,0.0,0.0,0.0,0.0,0.0,0.0,0.0,0.0,0.0,0.0,0.0,0.0,0.0,0.0,0.0,0.0,0.0,0.0,0.0,0.0,0.0,0.0,0.0,0.0,0.0,0.0,0.0,0.0,0.0,0.0,0.0,0.0,0.0,0.0,0.0,0.0,0.0,0.0,0.0,0.0,0.0,0.0,0.0,0.0,0.0,0.0,0.0,0.0,0.0,0.0,0.0,0.0,0.0,0.0,0.0,0.0,0.0,0.0,0.0,0.0,0.0,0.0,0.0,0.0,0.0,0.0,0.0,0.0,0.0,0.0,0.0,0.0,0.0,0.0,0.0,0.0,0.0,0.0,0.0,0.0,0.0,0.0,0.0,0.0,0.0,0.0,0.0,0.0,0.0,0.0,0.0,0.0,0.0,0.0,0.0,0.0,0.0,0.0,0.0,0.0,0.0,0.0,0.0,0.0,0.0,0.0,0.0,0.0,0.0,0.0,0.0,0.0,0.0,0.0,0.0,0.0,0.0,0.0,0.0,0.0,0.0,0.0,0.0,0.0,0.0,0.0,0.0,0.0,0.0,0.0,0.0,0.0,0.0,0.0,0.0,0.0,0.0,0.0,0.0,0.0,0.0,0.0,0.0,0.0,0.0,0.0,0.0,0.0,0.0,0.0,0.0,0.0,0.0,0.0,0.0,0.0,0.0,0.0,0.0,0.0,0.0,0.0,0.0,0.0,0.0,0.0,0.0,0.0,0.0,0.0,0.0,0.0,0.0,0.0,0.0,0.0,0.0,0.0,0.0,0.0,0.0,0.0,0.0,0.0,0.0,0.0,0.0,0.0,0.0,0.0,0.0,0.0,0.0,0.0,0.0,0.0,0.0,0.0,0.0,0.0,0.0,0.0,0.0,0.0,0.0,0.0,0.0,0.0,0.0,0.0,0.0,0.0,0.0,0.0,0.0,0.0,0.0,0.0,0.0,0.0,0.0,0.0,0.0,0.0,0.0,0.0,0.0,0.0,0.0,0.0,0.0,0.0,0.0,0.0,0.0,0.0,0.0,0.0,0.0,0.0,0.0,0.0,0.0,0.0,0.0,0.0,0.0,0.0,0.0,0.0,0.0,0.0,0.0,0.0,0.0,0.0,0.0,0.0,0.0,0.0,0.0,0.0,0.0,0.0,0.0,0.0,0.0,0.0,0.0,0.0,0.0,0.0,0.0,0.0,0.0,0.0,0.0,0.0,0.0,0.0,0.0,0.0,0.0,0.0,0.0,0.0,0.0,0.0,0.0,0.0,0.0,0.0,0.0,0.0,0.0,0.0,0.0,0.0,0.0,0.0,0.0,0.0,0.0,0.0,0.0,0.0,0.0,0.0,0.0,0.0,0.0,0.0,0.0,0.0,0.0,0.0,0.0,0.0,0.0,0.0,0.0,0.0,0.0,0.0,0.0,0.0,0.0,0.0,0.0,0.0,0.0,0.0,0.0,0.0,0.0,0.0,0.0,0.0,0.0,0.0,0.0,0.0,0.0,0.0,0.0,0.0,0.0,0.0,0.0,0.0,0.0,0.0,0.0,0.0,0.0,0.0,0.0,0.0,0.0,0.0,0.0,0.0,0.0,0.0,0.0,0.0,0.0,0.0,0.0,0.0,0.0,0.0,0.0,0.0,0.0,0.0,0.0,0.0,0.0,0.0,0.0,0.0,0.0,0.0,0.0,0.0,0.0,0.0,0.0,0.0,0.0,0.0,0.0,0.0,0.0,0.0,0.0,0.0,0.0,0.0,0.0,0.0,0.0,0.0,0.0,0.0,0.0,0.0,0.0,0.0,0.0,0.0,0.0,0.0,0.0,0.0,0.0,0.0,0.0,0.0,0.0,0.0,0.0,0.0,0.0,0.0,0.0,0.0,0.0,0.0,0.0,0.0,0.0,0.0,0.0,0.0,0.0,0.0,0.0,0.0,0.0,0.0,0.0,0.0,0.0,0.0,0.0,0.0,0.0,0.0,0.0,0.0,0.0,0.0,0.0,0.0,0.0,0.0,0.0,0.0,0.0,0.0,0.0,0.0,0.0,0.0,0.0,0.0,0.0,0.0,0.0,0.0,0.0,0.0,0.0,0.0,0.0,0.0,0.0,0.0,0.0,0.0,0.0,0.0,0.0,0.0,0.0,0.0,0.0,0.0,0.0,0.0,0.0,0.0,0.0,0.0,0.0,0.0,0.0,0.0,0.0,0.0,0.0,0.0,0.0,0.0,0.0,0.0,0.0,0.0,0.0,0.0,0.0,0.0,0.0,0.0,0.0,0.0,0.0,0.0,0.0,0.0,0.0,0.0,0.0,0.0,0.0,0.0,0.0,0.0,0.0,0.0,0.0,0.0,0.0,0.0,0.0,0.0,0.0,0.0,0.0,0.0,0.0,0.0,0.0,0.0,0.0,0.0,0.0,0.0,0.0,0.0,0.0,0.0,0.0,0.0,0.0,0.0,0.0,0.0,0.0,0.0,0.0,0.0,0.0,0.0,0.0,0.0,0.0,0.0,0.0,0.0,0.0,0.0,0.0,0.0,0.0,0.0,0.0,0.0,0.0,0.0,0.0,0.0,0.0,0.0,0.0,0.0,0.0,0.0,0.0,0.0,0.0,0.0,0.0,0.0,0.0,0.0,0.0,0.0,0.0,0.0,0.0,0.0,0.0,0.0,0.0,0.0,0.0,0.0,0.0,0.0,0.0,0.0,0.0,0.0,0.0,0.0,0.0,0.0,0.0,0.0,0.0,0.0,0.0,0.0,0.0,0.0,0.0,0.0,0.0,0.0,0.0,0.0,0.0,0.0,0.0,0.0,0.0,0.0,0.0,0.0,0.0,0.0,0.0,0.0,0.0,0.0,0.0,0.0,0.0,0.0,0.0,0.0,0.0,0.0,0.0,0.0,0.0,0.0,0.0,0.0,0.0,0.0,0.0,0.0,0.0,0.0,0.0,0.0,0.0,0.0,0.0,0.0,0.0,0.0,0.0,0.0,0.0,0.0,0.0,0.0,0.0,0.0,0.0,0.0,0.0,0.0,0.0,0.0,0.0,0.0,0.0,0.0,0.0,0.0,0.0,0.0,0.0,0.0,0.0,0.0,0.0,0.0,0.0,0.0,0.0,0.0,0.0,0.0,0.0,0.0,0.0,0.0,0.0,0.0,0.0,0.0,0.0,0.0,0.0,0.0,0.0,0.0,0.0,0.0,0.0,0.0,0.0,0.0,0.0,0.0,0.0,0.0,0.0,0.0,0.0,0.0,0.0,0.0,0.0,0.0,0.0,0.0,0.0,0.0,0.0,0.0,0.0,0.0,0.0,0.0,0.0,0.0,0.0,0.0,0.0,0.0,0.0,0.0,0.0,0.0,0.0,0.0,0.0,0.0,0.0,0.0,0.0,0.0,0.0,0.0,0.0,0.0,0.0,0.0,0.0,0.0,0.0,0.0,0.0,0.0,0.0,0.0,0.0,0.0,0.0,0.0,0.0,0.0,0.0,1.6564,0.0,0.0,0.0,0.0,0.0,0.0,0.0,0.0,0.0,0.0,0.0,0.0,0.0,0.0,0.0,0.0,0.0,0.0,0.0,0.0,0.0,0.0,0.0,0.0,0.0,0.0,0.0,0.0,0.0,0.0,0.0,0.0,0.0,0.0,0.0,0.0,0.0,0.0,0.0,0.0,0.0,0.0,0.0,0.0,0.0,0.0,0.0,0.0,0.0,0.0,0.0,0.0,0.0,0.0,0.0,0.0,0.0,0.0,0.0,0.0,0.0,0.0,0.0,0.0,0.0,0.0,0.0,0.0,0.0,0.0,0.0,0.0,0.0,0.0,0.0,0.0,0.0,0.0,0.0,0.0,0.0,0.0,0.0,0.0,0.0,0.0,0.0,0.0,0.0,0.0,0.0,0.0,0.0,0.0,0.0,0.0,0.0,0.0,0.0,0.0,0.0,0.0,0.0,0.0,0.0,0.0,0.0,0.0,0.0,0.0,1.5248,1.5278,1.5692,1.6314,1.7222,0.0,0.0,0.0,0.0,0.0,0.0,0.0,0.0,0.0,0.0,0.0,0.0,0.0,0.0,0.0,0.0,0.0,0.0,0.0,0.0,0.0,0.0,0.0,0.0,0.0,0.0,0.0,0.0,0.0,0.0,0.0,0.0,0.0,0.0,0.0,0.0,0.0,0.0,0.0,0.0,0.0,0.0,0.0,0.0,0.0,0.0,0.0,0.0,0.0,0.0,0.0,0.0,0.0,0.0,0.0,0.0,0.0,0.0,0.0,0.0,0.0,0.0,0.0,0.0,0.0,0.0,0.0,0.0,0.0,0.0,0.0,0.0,0.0,0.0,0.0,0.0,0.0,0.0,0.0,0.0,0.0,0.0,0.0,0.0,0.0,0.0,0.0,0.0,0.0,0.0,0.0,0.0,0.0,0.0,0.0,0.0,0.0,0.0,0.0,0.0,0.0,0.0,0.0,0.0,0.0,0.0,0.0,0.0,0.0,0.0,0.0,0.0,1.6137,1.6986,1.8077,0.0,0.0,0.0,0.0,0.0,0.0,0.0,0.0,0.0,0.0,0.0,0.0,0.0,0.0,0.0,0.0,0.0,0.0,0.0,0.0,0.0,0.0,0.0,0.0,0.0,0.0,0.0,0.0,0.0,0.0,0.0,0.0,0.0,0.0,0.0,0.0,0.0,0.0,0.0,0.0,0.0,0.0,0.0,0.0,0.0,0.0,0.0,0.0,0.0,0.0,0.0,0.0,0.0,0.0,0.0,0.0,0.0,0.0,0.0,0.0,0.0,0.0,0.0,0.0,0.0,0.0,0.0,0.0,0.0,0.0,0.0,0.0,0.0,0.0,0.0,0.0,0.0,0.0,0.0,0.0,0.0,0.0,0.0,0.0,0.0,0.0,0.0,0.0,0.0,0.0,0.0,0.0,0.0,0.0,0.0,0.0,0.0,0.0,0.0,0.0,0.0,0.0,0.0,0.0,0.0,0.0,0.0,0.0,0.0,0.0,1.5583,1.6356,1.6469,0.0,1.8799,0.0,0.0,0.0,0.0,0.0,0.0,0.0,0.0,0.0,0.0,0.0,0.0,0.0,0.0,0.0,0.0,0.0,0.0,0.0,0.0,0.0,0.0,0.0,0.0,0.0,0.0,0.0,0.0,0.0,0.0,0.0,0.0,0.0,0.0,0.0,0.0,0.0,0.0,0.0,0.0,0.0,0.0,0.0,0.0,0.0,0.0,0.0,0.0,0.0,0.0,0.0,0.0,0.0,0.0,0.0,0.0,0.0,0.0,0.0,0.0,0.0,0.0,0.0,0.0,0.0,0.0,0.0,0.0,0.0,0.0,0.0,0.0,0.0,0.0,0.0,0.0,0.0,0.0,0.0,0.0,0.0,0.0,0.0,0.0,0.0,0.0,0.0,0.0,0.0,0.0,0.0,0.0,0.0,0.0,0.0,0.0,0.0,0.0,0.0,0.0,0.0,0.0,0.0,0.0,0.0,0.0,0.0,0.0,0.0,0.0,1.6118,1.6505,1.7468,1.8547,0.0,0.0,0.0,0.0,0.0,0.0,0.0,0.0,0.0,0.0,0.0,0.0,0.0,0.0,0.0,0.0,0.0,0.0,0.0,0.0,0.0,0.0,0.0,0.0,0.0,0.0,0.0,0.0,0.0,0.0,0.0,0.0,0.0,0.0,0.0,0.0,0.0,0.0,0.0,0.0,0.0,0.0,0.0,0.0,0.0,0.0,0.0,0.0,0.0,0.0,0.0,0.0,0.0,0.0,0.0,0.0,0.0,0.0,0.0,0.0,0.0,0.0,0.0,0.0,0.0,0.0,0.0,0.0,0.0,0.0,0.0,0.0,0.0,0.0,0.0,0.0,0.0,0.0,0.0,0.0,0.0,0.0,0.0,0.0,0.0,0.0,0.0,0.0,0.0,0.0,0.0,0.0,0.0,0.0,0.0,0.0,0.0,0.0,0.0,0.0,0.0,0.0,0.0,0.0,0.0,0.0,0.0,0.0,0.0,0.0,1.6194,1.6699,1.7239,1.8623,1.9661,2.0269,0.0,0.0,0.0,0.0,0.0,0.0,0.0,0.0,0.0,0.0,0.0,0.0,0.0,0.0,0.0,0.0,0.0,0.0,0.0,0.0,0.0,0.0,0.0,0.0,0.0,0.0,0.0,0.0,0.0,0.0,0.0,0.0,0.0,0.0,0.0,0.0,0.0,0.0,0.0,0.0,0.0,0.0,0.0,0.0,0.0,0.0,0.0,0.0,0.0,0.0,0.0,0.0,0.0,0.0,0.0,0.0,0.0,0.0,0.0,0.0,0.0,0.0,0.0,0.0,0.0,0.0,0.0,0.0,0.0,0.0,0.0,0.0,0.0,0.0,0.0,0.0,0.0,0.0,0.0,0.0,0.0,0.0,0.0,0.0,0.0,0.0,0.0,0.0,0.0,0.0,0.0,0.0,0.0,0.0,0.0,0.0,0.0,0.0,0.0,0.0,0.0,0.0,0.0,0.0,0.0,0.0,0.0,0.0,1.6389,1.6505,1.7279,1.8822,1.9775,2.0269,0.0,0.0,0.0,0.0,0.0,0.0,0.0,0.0,0.0,0.0,0.0,0.0,0.0,0.0,0.0,0.0,0.0,0.0,0.0,0.0,0.0,0.0,0.0,0.0,0.0,0.0,0.0,0.0,0.0,0.0,0.0,0.0,0.0,0.0,0.0,0.0,0.0,0.0,0.0,0.0,0.0,0.0,0.0,0.0,0.0,0.0,0.0,0.0,0.0,0.0,0.0,0.0,0.0,0.0,0.0,0.0,0.0,0.0,0.0,0.0,0.0,0.0,0.0,0.0,0.0,0.0,0.0,0.0,0.0,0.0,0.0,0.0,0.0,0.0,0.0,0.0,0.0,0.0,0.0,0.0,0.0,0.0,0.0,0.0,0.0,0.0,0.0,0.0,0.0,0.0,0.0,0.0,0.0,0.0,0.0,0.0,0.0,0.0,0.0,0.0,0.0,0.0,0.0,0.0,0.0,0.0,0.0,0.0,0.0,1.6489,1.7575,1.8692,1.9797,2.0138,2.0285,0.0,0.0,0.0,0.0,0.0,0.0,0.0,0.0,0.0,0.0,0.0,0.0,0.0,0.0,0.0,0.0,0.0,0.0,0.0,0.0,0.0,0.0,0.0,0.0,0.0,0.0,0.0,0.0,0.0,0.0,0.0,0.0,0.0,0.0,0.0,0.0,0.0,0.0,0.0,0.0,0.0,0.0,0.0,0.0,0.0,0.0,0.0,0.0,0.0,0.0,0.0,0.0,0.0,0.0,0.0,0.0,0.0,0.0,0.0,0.0,0.0,0.0,0.0,0.0,0.0,0.0,0.0,0.0,0.0,0.0,0.0,0.0,0.0,0.0,0.0,0.0,0.0,0.0,0.0,0.0,0.0,0.0,0.0,0.0,0.0,0.0,0.0,0.0,0.0,0.0,0.0,0.0,0.0,0.0,0.0,0.0,0.0,0.0,0.0,0.0,0.0,0.0,0.0,0.0,0.0,0.0,0.0,0.0,0.0,1.7316,0.0,1.9745,2.0267,2.0305,2.0294,0.0,0.0,0.0,0.0,0.0,0.0,0.0,0.0,0.0,0.0,0.0,0.0,0.0,0.0,0.0,0.0,0.0,0.0,0.0,0.0,0.0,0.0,0.0,0.0,0.0,0.0,0.0,0.0,0.0,0.0,0.0,0.0,0.0,0.0,0.0,0.0,0.0,0.0,0.0,0.0,0.0,0.0,0.0,0.0,0.0,0.0,0.0,0.0,0.0,0.0,0.0,0.0,0.0,0.0,0.0,0.0,0.0,0.0,0.0,0.0,0.0,0.0,0.0,0.0,0.0,0.0,0.0,0.0,0.0,0.0,0.0,0.0,0.0,0.0,0.0,0.0,0.0,0.0,0.0,0.0,0.0,0.0,0.0,0.0,0.0,0.0,0.0,0.0,0.0,0.0,0.0,0.0,0.0,0.0,0.0,0.0,0.0,0.0,0.0,0.0,0.0,0.0,0.0,0.0,0.0,0.0,0.0,0.0,1.7434,1.9026,1.9876,2.0369,2.0346,2.0384,2.0373,0.0,0.0,0.0,0.0,0.0,0.0,0.0,0.0,0.0,0.0,0.0,0.0,0.0,0.0,0.0,0.0,0.0,0.0,0.0,0.0,0.0,0.0,0.0,0.0,0.0,0.0,0.0,0.0,0.0,0.0,0.0,0.0,0.0,0.0,0.0,0.0,0.0,0.0,0.0,0.0,0.0,0.0,0.0,0.0,0.0,0.0,0.0,0.0,0.0,0.0,0.0,0.0,0.0,0.0,0.0,0.0,0.0,0.0,0.0,0.0,0.0,0.0,0.0,0.0,0.0,0.0,0.0,0.0,0.0,0.0,0.0,0.0,0.0,0.0,0.0,0.0,0.0,0.0,0.0,0.0,0.0,0.0,0.0,0.0,0.0,0.0,0.0,0.0,0.0,0.0,0.0,0.0,0.0,0.0,0.0,0.0,0.0,0.0,0.0,0.0,0.0,0.0,0.0,0.0,0.0,0.0,0.0,0.0,0.0,2.0021,2.0837,2.1519,2.2067,2.2091,2.2069,0.0,0.0,0.0,0.0,0.0,0.0,0.0,0.0,0.0,0.0,0.0,0.0,0.0,0.0,0.0,0.0,0.0,0.0,0.0,0.0,0.0,0.0,0.0,0.0,0.0,0.0,0.0,0.0,0.0,0.0,0.0,0.0,0.0,0.0,0.0,0.0,0.0,0.0,0.0,0.0,0.0,0.0,0.0,0.0,0.0,0.0,0.0,0.0,0.0,0.0,0.0,0.0,0.0,0.0,0.0,0.0,0.0,0.0,0.0,0.0,0.0,0.0,0.0,0.0,0.0,0.0,0.0,0.0,0.0,0.0,0.0,0.0,0.0,0.0,0.0,0.0,0.0,0.0,0.0,0.0,0.0,0.0,0.0,0.0,0.0,0.0,0.0,0.0,0.0,0.0,0.0,0.0,0.0,0.0,0.0,0.0,0.0,0.0,0.0,0.0,0.0,0.0,0.0,0.0,0.0,0.0,0.0,0.0,0.0,2.2342,2.2554,2.3032,2.385,2.3557,2.3367,2.3274,0.0,0.0,0.0,0.0,0.0,0.0,0.0,0.0,0.0,0.0,0.0,0.0,0.0,0.0,0.0,0.0,0.0,0.0,0.0,0.0,0.0,0.0,0.0,0.0,0.0,0.0,0.0,0.0,0.0,0.0,0.0,0.0,0.0,0.0,0.0,0.0,0.0,0.0,0.0,0.0,0.0,0.0,0.0,0.0,0.0,0.0,0.0,0.0,0.0,0.0,0.0,0.0,0.0,0.0,0.0,0.0,0.0,0.0,0.0,0.0,0.0,0.0,0.0,0.0,0.0,0.0,0.0,0.0,0.0,0.0,0.0,0.0,0.0,0.0,0.0,0.0,0.0,0.0,0.0,0.0,0.0,0.0,0.0,0.0,0.0,0.0,0.0,0.0,0.0,0.0,0.0,0.0,0.0,0.0,0.0,0.0,0.0,0.0,0.0,0.0,0.0,0.0,0.0,0.0,0.0,0.0,0.0,0.0,2.5863,2.5118,2.5077,2.5586,2.4904,2.4397,0.0,0.0,0.0,0.0,0.0,0.0,0.0,0.0,0.0,0.0,0.0,0.0,0.0,0.0,0.0,0.0,0.0,0.0,0.0,0.0,0.0,0.0,0.0,0.0,0.0,0.0,0.0,0.0,0.0,0.0,0.0,0.0,0.0,0.0,0.0,0.0,0.0,0.0,0.0,0.0,0.0,0.0,0.0,0.0,0.0,0.0,0.0,0.0,0.0,0.0,0.0,0.0,0.0,0.0,0.0,0.0,0.0,0.0,0.0,0.0,0.0,0.0,0.0,0.0,0.0,0.0,0.0,0.0,0.0,0.0,0.0,0.0,0.0,0.0,0.0,0.0,0.0,0.0,0.0,0.0,0.0,0.0,0.0,0.0,0.0,0.0,0.0,0.0,0.0,0.0,0.0,0.0,0.0,0.0,0.0,0.0,0.0,0.0,0.0,0.0,0.0,0.0,0.0,0.0,0.0,0.0,0.0,0.0,0.0,2.9337,2.9862,2.9199,2.7498,2.7815,2.742,0.0,0.0,0.0,0.0,0.0,0.0,0.0,0.0,0.0,0.0,0.0,0.0,0.0,0.0,0.0,0.0,0.0,0.0,0.0,0.0,0.0,0.0,0.0,0.0,0.0,0.0,0.0,0.0,0.0,0.0,0.0,0.0,0.0,0.0,0.0,0.0,0.0,0.0,0.0,0.0,0.0,0.0,0.0,0.0,0.0,0.0,0.0,0.0,0.0,0.0,0.0,0.0,0.0,0.0,0.0,0.0,0.0,0.0,0.0,0.0,0.0,0.0,0.0,0.0,0.0,0.0,0.0,0.0,0.0,0.0,0.0,0.0,0.0,0.0,0.0,0.0,0.0,0.0,0.0,0.0,0.0,0.0,0.0,0.0,0.0,0.0,0.0,0.0,0.0,0.0,0.0,0.0,0.0,0.0,0.0,0.0,0.0,0.0,0.0,0.0,0.0,0.0,0.0,0.0,0.0,0.0,0.0,0.0,2.8776,3.131,3.2937,3.2796,3.0876,3.0268,2.9464,0.0,0.0,0.0,0.0,0.0,0.0,0.0,0.0,0.0,0.0,0.0,0.0,0.0,0.0,0.0,0.0,0.0,0.0,0.0,0.0,0.0,0.0,0.0,0.0,0.0,0.0,0.0,0.0,0.0,0.0,0.0,0.0,0.0,0.0,0.0,0.0,0.0,0.0,0.0,0.0,0.0,0.0,0.0,0.0,0.0,0.0,0.0,0.0,0.0,0.0,0.0,0.0,0.0,0.0,0.0,0.0,0.0,0.0,0.0,0.0,0.0,0.0,0.0,0.0,0.0,0.0,0.0,0.0,0.0,0.0,0.0,0.0,0.0,0.0,0.0,0.0,0.0,0.0,0.0,0.0,0.0,0.0,0.0,0.0,0.0,0.0,0.0,0.0,0.0,0.0,0.0,0.0,0.0,0.0,0.0,0.0,0.0,0.0,0.0,0.0,0.0,0.0,0.0,0.0,0.0,0.0,0.0,0.0,2.9801,3.2335,3.4827,3.575,3.4866,3.2529,3.1041,0.0,0.0,0.0,0.0,0.0,0.0,0.0,0.0,0.0,0.0,0.0,0.0,0.0,0.0,0.0,0.0,0.0,0.0,0.0,0.0,0.0,0.0,0.0,0.0,0.0,0.0,0.0,0.0,0.0,0.0,0.0,0.0,0.0,0.0,0.0,0.0,0.0,0.0,0.0,0.0,0.0,0.0,0.0,0.0,0.0,0.0,0.0,0.0,0.0,0.0,0.0,0.0,0.0,0.0,0.0,0.0,0.0,0.0,0.0,0.0,0.0,0.0,0.0,0.0,0.0,0.0,0.0,0.0,0.0,0.0,0.0,0.0,0.0,0.0,0.0,0.0,0.0,0.0,0.0,0.0,0.0,0.0,0.0,0.0,0.0,0.0,0.0,0.0,0.0,0.0,0.0,0.0,0.0,0.0,0.0,0.0,0.0,0.0,0.0,0.0,0.0,0.0,0.0,0.0,0.0,0.0,0.0,0.0,3.16,3.4099,3.6045,3.689,3.663,3.5445,3.3473,0.0,0.0,0.0,0.0,0.0,0.0,0.0,0.0,0.0,0.0,0.0,0.0,0.0,0.0,0.0,0.0,0.0,0.0,0.0,0.0,0.0,0.0,0.0,0.0,0.0,0.0,0.0,0.0,0.0,0.0,0.0,0.0,0.0,0.0,0.0,0.0,0.0,0.0,0.0,0.0,0.0,0.0,0.0,0.0,0.0,0.0,0.0,0.0,2.1282,0.0,0.0,0.0,0.0,0.0,0.0,0.0,0.0,0.0,0.0,0.0,0.0,0.0,0.0,0.0,0.0,0.0,0.0,0.0,0.0,0.0,0.0,0.0,0.0,0.0,0.0,0.0,0.0,0.0,0.0,0.0,0.0,0.0,0.0,0.0,0.0,0.0,0.0,0.0,0.0,0.0,0.0,0.0,0.0,0.0,0.0,0.0,0.0,0.0,0.0,0.0,0.0,0.0,0.0,0.0,0.0,0.0,0.0,0.0,3.2734,3.5234,3.7026,3.7875,3.7777,3.6956,3.5024,0.0,0.0,0.0,0.0,0.0,0.0,0.0,0.0,0.0,0.0,0.0,0.0,0.0,0.0,0.0,0.0,0.0,0.0,0.0,0.0,0.0,0.0,0.0,0.0,0.0,0.0,0.0,0.0,0.0,0.0,0.0,0.0,0.0,0.0,0.0,0.0,0.0,0.0,0.0,0.0,0.0,0.0,0.0,0.0,0.0,0.0,0.0,0.0,0.0,0.0,0.0,0.0,0.0,0.0,0.0,0.0,0.0,0.0,0.0,0.0,0.0,0.0,0.0,0.0,0.0,0.0,0.0,0.0,0.0,0.0,0.0,0.0,0.0,0.0,0.0,0.0,0.0,0.0,0.0,0.0,0.0,0.0,0.0,0.0,0.0,0.0,0.0,0.0,0.0,0.0,0.0,0.0,0.0,0.0,0.0,0.0,0.0,0.0,0.0,0.0,0.0,0.0,0.0,0.0,0.0,0.0,0.0,3.0508,3.3437,3.5937,3.7576,3.8428,3.8496,3.7525,3.5831,3.3289,0.0,0.0,0.0,0.0,0.0,0.0,0.0,0.0,0.0,0.0,0.0,0.0,0.0,0.0,0.0,0.0,0.0,0.0,0.0,0.0,0.0,0.0,0.0,0.0,0.0,0.0,0.0,0.0,0.0,0.0,0.0,0.0,0.0,0.0,0.0,0.0,0.0,0.0,1.9641,2.1122,0.0,0.0,0.0,0.0,0.0,0.0,0.0,0.0,2.2446,0.0,0.0,0.0,0.0,0.0,0.0,0.0,0.0,0.0,0.0,0.0,0.0,0.0,0.0,0.0,0.0,0.0,0.0,0.0,0.0,0.0,0.0,0.0,0.0,0.0,0.0,0.0,0.0,0.0,0.0,0.0,0.0,0.0,0.0,0.0,0.0,0.0,0.0,0.0,0.0,0.0,0.0,0.0,0.0,0.0,0.0,0.0,0.0,0.0,0.0,0.0,0.0,0.0,0.0,0.0,0.0,2.8086,3.0781,3.3437,3.5937,3.6991,3.7846,3.8503,3.6997,3.5203,3.331,0.0,0.0,0.0,0.0,0.0,0.0,0.0,0.0,0.0,0.0,0.0,0.0,0.0,0.0,0.0,0.0,0.0,0.0,0.0,0.0,0.0,0.0,0.0,0.0,0.0,0.0,0.0,0.0,0.0,0.0,0.0,0.0,0.0,0.0,0.0,0.0,0.0,0.0,0.0,2.2329,2.3231,0.0,0.0,0.0,0.0,0.0,0.0,0.0,0.0,2.3317,0.0,0.0,0.0,0.0,0.0,0.0,0.0,0.0,0.0,0.0,0.0,0.0,0.0,0.0,0.0,0.0,0.0,0.0,0.0,0.0,0.0,0.0,0.0,0.0,0.0,0.0,0.0,0.0,0.0,0.0,0.0,0.0,0.0,0.0,0.0,0.0,0.0,0.0,0.0,0.0,0.0,0.0,0.0,0.0,0.0,0.0,0.0,0.0,0.0,0.0,0.0,0.0,0.0,0.0,0.0,2.8397,3.1288,3.3632,3.5312,3.6601,3.7498,3.788,3.6181,3.4665,0.0,0.0,0.0,0.0,0.0,0.0,0.0,0.0,0.0,0.0,0.0,0.0,0.0,0.0,0.0,0.0,0.0,0.0,0.0,0.0,0.0,0.0,0.0,0.0,0.0,0.0,0.0,0.0,0.0,0.0,0.0,0.0,0.0,0.0,0.0,0.0,0.0,0.0,0.0,0.0,2.3958,2.484,2.5677,0.0,0.0,0.0,0.0,0.0,0.0,2.5815,2.5466,0.0,0.0,0.0,0.0,0.0,0.0,0.0,0.0,0.0,0.0,0.0,0.0,0.0,0.0,0.0,0.0,0.0,0.0,0.0,0.0,0.0,0.0,0.0,0.0,0.0,0.0,0.0,0.0,0.0,0.0,0.0,0.0,0.0,0.0,0.0,0.0,0.0,0.0,0.0,0.0,0.0,0.0,0.0,0.0,0.0,0.0,0.0,0.0,0.0,0.0,0.0,0.0,0.0,0.0,0.0,2.8392,3.1673,3.3823,3.4724,3.621,3.7031,3.7024,3.5369,3.3898,0.0,0.0,0.0,0.0,0.0,0.0,0.0,0.0,0.0,0.0,0.0,0.0,0.0,0.0,0.0,0.0,0.0,0.0,0.0,0.0,0.0,0.0,0.0,0.0,0.0,0.0,0.0,0.0,0.0,0.0,0.0,0.0,0.0,0.0,0.0,0.0,0.0,0.0,0.0,0.0,0.0,2.6405,2.7281,2.747,0.0,0.0,0.0,0.0,2.7949,2.7853,0.0,0.0,0.0,0.0,0.0,0.0,0.0,0.0,0.0,0.0,0.0,0.0,0.0,0.0,0.0,0.0,0.0,0.0,0.0,0.0,0.0,0.0,0.0,0.0,0.0,0.0,0.0,0.0,0.0,0.0,0.0,0.0,0.0,0.0,0.0,0.0,0.0,0.0,0.0,0.0,0.0,0.0,0.0,0.0,0.0,0.0,0.0,0.0,0.0,0.0,0.0,0.0,0.0,0.0,0.0,0.0,2.8422,3.1667,3.3817,3.4678,3.5661,3.6132,3.6133,3.4447,3.2753,0.0,0.0,0.0,0.0,0.0,0.0,0.0,0.0,0.0,0.0,0.0,0.0,0.0,0.0,0.0,0.0,0.0,0.0,0.0,0.0,0.0,0.0,0.0,0.0,0.0,0.0,0.0,0.0,0.0,0.0,0.0,0.0,0.0,0.0,0.0,0.0,0.0,0.0,0.0,0.0,0.0,2.7457,2.8307,2.8499,2.8812,0.0,0.0,2.9741,2.9864,2.9227,0.0,0.0,0.0,0.0,0.0,0.0,0.0,0.0,0.0,0.0,0.0,0.0,0.0,0.0,0.0,0.0,0.0,0.0,0.0,0.0,0.0,0.0,0.0,0.0,0.0,0.0,0.0,0.0,0.0,0.0,0.0,0.0,0.0,0.0,0.0,0.0,0.0,0.0,0.0,0.0,0.0,0.0,0.0,0.0,0.0,0.0,0.0,0.0,0.0,0.0,0.0,0.0,0.0,0.0,0.0,2.8471,2.9056,3.1915,3.3562,3.3958,3.4791,3.5267,3.5272,3.3593,3.2062,0.0,0.0,0.0,0.0,0.0,0.0,0.0,0.0,0.0,0.0,0.0,0.0,0.0,0.0,0.0,0.0,0.0,0.0,0.0,0.0,0.0,0.0,0.0,0.0,0.0,0.0,0.0,0.0,0.0,0.0,0.0,0.0,0.0,0.0,0.0,0.0,0.0,0.0,0.0,0.0,0.0,0.0,3.0017,3.0956,0.0,0.0,0.0,3.2863,3.2438,0.0,0.0,0.0,0.0,0.0,0.0,0.0,0.0,0.0,0.0,0.0,0.0,0.0,0.0,0.0,0.0,0.0,0.0,0.0,0.0,0.0,0.0,0.0,0.0,0.0,0.0,0.0,0.0,0.0,0.0,0.0,0.0,0.0,0.0,0.0,0.0,0.0,0.0,0.0,0.0,0.0,0.0,0.0,0.0,0.0,0.0,0.0,0.0,0.0,0.0,0.0,0.0,0.0,0.0,0.0,0.0,0.0,2.9517,3.2069,3.3369,3.3417,3.4417,3.4822,3.4363,3.3085,0.0,0.0,0.0,0.0,0.0,0.0,0.0,0.0,0.0,0.0,0.0,0.0,0.0,0.0,0.0,0.0,0.0,0.0,0.0,0.0,0.0,0.0,0.0,0.0,0.0,0.0,0.0,2.0269,0.0,0.0,0.0,0.0,0.0,0.0,0.0,0.0,0.0,0.0,0.0,0.0,0.0,0.0,3.0814,3.2099,3.3369,3.436,0.0,0.0,3.5722,3.5074,3.4667,3.3807,0.0,0.0,0.0,0.0,0.0,0.0,0.0,0.0,0.0,0.0,0.0,0.0,0.0,0.0,0.0,0.0,0.0,0.0,0.0,0.0,0.0,0.0,0.0,0.0,0.0,0.0,0.0,0.0,0.0,0.0,0.0,0.0,0.0,0.0,0.0,0.0,0.0,0.0,0.0,0.0,0.0,0.0,0.0,0.0,0.0,0.0,0.0,0.0,0.0,0.0,0.0,0.0,0.0,0.0,0.0,2.9455,3.1978,3.3316,3.3358,3.4971,3.507,3.355,3.3346,3.1794,0.0,0.0,0.0,0.0,0.0,0.0,0.0,0.0,0.0,0.0,0.0,0.0,0.0,0.0,0.0,0.0,0.0,0.0,0.0,0.0,0.0,0.0,0.0,0.0,0.0,0.0,0.0,0.0,0.0,0.0,0.0,0.0,0.0,0.0,0.0,0.0,0.0,0.0,0.0,0.0,0.0,3.2225,3.468,3.5143,3.5772,0.0,0.0,3.7717,3.7633,3.6327,3.5277,3.5162,0.0,0.0,0.0,0.0,0.0,0.0,0.0,0.0,0.0,0.0,0.0,0.0,0.0,0.0,0.0,0.0,0.0,0.0,0.0,0.0,0.0,0.0,0.0,0.0,0.0,0.0,0.0,0.0,0.0,0.0,0.0,0.0,0.0,0.0,0.0,0.0,0.0,0.0,0.0,0.0,0.0,0.0,0.0,0.0,0.0,0.0,0.0,0.0,0.0,0.0,0.0,0.0,0.0,2.8947,3.0855,3.2367,3.3447,3.3972,3.4701,3.45,3.338,3.2879,3.1496,0.0,0.0,0.0,0.0,0.0,0.0,0.0,0.0,0.0,0.0,0.0,0.0,0.0,0.0,0.0,0.0,0.0,0.0,0.0,0.0,0.0,0.0,0.0,0.0,0.0,0.0,0.0,0.0,2.1818,2.2098,2.2894,0.0,0.0,0.0,0.0,0.0,0.0,0.0,0.0,0.0,0.0,3.4304,3.5373,3.678,0.0,0.0,3.9237,3.9398,3.8908,3.7833,3.6719,3.5749,3.4053,0.0,0.0,0.0,0.0,0.0,0.0,0.0,0.0,0.0,0.0,0.0,0.0,0.0,0.0,0.0,0.0,0.0,0.0,0.0,0.0,0.0,0.0,0.0,0.0,0.0,0.0,0.0,0.0,0.0,0.0,0.0,0.0,0.0,0.0,0.0,0.0,0.0,0.0,0.0,0.0,0.0,0.0,0.0,0.0,0.0,0.0,0.0,0.0,0.0,0.0,0.0,0.0,2.9396,3.1683,3.2579,3.3475,3.4324,3.4671,3.4449,3.3658,3.2852,3.16,0.0,0.0,0.0,0.0,0.0,0.0,0.0,0.0,0.0,0.0,0.0,0.0,0.0,0.0,0.0,0.0,0.0,0.0,0.0,0.0,0.0,0.0,0.0,0.0,0.0,0.0,0.0,0.0,2.3125,2.3452,2.401,0.0,0.0,0.0,0.0,0.0,0.0,0.0,0.0,0.0,0.0,3.584,3.6678,3.846,3.9756,3.9773,4.0471,4.0741,3.993,3.9081,3.8122,3.6972,0.0,0.0,0.0,0.0,0.0,0.0,0.0,0.0,0.0,0.0,0.0,0.0,0.0,0.0,0.0,0.0,0.0,0.0,0.0,0.0,0.0,0.0,0.0,0.0,0.0,0.0,0.0,0.0,0.0,0.0,2.7148,0.0,0.0,0.0,0.0,0.0,0.0,0.0,0.0,0.0,0.0,0.0,0.0,0.0,0.0,0.0,0.0,0.0,0.0,0.0,0.0,0.0,0.0,2.9823,3.1509,3.2471,3.333,3.4205,3.5118,3.5189,3.4381,3.358,3.2375,3.0694,0.0,0.0,0.0,0.0,0.0,0.0,0.0,0.0,0.0,0.0,0.0,0.0,0.0,0.0,0.0,0.0,0.0,0.0,0.0,0.0,0.0,0.0,0.0,0.0,0.0,0.0,2.3161,2.377,2.4256,0.0,0.0,0.0,0.0,0.0,0.0,0.0,0.0,0.0,0.0,3.4616,3.6609,3.9049,4.0147,4.0706,4.07,4.1432,4.1661,4.0813,4.0004,3.9468,0.0,0.0,0.0,0.0,0.0,0.0,0.0,0.0,0.0,0.0,0.0,0.0,0.0,0.0,0.0,0.0,0.0,0.0,0.0,0.0,0.0,0.0,0.0,0.0,0.0,0.0,0.0,2.8521,2.8489,0.0,0.0,0.0,0.0,0.0,0.0,0.0,0.0,0.0,0.0,0.0,3.1928,3.2574,0.0,0.0,0.0,0.0,0.0,0.0,0.0,0.0,0.0,0.0,0.0,0.0,3.0441,3.2122,3.302,3.3957,3.4829,3.5252,3.5056,3.421,3.3478,3.2037,2.9844,0.0,0.0,0.0,0.0,0.0,0.0,0.0,0.0,0.0,0.0,0.0,0.0,0.0,0.0,0.0,0.0,0.0,0.0,0.0,0.0,0.0,0.0,0.0,0.0,0.0,2.5036,0.0,0.0,0.0,0.0,0.0,0.0,0.0,0.0,0.0,0.0,0.0,3.2352,3.468,3.6441,3.8242,4.0231,4.1204,4.1911,0.0,0.0,0.0,0.0,0.0,0.0,0.0,0.0,0.0,0.0,0.0,0.0,0.0,0.0,3.7113,3.4528,3.405,3.405,3.405,0.0,0.0,0.0,0.0,0.0,0.0,0.0,0.0,0.0,0.0,0.0,0.0,0.0,0.0,0.0,0.0,2.9835,0.0,0.0,0.0,0.0,0.0,0.0,0.0,0.0,3.3369,3.4171,3.4511,3.5466,3.5783,0.0,3.5019,3.3459,0.0,0.0,0.0,0.0,0.0,0.0,0.0,0.0,3.1387,3.2764,3.3662,3.4565,3.5444,3.5615,3.5438,3.4912,3.3647,3.2072,3.0187,2.9907,2.9408,0.0,0.0,0.0,0.0,0.0,0.0,0.0,0.0,0.0,0.0,0.0,0.0,0.0,0.0,0.0,0.0,0.0,0.0,0.0,0.0,0.0,0.0,0.0,2.6061,0.0,0.0,0.0,0.0,0.0,0.0,0.0,0.0,0.0,3.1252,3.2457,3.4222,3.6505,3.8273,3.9849,4.1294,0.0,0.0,0.0,0.0,0.0,0.0,0.0,4.0886,4.0575,4.0114,3.974,3.9814,4.0548,4.1348,4.1854,0.0,0.0,3.815,3.7592,3.763,3.763,3.7591,3.7642,3.7713,3.7719,3.769,0.0,0.0,0.0,0.0,0.0,0.0,0.0,0.0,3.3662,3.3626,0.0,3.2731,0.0,0.0,0.0,0.0,0.0,0.0,0.0,0.0,3.5725,3.6604,3.7395,3.8353,3.8464,3.7757,3.7654,3.6777,3.5189,3.3248,0.0,0.0,0.0,0.0,0.0,0.0,3.2557,3.3393,3.4286,3.5198,3.6086,3.625,3.6342,3.6243,3.4099,3.2526,3.1674,3.0906,3.0156,2.9303,2.9371,0.0,0.0,0.0,0.0,0.0,0.0,0.0,0.0,0.0,0.0,0.0,0.0,0.0,0.0,0.0,0.0,0.0,0.0,0.0,0.0,2.6521,0.0,0.0,0.0,0.0,0.0,0.0,0.0,0.0,0.0,0.0,3.2627,3.4457,3.6607,3.8337,0.0,0.0,0.0,0.0,4.4585,4.3845,4.439,4.4312,4.2677,4.3065,4.326,4.2481,0.0,0.0,4.2523,4.3248,4.3844,4.3845,4.3962,4.3289,4.1606,4.1127,4.1009,4.1009,4.1009,4.1134,4.1197,4.1202,4.1248,3.7853,0.0,0.0,0.0,0.0,3.5703,3.6121,3.6597,3.6488,3.6446,3.6346,3.5017,0.0,0.0,0.0,0.0,0.0,0.0,3.4949,3.6065,3.7471,3.8631,3.946,3.9876,4.0252,4.0572,3.9491,3.8428,3.7384,3.6238,3.4626,3.2626,0.0,0.0,0.0,0.0,3.3996,3.4784,3.5718,3.6313,3.6598,3.6826,3.6399,3.5365,3.4124,3.3118,3.2358,3.1566,3.1098,3.0917,3.0414,0.0,0.0,0.0,0.0,0.0,0.0,0.0,0.0,0.0,0.0,0.0,0.0,0.0,0.0,0.0,0.0,0.0,0.0,0.0,2.749,2.7724,2.7842,0.0,0.0,0.0,0.0,0.0,0.0,0.0,0.0,0.0,3.7461,3.7181,3.7758,0.0,0.0,4.1892,4.3959,4.4692,4.5074,4.5424,0.0,0.0,0.0,4.3905,4.3593,4.336,4.3795,4.4426,4.5055,4.5883,4.667,4.7255,4.7412,4.7215,4.6662,4.4542,4.3089,4.2971,4.3401,4.3835,4.3883,4.4354,4.4787,4.27,4.0467,3.8609,3.8087,3.8537,3.8687,3.9023,3.9403,3.9213,3.9002,3.8657,3.7407,3.6725,3.6416,3.5119,0.0,0.0,0.0,3.6953,3.8083,3.9481,4.0568,4.1378,4.1926,4.2104,4.1924,4.1024,3.9996,3.8913,3.8435,3.724,3.5279,0.0,0.0,3.4307,3.4807,3.527,3.5858,3.6742,3.7196,3.7209,3.7105,3.6507,3.5292,3.415,3.3373,3.2978,3.2179,3.1844,3.1966,3.1506,3.1165,0.0,0.0,0.0,0.0,0.0,0.0,0.0,0.0,0.0,0.0,0.0,2.6646,2.6645,0.0,0.0,0.0,2.7861,2.8175,2.8174,2.8756,0.0,0.0,0.0,0.0,0.0,0.0,0.0,3.5016,3.6819,3.8581,4.0142,4.0035,4.039,4.1914,4.242,4.3237,4.476,0.0,4.5686,4.6154,4.5842,4.5413,4.5061,4.4867,4.4711,4.475,4.5458,4.6164,4.6712,4.7535,4.8279,4.8748,4.8904,4.8904,4.8904,4.7143,4.5772,4.5767,4.6157,4.6511,4.6554,4.6946,4.7338,4.6583,4.5917,4.2807,4.1486,4.1481,4.1991,4.2211,4.2165,4.1863,4.1307,4.0664,3.9766,3.8996,3.8272,3.7551,0.0,3.8296,3.8366,3.9157,4.058,4.1582,4.2421,4.3162,4.409,4.3818,4.2443,4.2301,4.1472,4.0038,3.9931,3.9646,3.903,3.7273,3.642,3.6537,3.6544,3.666,3.6849,3.7664,3.8039,3.7993,3.7334,3.6633,3.5895,3.4368,3.3561,3.3551,3.2864,3.2507,3.2573,3.2567,3.2245,3.1613,0.0,0.0,0.0,0.0,0.0,0.0,0.0,0.0,0.0,0.0,0.0,0.0,0.0,0.0,0.0,2.8436,0.0,2.8475,2.987,0.0,0.0,0.0,3.3278,3.3357,3.4897,3.6059,3.6255,0.0,0.0,4.1348,0.0,4.3746,4.3852,4.4528,4.5039,4.5078,4.578,4.6284,4.6284,4.6283,4.6009,4.5345,4.5736,4.6127,4.6166,4.7028,4.7498,4.7615,4.8398,4.8906,4.9062,4.9062,4.9141,4.9101,4.9062,4.9101,4.9019,4.8939,4.8941,4.8865,4.8983,4.91,4.8609,4.7173,4.6365,4.5591,4.4894,4.4817,4.4811,4.4729,4.3925,4.3454,4.3212,4.1841,4.0839,4.0124,3.9951,3.9986,4.017,4.0735,4.1162,4.16,4.2636,4.3487,4.4221,4.412,4.4166,4.4237,4.3145,4.2077,4.1105,4.0553,4.0008,3.9451,3.8999,3.8735,3.8672,3.8652,3.9029,3.9776,4.0149,4.0093,3.9615,3.8301,3.7225,3.6503,3.5497,3.4694,3.4179,3.3414,3.3107,3.3214,3.2713,3.2304,3.2193,3.2251,0.0,0.0,0.0,0.0,0.0,0.0,0.0,0.0,0.0,2.8879,2.8856,0.0,3.0736,0.0,3.1258,3.1589,3.1628,3.1952,0.0,0.0,3.3185,3.407,3.4734,3.5839,3.7259,3.9279,4.0266,4.1517,4.3527,4.4132,4.4634,4.5349,4.5194,4.5226,4.5894,4.6132,4.6289,4.6289,4.6289,4.621,4.6054,4.6132,4.6289,4.6289,4.7031,4.7578,4.7617,4.8906,4.9883,4.9922,5.0391,5.0742,5.0742,5.082,5.0781,5.0781,5.0312,4.9882,4.9883,5.0351,5.0781,4.9735,4.8452,4.8438,4.8127,4.7559,4.6773,4.6456,4.6408,4.578,4.5342,4.4931,4.3421,4.2358,4.1672,4.1638,4.1638,4.1672,4.2062,4.2452,4.2821,4.347,4.4158,4.4863,4.4649,4.4597,4.461,4.3461,4.2509,4.1719,4.0977,4.0518,4.0316,4.0291,4.0384,4.0484,3.9986,4.0039,4.0652,4.0799,4.059,3.9989,3.8737,3.78,3.7114,3.5923,3.5124,3.4822,3.4047,3.3687,3.3837,3.3451,3.3084,3.2778,3.2855,3.2746,0.0,0.0,0.0,0.0,0.0,0.0,0.0,0.0,0.0,0.0,0.0,3.209,3.2363,3.3062,3.3477,3.3515,3.3844,3.4059,3.4097,3.4843,3.5586,3.6086,3.7308,3.8669,4.0188,4.1401,4.2702,4.4179,4.4769,4.5221,4.5784,4.5624,4.5592,4.6146,4.6278,4.6284,4.6287,4.6288,4.6289,4.6289,4.6289,4.6289,4.6367,4.7031,4.7617,4.7617,4.8711,4.9609,4.9648,5.0,5.043,5.0781,5.0859,5.0937,5.1211,5.0742,5.0391,5.0664,5.1055,5.1406,5.0313,4.9426,4.9426,4.9426,4.9357,4.8108,4.7618,4.7618,4.7372,4.6857,4.6073,4.4763,4.3774,4.3072,4.3085,4.3051,4.2948,4.2948,4.3337,4.3964,4.411,4.4519,4.515,4.5283,4.4992,4.4311,4.3463,4.2706,4.2073,4.1237,4.0953,4.1128,4.114,4.1368,4.1728,4.0816,4.0494,4.0772,4.0718,4.0415,3.9808,3.9005,3.8272,3.7529,3.6125,3.5342,3.5212,3.4572,3.4198,3.4258,3.4323,3.4071,3.3482,3.3586,3.3366,0.0,3.2753,0.0,0.0,0.0,0.0,0.0,0.0,0.0,0.0,3.2921,3.3218,3.3792,3.4395,3.4732,3.4732,3.5387,3.5843,3.5848,3.6725,3.7314,3.7413,3.8931,4.0106,4.0363,4.2387,4.3874,4.4168,4.4917,4.5453,4.5606,4.5716,4.5849,4.6118,4.6248,4.6272,4.6284,4.6286,4.6287,4.6289,4.6289,4.6289,4.6367,4.6875,4.7422,4.7383,4.8125,4.875,4.875,4.8906,4.9219,4.9922,5.0039,5.0273,5.082,5.0391,5.0234,5.0898,5.0976,5.1094,5.0487,4.9111,4.9111,4.9111,4.9043,4.8821,4.8761,4.8813,4.8105,4.7333,4.667,4.6365,4.5843,4.5165,4.5131,4.4792,4.4244,4.4244,4.4312,4.4495,4.4613,4.4736,4.4886,4.5002,4.4987,4.4782,4.3433,4.2702,4.2565,4.1221,4.0643,4.0787,4.0787,4.0989,4.1288,0.0,0.0,0.0,4.1588,4.0979,4.0364,3.9575,3.8508,3.7275,3.6911,0.0,3.5036,3.4823,3.4502,3.3984,3.4004,0.0,0.0,0.0,0.0,0.0,0.0,0.0,0.0,0.0,0.0,0.0,3.5568,3.5341,3.4988,3.5452,3.5808,3.5838,3.5909,3.5954,3.59,3.5963,3.6046,3.6083,3.7437,3.8322,3.8388,3.9988,4.1358,4.2048,4.2759,4.3509,4.4279,4.4741,4.5012,4.5246,4.5454,4.5648,4.5855,4.6068,4.6231,4.6216,4.6275,4.6283,4.6284,4.6284,4.6285,4.6326,4.6405,4.6562,4.6641,4.7266,4.7812,4.7851,4.8437,4.8906,4.9101,4.9141,4.9219,4.9375,4.9258,4.9414,5.0234,4.9883,4.9375,5.0094,0.0,4.9018,4.9018,0.0,4.9018,4.9049,4.9058,4.8628,4.8022,4.7361,4.7346,4.6955,4.621,4.5872,4.55,4.5142,4.4784,4.4567,4.4615,4.4685,4.4692,4.4692,4.4762,4.4789,4.4721,4.3606,4.2858,4.2464,4.1376,4.0737,4.0485,4.0485,4.0655,4.0953,4.1001,4.1447,4.2241,4.1849,4.1199,4.0253,3.9795,3.8923,3.7555,0.0,0.0,0.0,0.0,0.0,0.0,0.0,0.0,0.0,0.0,0.0,3.6149,3.6106,3.612,3.615,3.6778,3.7148,3.7054,3.766,3.7366,3.5765,3.6648,3.7255,3.7171,3.7777,3.8186,3.8145,3.8068,3.8087,3.8124,3.881,3.9369,3.9546,4.069,4.1727,4.2218,4.2818,4.3474,4.4057,4.4355,4.4618,4.4902,4.5173,4.5374,4.5627,4.5933,4.6132,4.619,4.6221,4.6234,4.6274,4.6235,4.6276,4.6281,4.6282,4.6284,4.6287,4.6678,4.6951,4.6991,4.7342,4.7733,4.8162,4.824,4.8397,4.8748,4.8553,4.8397,4.8866,4.8906,4.8906,4.9661,4.9018,4.9018,4.9018,4.9018,4.9018,4.9018,4.9018,0.0,0.0,0.0,4.809,4.7684,4.6969,4.6346,4.6027,4.5838,4.5142,4.4804,4.477,4.4668,4.4567,4.4567,4.4567,4.4567,4.4533,4.3809,4.3017,4.23,4.1576,4.0883,4.0306,4.0263,4.0375,4.0641,4.0752,4.1129,4.1657,4.1744,4.1142,3.984,3.9815,3.9163,3.7829,3.7094,3.675,3.6783,3.6177,3.578,3.5628,3.5656,3.5768,3.5876,3.5939,3.6116,3.6362,3.6355,3.6379,3.6552,3.7641,3.8239,3.8187,3.9213,3.8921,3.666,3.7649,3.832,3.8241,3.9308,4.0014,4.0004,4.0004,3.9995,3.9995,4.0148,4.0257,4.0424,4.1184,4.183,4.2032,4.2713,4.3335,4.3599,4.3889,4.4191,4.4539,4.4849,4.5147,4.5457,4.5793,4.6074,4.6156,4.6192,4.621,4.6211,4.621,4.6216,4.6265,4.6267,4.6271,4.6277,4.628,4.6279,4.6358,4.628,4.6631,4.7178,4.7335,4.7607,4.8272,4.7881,4.7373,4.7413,4.7926,4.832,4.9661,4.9018,4.9018,4.9018,4.9018,4.9018,4.9018,4.9018,4.9018,4.8951,4.8849,4.8834,4.8428,4.7752,4.7635,4.7259,4.6631,4.5906,4.5534,0.0,4.4905,4.4567,4.4567,4.4567,4.4567,4.4533,4.3775,4.3017,4.23,4.1576,4.0844,4.0227,4.0138,4.0213,4.0384,4.0485,4.0667,4.0871,4.114,4.0679,3.943,3.9405,3.8732,3.7451,3.7257,3.695,3.6496,3.6371,3.596,3.5327,3.53,3.5603,3.6236,3.6361,3.6934,3.8159,3.8284,3.8596,3.9256,3.9429,3.94,3.9201,3.9256,3.9302,3.9422,3.9554,3.9601,3.9469,3.9698,3.973,3.9696,3.9721,3.9767,3.9767,4.0299,4.0709,4.0775,4.1472,4.2058,4.2199,4.2501,4.2835,4.3123,4.3467,4.3823,4.4162,4.4623,4.5004,4.5417,4.5764,4.6017,4.6087,4.6169,4.619,4.6193,4.6193,4.6206,4.6192,4.6234,4.6203,4.6221,4.6223,4.6223,4.6226,4.6224,4.6302,4.6459,4.6382,4.6576,4.681,4.6615,4.6498,4.6498,4.6658,4.6703,4.9914,4.9575,4.9154,4.9018,4.9018,4.9018,4.9018,4.9018,4.9018,4.9018,4.9018,4.9018,4.8815,4.8462,4.8056,4.7718,4.7361,4.6616,4.6312,4.6244,4.5534,4.521,4.5142,4.4804,4.4567,4.4581,4.4228,4.3639,4.2916,4.2557,4.1813,4.073,4.0303,4.0138,4.0188,4.0263,4.035,4.0473,4.0787,4.047,3.9542,3.9112,3.8464,3.7597,3.7176,3.6898,3.672,3.6729,3.6578,3.6206,3.655,3.6939,3.7312,3.7691,3.8247,3.8909,3.8929,3.9075,3.9453,3.9809,4.019,4.058,4.0527,4.0602,4.0844,4.0424,4.0139,4.0046,4.0429,4.0708,4.0666,4.069,4.069,4.069,4.1018,4.1272,4.1372,4.175,4.2069,4.2205,4.244,4.2697,4.292,4.3294,4.3689,4.4079,4.4595,4.5081,4.539,4.5638,4.5829,4.5975,4.6078,4.6106,4.6111,4.6072,4.6091,4.6128,4.6173,4.6149,4.6177,4.6184,4.6184,4.6223,4.6185,4.6223,4.6184,4.6223,4.6223,4.6223,4.6223,4.6223,4.6223,4.6224,4.6199,5.0338,5.027,4.9729,4.939,4.9221,4.9037,4.9018,4.9018,4.9018,4.9018,4.9018,4.9018,4.9018,4.8951,4.8394,4.8124,4.8056,4.7394,4.7056,4.6989,4.6278,4.5925,4.5872,4.521,4.4838,4.4838,4.4668,4.4195,4.349,4.3389,4.2746,4.1508,4.0709,4.035,4.0337,4.0168,4.015,4.0284,4.0448,4.0242,3.9651,3.9066,3.8513,3.7927,3.7348,3.7095,3.7335,3.7376,3.7396,3.7431,3.7967,3.8257,3.8317,3.8797,3.9217,3.9346,3.9342,3.9392,3.9567,4.0169,4.0818,4.1445,4.1549,4.156,4.1525,4.1067,4.0659,4.0688,4.1185,4.1545,4.1545,4.1602,4.1648,4.1648,4.167,4.1712,4.1823,4.1934,4.2041,4.2153,4.2399,4.2658,4.2892,4.3269,4.3681,4.4199,4.4732,4.5159,4.5356,4.5507,4.563,4.581,4.5914,4.5955,4.5961,4.5961,4.5986,4.6035,4.6083,4.6067,4.6138,4.6152,4.6152,4.6152,4.6152,4.6152,4.6152,4.6152,4.6152,4.6152,4.6152,4.6152,4.6152,4.6152,4.6178,5.11,5.11,5.0998,5.0592,4.9932,4.9323,4.9052,4.9052,4.9018,4.9018,4.9018,4.9018,4.9018,4.8984,4.8917,4.8883,4.88,4.8124,4.7785,4.7718,4.7056,4.6699,4.6616,4.594,4.5602,4.5534,4.4973,4.433,4.3558,4.3423,4.2983,4.2198,4.1474,4.1102,4.1035,4.0451,4.0113,4.0125,4.015,3.9902,3.9462,3.9371,3.9019,3.8368,3.8276,3.8287,3.8283,3.8497,3.8528,3.8562,3.8719,3.8807,3.8842,3.8912,3.926,3.9956,4.0014,4.0293,4.0918,4.1172,4.1276,4.1255,4.1403,4.1448,4.1459,4.1578,4.1609,4.1521,4.1534,4.1615,4.1615,4.1714,4.1769,4.178,4.188,4.1955,4.1977,4.1977,4.2072,4.2267,4.2394,4.2527,4.2901,4.3286,4.3795,4.4409,4.4777,4.5125,4.5345,4.5429,4.5538,4.5691,4.5792,4.5821,4.5792,4.5827,4.5864,4.5917,4.5929,4.5958,4.5997,4.6015,4.6017,4.6015,4.6015,4.6015,4.6015,4.6015,4.6015,4.6015,4.6015,4.6015,4.6015,4.6017,4.6056,5.186,5.1826,5.137,5.1032,5.0694,5.0439,5.0033,4.9661,4.9627,4.9424,4.9018,4.9018,4.9018,4.9018,4.9018,4.9018,4.8984,4.8698,4.8529,4.8496,4.78,4.7447,4.7394,4.6684,4.6346,4.6346,4.6056,4.55,4.4708,4.3849,4.3254,4.2929,4.2219,4.1847,4.1792,4.1115,4.0777,4.073,4.0303,3.9993,3.9775,3.938,3.9088,3.8843,3.8423,3.8208,3.8311,3.838,3.8414,3.8448,3.8952,3.9261,3.9261,3.9755,4.0216,4.0539,4.0666,4.0908,4.1413,4.1504,4.156,4.1659,4.1739,4.1771,4.176,4.1858,4.1891,4.1858,4.1848,4.1848,4.1848,4.1856,4.1923,4.1923,4.1966,4.2041,4.2178,4.2163,4.2246,4.245,4.2603,4.2797,4.3096,4.3552,4.4072,4.4568,4.4877,4.5103,4.5367,4.5429,4.5475,4.5603,4.5671,4.568,4.5723,4.5734,4.5764,4.58,4.5856,4.5841,4.5877,4.589,4.5893,4.5893,4.5896,4.5896,4.5893,4.589,4.589,4.5893,4.5893,4.589,4.5851,4.5893,4.5923,5.2638,5.2503,5.1826,5.1505,5.1472,5.1269,5.0897,5.0439,5.0405,5.0101,4.9661,4.9627,4.9627,4.9544,4.9187,4.9018,4.9018,4.9018,4.9018,4.8951,4.8428,4.8191,4.8124,4.7462,4.709,4.7056,4.6853,4.6515,4.5906,4.4708,4.4032,4.3896,4.3064,4.2638,4.2523,4.188,4.1407,4.1157,4.0641,4.0316,4.0045,3.9592,3.9359,3.9377,3.888,3.861,3.8727,3.8763,3.8786,3.8786,3.9417,3.9808,3.9844,4.0488,4.0859,4.0942,4.1152,4.1324,4.1582,4.1659,4.1826,4.2009,4.2051,4.2094,4.2115,4.2146,4.2167,4.2167,4.2167,4.2146,4.1987,4.2041,4.2072,4.2083,4.2125,4.225,4.2369,4.2389,4.247,4.2668,4.2852,4.3096,4.3383,4.3863,4.4329,4.4654,4.4914,4.5125,4.5334,4.5424,4.5443,4.5573,4.5594,4.562,4.5675,4.5691,4.5711,4.5739,4.5758,4.5773,4.5764,4.5771,4.5775,4.5793,4.5778,4.5775,4.5789,4.5782,4.5775,4.5775,4.5775,4.5778,4.5782,4.5778,4.5778,5.345,5.3315,5.2604,5.2249,5.2198,5.1573,5.1235,5.1133,5.1167,5.11,5.0998,5.1032,5.1066,5.093,4.9679,4.9052,4.9052,4.912,4.9154,4.9154,4.9052,4.8984,4.8883,4.8225,4.7887,4.7785,4.7293,4.6887,4.6733,4.5974,4.5587,4.5452,4.4099,4.3389,4.3254,4.2625,4.1914,4.1407,4.1238,4.0865,4.0235,4.01,4.0045,4.0058,3.999,3.9901,3.9981,4.0102,4.0164,4.0152,4.03,4.049,4.0633,4.0692,4.0858,4.1082,4.1415,4.1582,4.1648,4.1823,4.2019,4.2111,4.2236,4.2318,4.2379,4.246,4.251,4.256,4.252,4.2379,4.2115,4.2209,4.2277,4.2287,4.245,4.254,4.258,4.2589,4.2688,4.2871,4.3022,4.3304,4.3783,4.4132,4.4421,4.4726,4.498,4.5186,4.5336,4.54,4.5457,4.5564,4.5594,4.5594,4.5603,4.562,4.5637,4.5662,4.5687,4.5722,4.5707,4.5688,4.5692,4.5692,4.5731,4.5731,4.5727,4.5731,4.5692,4.5692,4.5731,4.5692,4.5692,4.5688,4.5692,5.3501,5.3467,5.3179,5.3078,5.3027,5.2773,5.2401,5.1911,5.1894,5.1607,5.1269,5.1201,5.1201,5.1167,5.066,5.0423,5.0389,5.0389,5.0389,5.0389,5.0389,5.0168,4.9695,4.9424,4.9052,4.8612,4.8342,4.797,4.7462,4.6752,4.6143,4.5737,4.5181,4.4654,4.4113,4.3403,4.2848,4.2577,4.2151,4.1758,4.1454,4.1068,4.0798,4.0777,4.0337,4.0113,4.0113,4.015,4.0175,4.0175,4.03,4.0424,4.0571,4.0834,4.107,4.1267,4.1482,4.1736,4.2005,4.2121,4.2256,4.2409,4.247,4.251,4.254,4.258,4.2609,4.2609,4.2609,4.25,4.244,4.245,4.25,4.25,4.256,4.2639,4.2707,4.2765,4.2861,4.3022,4.326,4.3563,4.3876,4.4222,4.4527,4.4796,4.5045,4.5197,4.5356,4.5429,4.5514,4.5573,4.5594,4.5594,4.5594,4.5594,4.5603,4.5612,4.5625,4.5629,4.5646,4.5654,4.5654,4.5662,4.5654,4.5658,4.5662,4.5662,4.5658,4.5654,4.5654,4.5662,4.5642,4.5658,4.5654,5.3501,5.3501,5.3501,5.3501,5.3501,5.3501,5.3213,5.2706,5.2672,5.2401,5.1979,5.1911,5.1945,5.1945,5.1945,5.1945,5.1877,5.1472,5.1201,5.1201,5.1201,5.093,5.0541,5.0439,5.0067,4.9424,4.912,4.8732,4.8225,4.7515,4.6906,4.6466,4.621,4.5703,4.4973,4.4418,4.3964,4.3423,4.2916,4.257,4.23,4.1826,4.1441,4.117,4.0709,4.0303,4.0113,4.0113,4.0113,4.0125,4.0188,4.0313,4.051,4.0894,4.1186,4.1346,4.1582,4.1866,4.2184,4.2333,4.2465,4.2639,4.2697,4.2717,4.2746,4.2775,4.2794,4.2768,4.2804,4.2804,4.2804,4.2804,4.2765,4.2707,4.2717,4.2785,4.2898,4.2956,4.3059,4.3187,4.3463,4.3759,4.4008,4.4303,4.4599,4.4877,4.5062,4.5197,4.5366,4.5434,4.5518,4.5577,4.5594,4.5594,4.5594,4.5594,4.5594,4.5599,4.5603,4.5594,4.5594,4.5594,4.5594,4.5594,4.5594,4.5594,4.5594,4.5594,4.5594,4.5594,4.5603,4.562,4.5607,4.5599,4.5646,5.3501,5.3501,5.3501,5.3501,5.3501,5.3501,5.3484,5.3399,5.3433,5.3315,5.3196,5.3365,5.323,5.3365,5.323,5.3365,5.3061,5.2013,5.1438,5.1438,5.1404,5.1336,5.1201,5.1201,5.0829,5.0101,4.939,4.9037,4.8984,4.8259,4.7853,4.7684,4.709,4.6413,4.5703,4.5568,4.4925,4.3896,4.3558,4.3152,4.2435,4.2367,4.2016,4.1428,4.1271,4.0865,4.0214,4.0113,4.0113,4.0113,4.0113,4.0238,4.0522,4.0907,4.1197,4.1289,4.1681,4.1973,4.2132,4.2338,4.2576,4.2792,4.2861,4.2937,4.3022,4.3105,4.3151,4.3142,4.3151,4.3169,4.316,4.3151,4.3059,4.2852,4.2973,4.3067,4.3104,4.3142,4.3251,4.3403,4.3628,4.3824,4.4031,4.4288,4.4578,4.4833,4.5028,4.5197,4.5351,4.5415,4.5457,4.5564,4.5594,4.5594,4.5594,4.5594,4.5594,4.5594,4.5594,4.5594,4.5594,4.5594,4.5594,4.5594,4.5594,4.5594,4.5594,4.5594,4.5594,4.5594,4.5594,4.5594,4.5594,4.5633,4.5744,5.3501,5.3501,5.3501,5.3501,5.3501,5.3501,5.3501,5.3501,5.3501,5.3501,5.3501,5.3501,5.3501,5.3501,5.3501,5.3501,5.3433,5.2976,5.2807,5.2757,5.2757,5.2452,5.2029,5.1961,5.1573,5.0829,5.0101,4.9763,4.9627,4.9018,4.8428,4.7921,4.7684,4.7192,4.6481,4.6413,4.594,4.5114,4.4978,4.4621,4.389,4.3335,4.2916,4.2679,4.2219,4.161,4.0912,4.0371,4.0113,4.0113,4.0113,4.0238,4.051,4.0823,4.1105,4.1323,4.1659,4.2005,4.2308,4.246,4.2704,4.2945,4.3003,4.3059,4.3142,4.3196,4.3214,4.3214,4.3205,4.3205,4.3205,4.3205,4.3169,4.3087,4.3123,4.3169,4.3187,4.3251,4.3358,4.3463,4.3679,4.3808,4.3961,4.4222,4.4517,4.4757,4.493,4.5175,4.5345,4.5443,4.5514,4.5581,4.5586,4.5594,4.5594,4.5594,4.5594,4.5594,4.5594,4.5594,4.5594,4.5594,4.5594,4.5594,4.5594,4.5594,4.5594,4.5594,4.5594,4.5667,4.5706,4.5667,4.5633,4.5821,4.6129,5.3501,5.3501,5.3501,5.3501,5.3501,5.3501,5.3501,5.3501,5.3501,5.3501,5.3501,5.3501,5.3501,5.3501,5.3501,5.3501,5.3501,5.3501,5.3501,5.3501,5.3501,5.3213,5.2706,5.2401,5.2097,5.1539,5.0845,5.0507,5.0473,4.9763,4.9187,4.8766,4.8462,4.7921,4.7293,4.7192,4.6838,4.621,4.6075,4.5785,4.506,4.4519,4.3998,4.3457,4.2963,4.2354,4.1644,4.0899,4.0371,4.018,4.015,4.0263,4.0436,4.0728,4.0989,4.1221,4.1549,4.1888,4.2179,4.2374,4.2642,4.2947,4.3077,4.316,4.3251,4.3295,4.3322,4.3322,4.3322,4.3322,4.3322,4.3322,4.3322,4.3322,4.3286,4.3286,4.3322,4.3384,4.3437,4.3515,4.3625,4.3759,4.3921,4.4117,4.4409,4.4641,4.4864,4.512,4.5288,4.5409,4.5481,4.5546,4.5581,4.5586,4.559,4.5594,4.5594,4.5594,4.5594,4.5594,4.5594,4.5594,4.5594,4.5594,4.5594,4.5594,4.5594,4.5594,4.5633,4.5706,4.6047,4.6355,4.6586,4.674,4.7009,5.3501,5.3501,5.3501,5.3501,5.3501,5.3501,5.3501,5.3501,5.3501,5.3501,5.3501,5.3501,5.3501,5.3501,5.3501,5.3501,5.3501,5.3501,5.3501,5.3501,5.3501,5.3399,5.3298,5.2773,5.2469,5.23,5.1607,5.1269,5.1201,5.0507,5.0135,4.9999,4.9357,4.8766,4.8225,4.8022,4.7597,4.6955,4.6853,4.6481,4.5805,4.5737,4.508,4.3761,4.3626,4.3234,4.2388,4.1644,4.0878,4.0261,4.0201,4.0263,4.0362,4.0667,4.0835,4.0942,4.1346,4.167,4.1906,4.2231,4.2554,4.2873,4.3105,4.326,4.3376,4.3419,4.3471,4.3471,4.3471,4.3452,4.348,4.348,4.348,4.3489,4.3419,4.341,4.348,4.3497,4.3497,4.3515,4.3575,4.3684,4.3857,4.4064,4.4324,4.4575,4.4802,4.5004,4.5208,4.5329,4.5409,4.5481,4.5555,4.5577,4.5586,4.5594,4.5594,4.5594,4.5594,4.5629,4.5633,4.5633,4.5594,4.5594,4.5748,4.571,4.5671,4.5748,4.6052,4.6394,4.6812,4.7312,4.7543,4.7543,4.7817,5.3501,5.3501,5.3501,5.3501,5.3501,5.3501,5.3501,5.3501,5.3501,5.3501,5.3501,5.3501,5.3501,5.3501,5.3501,5.3501,5.3501,5.3501,5.3501,5.3501,5.3501,5.3501,5.3518,5.3315,5.3179,5.3027,5.2385,5.2013,5.1961,5.1285,5.0897,5.0879,5.0168,4.971,4.9492,4.8935,4.8326,4.7718,4.7616,4.7244,4.6616,4.6515,4.6075,4.5249,4.5046,4.437,4.3234,4.2422,4.1386,4.0214,4.0138,4.0201,4.0275,4.0412,4.0595,4.0871,4.1163,4.148,4.1852,4.219,4.2534,4.2863,4.3096,4.3251,4.3394,4.3454,4.3497,4.3506,4.3506,4.3506,4.3506,4.3506,4.3506,4.3506,4.348,4.3471,4.3497,4.3506,4.3506,4.3515,4.3575,4.3667,4.3792,4.3968,4.4162,4.444,4.4652,4.489,4.5188,4.5388,4.5548,4.5496,4.5537,4.5559,4.5577,4.5586,4.5594,4.5594,4.559,4.5629,4.5667,4.5667,4.5633,4.5594,4.6052,4.6129,4.609,4.6129,4.6547,4.7158,4.7543,4.8005,4.8005,4.8005,4.8471,5.3433,5.3382,5.3382,5.3365,5.3382,5.3365,5.3416,5.3501,5.3501,5.3501,5.3501,5.3501,5.3501,5.3501,5.3501,5.3501,5.3501,5.3501,5.3501,5.3501,5.3501,5.3501,5.3518,5.3501,5.3501,5.3433,5.3044,5.2824,5.2672,5.2029,5.1691,5.1522,5.0913,5.0405,4.9999,4.9695,4.912,4.8511,4.836,4.7988,4.7327,4.7259,4.6853,4.6244,4.5872,4.4978,4.3558,4.2949,4.2083,4.0933,4.054,4.0477,4.0247,4.0275,4.0399,4.0643,4.093,4.1232,4.1591,4.197,4.2363,4.271,4.3003,4.3205,4.3385,4.3454,4.3506,4.3506,4.3506,4.3506,4.3506,4.3506,4.3506,4.3506,4.3506,4.3506,4.3506,4.3506,4.3506,4.3515,4.3549,4.36,4.3729,4.3832,4.4031,4.4214,4.4454,4.4925,4.5381,4.5536,4.584,4.6049,4.6043,4.611,4.6041,4.5987,4.5932,4.5898,4.6167,4.6086,4.5975,4.6013,4.6129,4.6244,4.6475,4.6629,4.674,4.6971,4.7548,4.8086,4.8394,4.874,4.8894,4.8817,4.924,5.3348,5.3161,5.3161,5.3179,5.3196,5.3196,5.3331,5.3484,5.3501,5.3501,5.3501,5.3501,5.3501,5.3501,5.3501,5.3501,5.3501,5.3501,5.3501,5.3501,5.3501,5.3501,5.3501,5.3501,5.3501,5.3467,5.3501,5.3433,5.3196,5.2672,5.2469,5.2266,5.1674,5.1032,5.0642,5.032,4.9796,4.9255,4.912,4.8748,4.8157,4.7988,4.765,4.6955,4.6244,4.5297,4.4201,4.366,4.3017,4.1495,4.1373,4.1048,4.0498,4.0485,4.0581,4.0749,4.1172,4.1381,4.1417,4.1947,4.2213,4.2596,4.289,4.3169,4.335,4.3428,4.3506,4.3506,4.3506,4.3506,4.3506,4.3506,4.3506,4.3506,4.3506,4.3506,4.3506,4.3506,4.3506,4.3506,4.3506,4.354,4.3609,4.3775,4.3997,4.4569,4.4842,4.5472,4.5926,4.6171,4.666,4.7214,4.7094,4.6842,4.6633,4.6459,4.6337,4.6317,4.6817,4.6932,4.6663,4.6701,4.6932,4.7086,4.7201,4.7432,4.7697,4.8082,4.8586,4.8894,4.9163,4.9784,5.0284,5.0014,5.0168,5.3144,5.2955,5.2972,5.3059,5.3179,5.3196,5.3314,5.3501,5.3501,5.3501,5.3501,5.3501,5.3501,5.3501,5.3501,5.3501,5.3501,5.3501,5.3501,5.3501,5.3501,5.3501,5.3501,5.3501,5.3501,5.3501,5.3501,5.3501,5.3399,5.3315,5.3247,5.3061,5.2469,5.1995,5.1725,5.115,5.0608,4.9999,4.9864,4.9492,4.8917,4.8732,4.8394,4.7616,4.6921,4.6143,4.5466,4.5215,4.4471,4.322,4.2489,4.2185,4.1758,4.1717,4.1782,4.1878,4.2154,4.2285,4.2195,4.2492,4.2708,4.2655,4.304,4.3114,4.3233,4.3529,4.3571,4.3506,4.3506,4.3653,4.369,4.3543,4.3653,4.3726,4.369,4.3616,4.3543,4.3543,4.3579,4.3543,4.3579,4.3577,4.3674,4.4325,4.4608,4.4901,4.5494,4.6202,4.6554,4.6828,4.7421,4.8041,4.7779,4.7543,4.7474,4.7285,4.7165,4.7197,4.7625,4.8086,4.7817,4.7663,4.8009,4.8009,4.7894,4.8202,4.8663,4.8894,4.9317,4.963,4.9938,5.0361,5.0707,5.0745,5.1092,5.3024,5.2764,5.2746,5.2868,5.3041,5.3059,5.3229,5.3467,5.3501,5.3501,5.3501,5.3501,5.3501,5.3501,5.3501,5.3501,5.3501,5.3501,5.3501,5.3501,5.3501,5.3501,5.3501,5.3501,5.3501,5.3501,5.3501,5.3501,5.3501,5.3501,5.3467,5.3518,5.3044,5.2638,5.2334,5.1928,5.1336,5.0777,5.0608,5.027,4.9627,4.9492,4.8901,4.809,4.7481,4.6989,4.6278,4.621,4.5771,4.5128,4.4553,4.3639,4.2523,4.232,4.236,4.2419,4.2654,4.2812,4.2781,4.315,4.3463,4.3435,4.3838,4.4147,4.4345,4.4491,4.4635,4.4607,4.4644,4.4644,4.4644,4.4644,4.4644,4.4644,4.4607,4.4599,4.4571,4.4305,4.4048,4.4158,4.4452,4.4662,4.4909,4.5082,4.5282,4.5594,4.5811,4.6499,4.7249,4.7575,4.81,4.8526,4.8327,4.8201,4.828,4.8217,4.8145,4.826,4.8625,4.9125,4.9322,4.9245,4.9202,4.9048,4.8856,4.9322,4.9745,4.9938,4.9976,5.0207,5.0476,5.0822,5.1125,5.1395,5.1856,5.2921,5.2587,5.2553,5.2694,5.2902,5.3054,5.3345,5.3687,5.3788,5.4025,5.3839,5.3839,5.4042,5.3906,5.394,5.389,5.3873,5.3906,5.4076,5.4076,5.4076,5.4076,5.4042,5.4042,5.3923,5.3721,5.3551,5.3518,5.3501,5.3501,5.3501,5.3518,5.3484,5.3129,5.2604,5.2469,5.2131,5.1488,5.1336,5.1014,5.0405,5.0236,4.9593,4.868,4.836,4.7868,4.7192,4.6955,4.6853,4.6786,4.6786,4.5399,4.3789,4.2828,4.2706,4.2787,4.3108,4.3259,4.3417,4.3766,4.4212,4.4634,4.4983,4.5316,4.5466,4.5535,4.5608,4.5709,4.5672,4.5672,4.5883,4.57,4.5746,4.5773,4.5847,4.5883,4.581,4.5333,4.5177,4.4957,4.5186,4.5387,4.5644,4.5874,4.6066,4.6276,4.6472,4.6812,4.7562,4.8167,4.8626,4.8992,4.8882,4.9036,4.9108,4.9149,4.9079,4.9163,4.9538,4.9861,5.0322,5.0168,4.9938,4.9899,4.9938,5.0284,5.0399,5.0399,5.0476,5.0745,5.1053,5.1395,5.1736,5.2043,5.262,5.2729,5.2427,5.2427,5.2622,5.2969,5.3557,5.4035,5.4498,5.4989,5.5327,5.5259,5.5293,5.5225,5.5259,5.5293,5.5293,5.5124,5.5056,5.5124,5.5158,5.5158,5.5124,5.509,5.5023,5.4871,5.4363,5.389,5.3585,5.3501,5.3501,5.3501,5.3501,5.3501,5.3332,5.3264,5.3281,5.2841,5.2232,5.208,5.1758,5.1217,5.0879,5.0574,4.9695,4.9593,4.8984,4.8071,4.7718,4.7462,4.6887,4.6786,4.653,4.5872,4.5331,4.4804,4.4298,4.4347,4.439,4.4186,4.4544,4.4682,4.4766,4.5209,4.5507,4.5685,4.5874,4.6195,4.6104,4.6067,4.5993,4.592,4.614,4.5993,4.5957,4.6067,4.6067,4.614,4.6315,4.6351,4.603,4.603,4.6104,4.6434,4.6691,4.6856,4.7132,4.738,4.7599,4.8056,4.8507,4.8849,4.9157,4.9416,4.9723,4.9989,5.0056,5.0013,5.0008,5.0211,5.024,5.0553,5.063,5.0553,5.0587,5.0515,5.0553,5.0668,5.0822,5.1164,5.1548,5.1774,5.2005,5.2505,5.3005,5.3433,5.2903,5.2675,5.2675,5.3015,5.3611,5.3999,5.4542,5.5174,5.553,5.5699,5.5699,5.5699,5.5699,5.5699,5.5699,5.5699,5.5733,5.5699,5.5699,5.5699,5.5699,5.5699,5.5733,5.5733,5.5243,5.4668,5.4228,5.3822,5.3518,5.3501,5.3501,5.3501,5.3501,5.3501,5.3501,5.3433,5.3281,5.2909,5.2875,5.2536,5.1792,5.1488,5.1014,5.0811,5.0608,5.0085,4.9323,4.9052,4.868,4.8139,4.7936,4.7733,4.738,4.6989,4.6375,4.5589,4.5521,4.5505,4.5217,4.5544,4.5858,4.6029,4.6338,4.6646,4.6835,4.7072,4.7122,4.7131,4.7131,4.7131,4.7205,4.7131,4.7131,4.7131,4.7131,4.7095,4.7241,4.7526,4.7416,4.7205,4.7315,4.7388,4.7352,4.7562,4.7672,4.7931,4.8245,4.8458,4.8633,4.8696,4.889,4.9168,4.9438,4.9783,5.0107,5.0253,5.0566,5.0718,5.0806,5.0841,5.1015,5.1164,5.1279,5.1318,5.1241,5.1092,5.1241,5.1505,5.1928,5.2351,5.2544,5.289,5.3472,5.401,5.4357,5.3076,5.2937,5.3071,5.3577,5.4272,5.4659,5.5203,5.585,5.6105,5.6224,5.6139,5.6172,5.6206,5.6172,5.6172,5.619,5.6156,5.6224,5.6274,5.6292,5.6274,5.6206,5.6172,5.6037,5.5919,5.5378,5.4871,5.4363,5.3636,5.3501,5.3501,5.3501,5.3501,5.3501,5.3501,5.3501,5.3501,5.3501,5.3467,5.3112,5.2536,5.1979,5.1539,5.1438,5.1404,5.1066,5.0338,5.0236,4.983,4.9357,4.9086,4.8849,4.8259,4.8124,4.7571,4.6655,4.6534,4.641,4.6499,4.6782,4.7299,4.761,4.8048,4.8312,4.8486,4.8636,4.882,4.8783,4.882,4.881,4.8773,4.8627,4.8663,4.8746,4.8673,4.859,4.8737,4.892,4.892,4.881,4.8783,4.8489,4.8186,4.8416,4.8563,4.86,4.8878,4.8887,4.8964,4.8661,4.8804,4.9061,4.9315,4.9676,4.9959,5.0163,5.0612,5.1059,5.1226,5.1326,5.1572,5.1856,5.1967,5.2164,5.1933,5.1856,5.2005,5.2269,5.2697,5.3082,5.3318,5.378,5.4434,5.4741,5.4934,5.3076,5.297,5.3624,5.4064,5.4525,5.5636,5.6349,5.6713,5.7273,5.7611,5.7442,5.7543,5.7509,5.7476,5.7509,5.7561,5.7561,5.746,5.7374,5.7358,5.7374,5.7408,5.7543,5.7663,5.6968,5.6258,5.5784,5.4769,5.394,5.3636,5.3501,5.3501,5.3501,5.3501,5.3501,5.3501,5.3501,5.3501,5.3501,5.3433,5.3315,5.3145,5.2739,5.2367,5.2131,5.186,5.1217,5.1048,5.071,5.0101,4.9965,4.9593,4.9018,4.8868,4.8625,4.8133,4.7743,4.7493,4.7709,4.8111,4.8567,4.8933,4.9433,4.9875,4.993,5.0084,5.0251,5.0508,5.0435,5.0288,5.0068,4.9774,4.9894,4.9894,4.9747,4.9884,5.0105,4.9801,4.9874,4.9985,4.9811,4.9224,4.8737,4.9114,4.9454,4.9454,4.9463,4.9437,4.9439,4.9259,4.9187,4.9557,4.9874,5.0206,5.0551,5.0646,5.1005,5.1501,5.1688,5.1882,5.2259,5.2587,5.2933,5.2972,5.2818,5.2895,5.3203,5.3428,5.3626,5.3895,5.4241,5.478,5.5395,5.5549,5.5665,5.3314,5.3314,5.4038,5.4646,5.5204,5.6235,5.6946,5.739,5.7764,5.79,5.79,5.79,5.79,5.79,5.79,5.7866,5.79,5.79,5.79,5.79,5.79,5.79,5.7866,5.7866,5.7509,5.6934,5.6461,5.5886,5.482,5.3906,5.3501,5.3551,5.3534,5.3501,5.3636,5.3534,5.3501,5.3501,5.3501,5.3501,5.3501,5.3484,5.3315,5.301,5.2942,5.2486,5.2029,5.1826,5.1438,5.0879,5.0744,5.0371,4.9862,4.9653,4.9585,4.9046,4.9068,4.8813,4.8479,4.891,4.9316,4.9671,5.0079,5.0352,5.0581,5.0768,5.0875,5.0802,5.0802,5.0839,5.0875,5.0472,5.0545,5.0582,5.0592,5.0655,5.0802,5.0729,5.0655,5.0765,5.0839,5.0325,4.9911,5.0141,5.0408,5.0261,5.0261,5.0225,5.0264,5.026,5.0249,5.0388,5.0672,5.0928,5.1337,5.1609,5.1891,5.2291,5.2472,5.2702,5.3028,5.3356,5.3857,5.4241,5.4357,5.4434,5.4549,5.4395,5.4318,5.4703,5.517,5.5708,5.6203,5.6401,5.6593,5.3501,5.3568,5.4465,5.5209,5.58,5.6697,5.7374,5.7866,5.79,5.79,5.79,5.79,5.79,5.79,5.79,5.79,5.79,5.79,5.79,5.79,5.79,5.79,5.79,5.7832,5.7629,5.7036,5.6833,5.6427,5.575,5.4887,5.4211,5.4059,5.4245,5.4177,5.4093,5.416,5.416,5.3856,5.3619,5.3518,5.3501,5.3501,5.3501,5.3467,5.3433,5.3196,5.2706,5.2604,5.2249,5.1607,5.1472,5.115,5.0523,5.0514,5.0562,5.0343,5.0557,5.0662,5.0237,5.0209,5.0092,5.0361,5.0733,5.1391,5.1474,5.1389,5.1426,5.161,5.161,5.1536,5.1389,5.1306,5.1353,5.1389,5.1316,5.1316,5.1342,5.1489,5.1673,5.1856,5.1893,5.1756,5.1453,5.1416,5.1389,5.1169,5.1059,5.1022,5.0979,5.0983,5.0937,5.0944,5.1064,5.1318,5.1732,5.2166,5.2592,5.3136,5.3324,5.3706,5.415,5.4649,5.5203,5.5511,5.5742,5.6126,5.6357,5.5665,5.5054,5.5593,5.6132,5.6555,5.694,5.7209,5.744,5.3501,5.3619,5.5023,5.5631,5.58,5.7257,5.7832,5.79,5.79,5.79,5.79,5.79,5.79,5.79,5.79,5.79,5.79,5.79,5.79,5.79,5.79,5.79,5.79,5.7866,5.7832,5.7645,5.7273,5.69,5.6596,5.6003,5.5597,5.553,5.5259,5.5428,5.5361,5.5124,5.4938,5.4499,5.3991,5.3653,5.3585,5.3551,5.3501,5.3501,5.3501,5.3484,5.3416,5.3315,5.301,5.2266,5.2232,5.1894,5.1317,5.1342,5.1408,5.1478,5.1874,5.2102,5.2226,5.1925,5.1776,5.21,5.2333,5.249,5.2569,5.2884,5.2957,5.2737,5.2553,5.27,5.259,5.2491,5.2234,5.227,5.2186,5.2186,5.2297,5.2553,5.2737,5.2957,5.2847,5.2517,5.248,5.2333,5.2186,5.1966,5.1903,5.1856,5.1499,5.1393,5.131,5.131,5.1351,5.1545,5.1877,5.2445,5.3229,5.3949,5.4402,5.4886,5.5456,5.5995,5.6489,5.678,5.7011,5.7588,5.7857,5.6896,5.6357,5.667,5.7055,5.7396,5.7896,5.8319,5.8396,5.3501,5.3636,5.509,5.5699,5.58,5.7273,5.79,5.79,5.79,5.79,5.79,5.79,5.79,5.79,5.79,5.79,5.79,5.79,5.79,5.79,5.79,5.79,5.79,5.79,5.79,5.7832,5.7561,5.7494,5.7408,5.7002,5.7103,5.6867,5.6206,5.5767,5.5699,5.58,5.553,5.5243,5.46,5.4194,5.4093,5.3687,5.3501,5.3501,5.3501,5.3501,5.3467,5.3501,5.3315,5.3112,5.301,5.2536,5.2094,5.2187,5.2204,5.2241,5.2686,5.3204,5.3662,5.3447,5.3446,5.3269,5.3222,5.3097,5.3314,5.3214,5.3214,5.3177,5.3214,5.3214,5.3104,5.292,5.2858,5.3031,5.3031,5.2957,5.3104,5.3324,5.3508,5.3581,5.3324,5.3031,5.3031,5.3104,5.292,5.2774,5.2737,5.259,5.2223,5.1987,5.1969,5.2052,5.2143,5.2577,5.2944,5.3482,5.4027,5.4734,5.5432,5.5982,5.6538,5.7184,5.7641,5.7945,5.8088,5.8357,5.828,5.7742,5.7588,5.7742,5.7934,5.8127,5.8704,5.9358,5.9435,5.3501,5.367,5.509,5.5699,5.5902,5.7273,5.79,5.79,5.79,5.79,5.79,5.79,5.79,5.79,5.79,5.79,5.79,5.79,5.79,5.79,5.79,5.79,5.79,5.79,5.79,5.79,5.79,5.7866,5.7832,5.79,5.7764,5.7442,5.6968,5.6562,5.6393,5.6105,5.6003,5.5852,5.5378,5.4769,5.4566,5.416,5.3653,5.3568,5.3501,5.3501,5.3501,5.3501,5.3501,5.3433,5.3382,5.3196,5.3024,5.2915,5.2964,5.308,5.3341,5.3844,5.4352,5.4384,5.4581,5.4419,5.421,5.3847,5.3596,5.3544,5.3618,5.3214,5.3214,5.3214,5.3251,5.3104,5.3067,5.3141,5.3141,5.3141,5.3508,5.3812,5.3995,5.4142,5.3985,5.4058,5.3948,5.3948,5.3434,5.3251,5.2994,5.2957,5.2847,5.2758,5.2836,5.296,5.3101,5.3633,5.4224,5.453,5.4885,5.5806,5.6485,5.6963,5.7564,5.8187,5.8584,5.8719,5.8858,5.8973,5.905,5.905,5.8858,5.8665,5.8934,5.9242,5.955,6.0127,6.0319,5.3501,5.3687,5.5056,5.5665,5.5868,5.7273,5.79,5.79,5.79,5.79,5.79,5.79,5.79,5.79,5.79,5.79,5.79,5.79,5.79,5.79,5.79,5.79,5.79,5.79,5.79,5.79,5.79,5.79,5.79,5.79,5.79,5.79,5.7595,5.7561,5.773,5.7103,5.6799,5.6664,5.6055,5.5412,5.4972,5.4634,5.4126,5.3822,5.3534,5.3501,5.3501,5.3501,5.3501,5.3501,5.3501,5.3449,5.3514,5.3677,5.3949,5.4352,5.4939,5.5567,5.6169,5.5481,5.5314,5.5336,5.5141,5.4902,5.4509,5.4326,5.4179,5.3838,5.3581,5.3471,5.3324,5.3361,5.3471,5.3544,5.3618,5.3765,5.4179,5.4363,5.462,5.473,5.5181,5.5438,5.5181,5.484,5.4142,5.3691,5.3324,5.3214,5.3251,5.3225,5.3256,5.3587,5.3769,5.4293,5.4826,5.523,5.5781,5.671,5.7445,5.7896,5.8392,5.8936,5.9266,5.9477,5.9704,5.9858,6.0281,6.0627,6.0089,5.9627,6.0089,6.0435,6.0666,6.071,6.0781,5.3501,5.3585,5.4566,5.5277,5.5868,5.7273,5.79,5.79,5.79,5.79,5.79,5.79,5.79,5.79,5.79,5.79,5.79,5.79,5.79,5.79,5.79,5.79,5.79,5.79,5.79,5.79,5.79,5.79,5.79,5.79,5.79,5.79,5.79,5.79,5.7866,5.7577,5.7509,5.7374,5.6833,5.6292,5.5953,5.5175,5.4532,5.4228,5.3822,5.3585,5.3568,5.3568,5.3501,5.3501,5.3501,5.3568,5.375,5.3964,5.4349,5.488,5.5458,5.6182,5.6819,5.6794,5.6679,5.639,5.5955,5.5658,5.5218,5.5181,5.4987,5.4803,5.4583,5.4583,5.484,5.484,5.4876,5.4924,5.4961,5.495,5.5181,5.5181,5.5291,5.5328,5.5585,5.5695,5.5585,5.5548,5.4987,5.4363,5.4021,5.3581,5.3471,5.3398,5.3382,5.3902,5.4302,5.4837,5.5384,5.5853,5.6584,5.7528,5.814,5.8615,5.9152,5.9611,5.9907,6.0121,6.0438,6.0781,6.0781,6.0781,6.0704,6.0627,6.0742,6.0781,6.0781,6.0742,6.0781,5.3501,5.3568,5.4296,5.4871,5.5496,5.69,5.7663,5.7866,5.79,5.79,5.79,5.79,5.79,5.79,5.79,5.79,5.79,5.79,5.79,5.79,5.79,5.79,5.79,5.79,5.79,5.79,5.79,5.79,5.79,5.79,5.79,5.79,5.79,5.79,5.79,5.7866,5.7832,5.7697,5.7306,5.7002,5.6562,5.5953,5.531,5.4871,5.4397,5.394,5.3822,5.367,5.3501,5.3501,5.3534,5.3635,5.3816,5.4076,5.4491,5.5048,5.5844,5.6564,5.7177,5.7558,5.7358,5.724,5.6675,5.6356,5.6136,5.6025,5.5768,5.5658,5.5695,5.5658,5.5658,5.5695,5.5732,5.5695,5.5695,5.5695,5.6014,5.6014,5.6209,5.6209,5.6282,5.6246,5.6014,5.5989,5.5831,5.5244,5.473,5.4326,5.3985,5.3911,5.3995,5.4505,5.4963,5.5507,5.6065,5.6567,5.7358,5.8306,5.8754,5.9113,5.9619,6.0019,6.0398,6.0648,6.0703,6.0752,6.0775,6.0742,6.0704,6.0704,6.0781,6.0781,6.0781,6.0781,6.0781,5.3501,5.3619,5.4262,5.4583,5.4888,5.6258,5.7257,5.7866,5.79,5.79,5.79,5.79,5.79,5.79,5.79,5.79,5.79,5.79,5.79,5.79,5.79,5.79,5.79,5.79,5.79,5.79,5.79,5.79,5.79,5.79,5.79,5.79,5.79,5.79,5.79,5.79,5.79,5.7832,5.7746,5.7408,5.7002,5.6697,5.619,5.5683,5.5074,5.4702,5.4465,5.4126,5.3788,5.3619,5.3568,5.3735,5.3915,5.4125,5.4617,5.5313,5.6278,5.6907,5.7363,5.7667,5.7821,5.7765,5.7776,5.7446,5.7116,5.6822,5.6638,5.6308,5.6209,5.6025,5.5915,5.5952,5.6025,5.5989,5.5989,5.6271,5.6701,5.6969,5.7226,5.7373,5.7531,5.7409,5.6969,5.6785,5.6613,5.6393,5.5989,5.5915,5.5537,5.5023,5.5144,5.5401,5.586,5.6183,5.6725,5.7228,5.7705,5.8536,5.8952,5.9381,5.9874,6.0241,6.0418,6.0552,6.066,6.0722,6.0763,6.0781,6.0781,6.0781,6.0819,6.0781,6.0781,6.0819,6.0819,5.3501,5.3501,5.3754,5.4126,5.4769,5.619,5.7239,5.7866,5.79,5.79,5.79,5.79,5.79,5.79,5.79,5.79,5.79,5.79,5.79,5.79,5.79,5.79,5.79,5.79,5.79,5.79,5.79,5.79,5.79,5.79,5.79,5.79,5.79,5.79,5.79,5.79,5.79,5.79,5.79,5.773,5.7408,5.7103,5.6765,5.6359,5.5784,5.5428,5.5192,5.4668,5.4329,5.4262,5.3788,5.3685,5.3998,5.4303,5.4788,5.5972,5.6697,5.7226,5.751,5.781,5.7962,5.7985,5.7997,5.796,5.7703,5.7556,5.7409,5.7116,5.6932,5.687,5.687,5.687,5.687,5.687,5.6859,5.7042,5.7446,5.7483,5.774,5.7776,5.796,5.7923,5.7519,5.7483,5.7347,5.731,5.7237,5.7127,5.6907,5.6356,5.6172,5.6393,5.6562,5.6875,5.7335,5.7858,5.8212,5.8638,5.9053,5.9373,5.9698,5.9999,6.0285,6.0518,6.0789,6.0837,6.0775,6.0935,6.132,6.0935,6.0864,6.0819,6.0819,6.0973,6.1243,5.3501,5.3501,5.3501,5.3923,5.4685,5.5547,5.6359,5.7036,5.7629,5.79,5.79,5.79,5.79,5.79,5.79,5.79,5.79,5.79,5.79,5.79,5.79,5.79,5.79,5.79,5.79,5.79,5.79,5.79,5.79,5.79,5.79,5.79,5.79,5.79,5.79,5.79,5.79,5.79,5.79,5.79,5.7697,5.7442,5.7306,5.707,5.6477,5.6206,5.6037,5.5412,5.5108,5.4938,5.4329,5.4126,5.4438,5.4749,5.5249,5.6286,5.6878,5.7264,5.7559,5.7845,5.7962,5.7997,5.7997,5.796,5.796,5.785,5.785,5.774,5.785,5.7923,5.7923,5.796,5.7923,5.7923,5.7923,5.7923,5.796,5.796,5.796,5.796,5.7997,5.7997,5.7923,5.7997,5.796,5.7788,5.7714,5.7678,5.7531,5.7262,5.7116,5.7226,5.731,5.748,5.7941,5.8204,5.8367,5.8577,5.8885,5.9215,5.9516,5.9931,6.0295,6.0644,6.0987,6.1138,6.1385,6.1775,6.205,6.1666,6.1589,6.1858,6.1858,6.1672,6.1979,5.3501,5.3501,5.3501,5.3856,5.4482,5.4634,5.5074,5.5733,5.7036,5.7712,5.773,5.7798,5.7798,5.7866,5.79,5.79,5.79,5.79,5.79,5.79,5.79,5.79,5.79,5.79,5.79,5.79,5.79,5.79,5.79,5.79,5.79,5.79,5.79,5.79,5.79,5.79,5.79,5.79,5.79,5.79,5.79,5.7866,5.7866,5.7764,5.7306,5.6867,5.668,5.6274,5.5784,5.5547,5.5245,5.4924,5.5316,5.5757,5.6223,5.6547,5.7221,5.7434,5.7656,5.7857,5.7962,5.7997,5.7997,5.7997,5.7997,5.7997,5.7997,5.7997,5.7997,5.7997,5.7997,5.7997,5.7997,5.7997,5.7997,5.7997,5.7997,5.7997,5.7997,5.7997,5.7997,5.7997,5.7997,5.7997,5.7997,5.7997,5.7997,5.7997,5.7923,5.7776,5.785,5.785,5.7788,5.7751,5.7884,5.8122,5.8268,5.8508,5.8791,5.9082,5.9409,5.9857,6.0327,6.1075,6.1838,6.2016,6.2257,6.2538,6.2775,6.2775,6.2814,6.316,6.3051,6.271,6.2826,5.3501,5.3501,5.3501,5.3619,5.3822,5.4363,5.4668,5.4938,5.5818,5.6528,5.7002,5.7103,5.7374,5.7798,5.7866,5.79,5.79,5.79,5.79,5.79,5.79,5.79,5.79,5.79,5.79,5.79,5.79,5.79,5.79,5.79,5.79,5.79,5.79,5.79,5.79,5.79,5.79,5.79,5.79,5.79,5.79,5.79,5.7866,5.7866,5.7595,5.7561,5.734,5.6934,5.6664,5.6445,5.5959,5.608,5.6701,5.7263,5.7504,5.7597,5.7926,5.8053,5.8008,5.815,5.8267,5.8143,5.8107,5.8033,5.7997,5.7997,5.7997,5.7997,5.7997,5.7997,5.7997,5.7997,5.7997,5.7997,5.807,5.807,5.807,5.807,5.807,5.8033,5.8033,5.7997,5.7997,5.7997,5.7997,5.7997,5.7997,5.7997,5.8045,5.796,5.8107,5.8107,5.7971,5.7971,5.802,5.8065,5.8201,5.8452,5.8746,5.9067,5.9431,6.0295,6.1225,6.2091,6.2785,6.2925,6.3014,6.3077,6.3275,6.3622,6.3737,6.3974,6.4205,6.3974,6.4051,5.3501,5.3501,5.3501,5.3501,5.3568,5.3957,5.4093,5.4194,5.4549,5.5124,5.5919,5.6494,5.7036,5.7509,5.773,5.79,5.79,5.79,5.79,5.79,5.79,5.79,5.79,5.79,5.79,5.79,5.79,5.79,5.79,5.79,5.79,5.79,5.79,5.79,5.79,5.79,5.79,5.79,5.79,5.79,5.79,5.79,5.79,5.79,5.79,5.79,5.7798,5.7494,5.7446,5.7353,5.7054,5.6863,5.7308,5.7786,5.8238,5.8509,5.8799,5.9002,5.8823,5.8809,5.8951,5.8914,5.9024,5.9208,5.9245,5.9245,5.8621,5.8547,5.807,5.7997,5.7997,5.7997,5.7997,5.7997,5.8474,5.8792,5.8866,5.8939,5.8829,5.8646,5.8437,5.7997,5.7997,5.7997,5.7997,5.7997,5.7997,5.8107,5.8143,5.8437,5.851,5.8474,5.8437,5.8155,5.8008,5.8054,5.8122,5.8386,5.8926,5.9794,6.0604,6.1359,6.2193,6.2933,6.3481,6.3751,6.3835,6.3955,6.4352,6.482,6.4782,6.4743,6.4974,6.5166,6.5205,5.3501,5.3501,5.3501,5.3501,5.3501,5.3501,5.3534,5.3534,5.3534,5.389,5.4634,5.5886,5.6494,5.7036,5.7408,5.7679,5.7866,5.79,5.79,5.79,5.79,5.79,5.79,5.79,5.79,5.79,5.79,5.79,5.79,5.79,5.79,5.79,5.79,5.79,5.79,5.79,5.79,5.79,5.79,5.79,5.79,5.79,5.79,5.79,5.79,5.79,5.79,5.7954,5.8027,5.8111,5.8084,5.819,5.8323,5.882,5.9066,5.9492,5.9763,5.9927,5.9956,5.9993,6.0138,6.026,6.0407,6.0419,6.0382,6.0052,5.9428,5.9061,5.8584,5.8364,5.8364,5.8364,5.8364,5.8437,5.9098,5.9563,5.9673,5.9747,5.9563,5.9343,5.8939,5.84,5.8327,5.829,5.829,5.8253,5.8253,5.829,5.8474,5.9024,5.9355,5.9245,5.9134,5.8767,5.8474,5.8508,5.875,5.9139,5.98,6.0795,6.1723,6.2344,6.2955,6.3516,6.4047,6.4448,6.4834,6.5045,6.5474,6.5705,6.5513,6.5359,6.5865,6.6058,6.6205,5.3501,5.3501,5.3501,5.3501,5.3501,5.3501,5.3501,5.3501,5.3501,5.3619,5.3957,5.4651,5.5581,5.6799,5.69,5.7273,5.79,5.79,5.79,5.79,5.79,5.79,5.79,5.79,5.79,5.79,5.79,5.79,5.7967,5.7934,5.7934,5.8001,5.8001,5.8001,5.7967,5.7967,5.8035,5.8035,5.7967,5.7934,5.7967,5.7967,5.79,5.79,5.79,5.79,5.7936,5.8045,5.8135,5.8352,5.8892,5.9383,5.9761,6.0137,6.0361,6.049,6.0781,6.0732,6.0786,6.075,6.0848,6.0774,6.0774,6.075,6.0713,6.0676,6.0272,6.0272,5.9942,5.9832,5.9795,5.9722,5.9685,5.9795,6.0199,6.0297,6.0407,6.0334,6.0224,6.0114,5.9967,5.9722,5.9648,5.9648,5.9612,5.9612,5.9575,5.9575,5.9538,5.9869,6.0224,6.0126,5.9979,6.0015,5.9942,5.9685,5.9841,6.0197,6.0711,6.1653,6.2494,6.3209,6.3813,6.4298,6.4778,6.5234,6.5621,6.5769,6.5936,6.6019,6.5897,6.5942,6.6519,6.6942,6.7051]}]]